[[{"header":{"parameterUnit":"m.s-1","parameterCategory":1,"la1":30.6,"la2":29.2853,"lo1":-89.7004,"lo2":-87.6739,"dy":0.0162,"dx":0.0183,"nx":112,"ny":82,"refTime":"2024-06-24T12:00:00:Z","depth":0,"parameterNumber":2,"parameterNumberName":"U-component_of_WINDS"},"data":[0.0,0.0,0.0,0.0,0.0,0.0,0.0,0.0,0.0,0.0,0.0,0.0,0.0,0.0,0.0,0.0,0.0,0.0,0.0,0.0,0.0,0.0,0.0,0.0,0.0,0.0,0.0,0.0,0.0,0.0,0.0,0.0,0.0,0.0,0.0,0.0,0.0,0.0,0.0,0.0,0.0,0.0,0.0,0.0,0.0,0.0,0.0,0.0,0.0,0.0,0.0,0.0,0.0,0.0,0.0,0.0,0.0,0.0,0.0,0.0,0.0,0.0,0.0,0.0,0.0,0.0,0.0,0.0,0.0,0.0,0.0,0.0,0.0,0.0,0.0,0.0,0.0,0.0,0.0,0.0,0.0,0.0,0.0,0.0,0.0,0.0,0.0,0.0,0.0,0.0,-2.7363,-2.9174,-3.0899,-3.1909,-3.1909,-3.0867,-2.9598,-2.8237,0.0,0.0,0.0,0.0,0.0,0.0,0.0,0.0,0.0,0.0,0.0,0.0,0.0,0.0,0.0,0.0,0.0,0.0,0.0,0.0,0.0,0.0,0.0,0.0,0.0,0.0,0.0,0.0,0.0,0.0,0.0,0.0,0.0,0.0,0.0,0.0,0.0,0.0,0.0,0.0,0.0,0.0,0.0,0.0,0.0,0.0,0.0,0.0,0.0,0.0,0.0,0.0,0.0,0.0,0.0,0.0,0.0,0.0,0.0,0.0,0.0,0.0,0.0,0.0,0.0,0.0,0.0,0.0,0.0,0.0,0.0,0.0,0.0,0.0,0.0,0.0,0.0,0.0,0.0,0.0,0.0,0.0,0.0,0.0,0.0,0.0,0.0,0.0,0.0,0.0,0.0,0.0,0.0,0.0,0.0,0.0,0.0,0.0,0.0,0.0,0.0,0.0,0.0,0.0,-2.691,-2.8996,-3.0411,-3.1161,-3.1161,-2.9987,-2.8717,-2.7535,0.0,0.0,0.0,0.0,0.0,0.0,0.0,0.0,0.0,0.0,0.0,0.0,0.0,0.0,0.0,0.0,0.0,0.0,0.0,0.0,0.0,0.0,0.0,0.0,0.0,0.0,0.0,0.0,0.0,0.0,0.0,0.0,0.0,0.0,0.0,0.0,0.0,0.0,0.0,0.0,0.0,0.0,0.0,0.0,0.0,0.0,0.0,0.0,0.0,0.0,0.0,0.0,0.0,0.0,0.0,0.0,0.0,0.0,0.0,0.0,0.0,0.0,0.0,0.0,0.0,0.0,0.0,0.0,0.0,0.0,0.0,0.0,0.0,0.0,0.0,0.0,0.0,0.0,0.0,0.0,0.0,0.0,0.0,0.0,0.0,0.0,0.0,0.0,0.0,0.0,0.0,0.0,0.0,0.0,0.0,0.0,0.0,0.0,0.0,0.0,0.0,0.0,0.0,-2.6207,-2.7833,-2.8812,-2.9986,-3.0672,-3.0672,-2.9551,-2.8344,-2.7211,-2.5133,0.0,0.0,0.0,0.0,0.0,0.0,0.0,0.0,0.0,0.0,0.0,0.0,0.0,0.0,0.0,0.0,0.0,0.0,0.0,0.0,0.0,0.0,0.0,0.0,0.0,0.0,0.0,0.0,0.0,0.0,0.0,0.0,0.0,0.0,0.0,0.0,0.0,0.0,0.0,0.0,0.0,0.0,0.0,0.0,0.0,0.0,0.0,0.0,0.0,0.0,0.0,0.0,0.0,0.0,0.0,0.0,0.0,0.0,0.0,0.0,0.0,0.0,0.0,0.0,0.0,0.0,0.0,0.0,0.0,0.0,0.0,0.0,0.0,0.0,0.0,0.0,0.0,0.0,0.0,0.0,0.0,0.0,0.0,0.0,0.0,0.0,0.0,0.0,0.0,0.0,0.0,0.0,0.0,0.0,0.0,0.0,0.0,0.0,0.0,0.0,0.0,0.0,-2.7177,-2.8545,-2.8545,-2.959,-3.0203,-3.0062,-2.9106,-2.801,-2.6748,-2.4557,0.0,0.0,0.0,0.0,0.0,0.0,0.0,0.0,0.0,0.0,0.0,0.0,0.0,0.0,0.0,0.0,0.0,0.0,0.0,0.0,0.0,0.0,0.0,0.0,0.0,0.0,0.0,0.0,0.0,0.0,0.0,0.0,0.0,0.0,0.0,0.0,0.0,0.0,0.0,0.0,0.0,0.0,0.0,0.0,0.0,0.0,0.0,0.0,0.0,0.0,0.0,0.0,0.0,0.0,0.0,0.0,0.0,0.0,0.0,0.0,0.0,0.0,0.0,0.0,0.0,0.0,0.0,0.0,0.0,0.0,0.0,0.0,0.0,0.0,0.0,0.0,0.0,0.0,0.0,0.0,0.0,0.0,0.0,0.0,0.0,0.0,0.0,0.0,0.0,0.0,0.0,0.0,0.0,0.0,0.0,0.0,0.0,0.0,0.0,0.0,0.0,0.0,-2.6854,-2.8133,-2.8133,-2.9152,-2.9617,-2.9064,-2.8473,-2.7442,-2.5795,-2.4067,0.0,0.0,0.0,0.0,0.0,0.0,0.0,0.0,0.0,0.0,0.0,0.0,0.0,0.0,0.0,0.0,0.0,0.0,0.0,0.0,0.0,0.0,0.0,0.0,0.0,0.0,0.0,0.0,0.0,0.0,0.0,0.0,0.0,0.0,0.0,0.0,0.0,0.0,0.0,0.0,0.0,0.0,0.0,0.0,0.0,0.0,0.0,0.0,0.0,0.0,0.0,0.0,0.0,0.0,0.0,0.0,0.0,0.0,0.0,0.0,0.0,0.0,0.0,0.0,0.0,0.0,0.0,0.0,0.0,0.0,0.0,0.0,0.0,0.0,0.0,0.0,0.0,0.0,0.0,0.0,0.0,0.0,0.0,0.0,0.0,0.0,0.0,0.0,0.0,0.0,0.0,0.0,0.0,0.0,0.0,0.0,0.0,0.0,0.0,0.0,0.0,0.0,-2.6776,-2.8109,-2.8109,-2.9114,-2.9566,-2.8938,-2.8423,-2.7381,-2.5699,0.0,0.0,0.0,0.0,0.0,0.0,0.0,0.0,0.0,0.0,0.0,0.0,0.0,0.0,0.0,0.0,0.0,0.0,0.0,0.0,0.0,0.0,0.0,0.0,0.0,0.0,0.0,0.0,0.0,0.0,0.0,0.0,0.0,0.0,0.0,0.0,0.0,0.0,0.0,0.0,0.0,0.0,0.0,0.0,0.0,0.0,0.0,0.0,0.0,0.0,0.0,0.0,0.0,0.0,0.0,0.0,0.0,0.0,0.0,0.0,0.0,0.0,0.0,0.0,0.0,0.0,0.0,0.0,0.0,0.0,0.0,0.0,0.0,0.0,0.0,0.0,0.0,0.0,0.0,0.0,0.0,0.0,0.0,0.0,0.0,0.0,0.0,0.0,0.0,0.0,0.0,0.0,0.0,0.0,0.0,0.0,0.0,0.0,0.0,0.0,0.0,0.0,-2.465,-2.6741,-2.8109,-2.8109,-2.9114,-2.949,-2.87,-2.8323,-2.7308,-2.5461,0.0,0.0,0.0,0.0,0.0,0.0,0.0,0.0,0.0,0.0,0.0,0.0,0.0,0.0,0.0,0.0,0.0,0.0,0.0,0.0,0.0,0.0,0.0,0.0,0.0,0.0,0.0,0.0,0.0,0.0,0.0,0.0,0.0,0.0,0.0,0.0,0.0,0.0,0.0,0.0,0.0,0.0,0.0,0.0,0.0,0.0,0.0,0.0,0.0,0.0,0.0,0.0,0.0,0.0,0.0,0.0,0.0,0.0,0.0,0.0,0.0,0.0,0.0,0.0,0.0,0.0,0.0,0.0,0.0,0.0,0.0,0.0,0.0,0.0,0.0,0.0,0.0,0.0,0.0,0.0,0.0,0.0,0.0,0.0,0.0,0.0,0.0,0.0,0.0,0.0,0.0,0.0,0.0,0.0,0.0,0.0,0.0,0.0,0.0,0.0,0.0,0.0,-2.465,-2.6741,-2.8109,-2.8109,-2.9114,-2.934,-2.821,-2.8109,-2.7149,0.0,0.0,0.0,0.0,0.0,0.0,0.0,0.0,0.0,0.0,0.0,0.0,0.0,0.0,0.0,0.0,0.0,0.0,0.0,0.0,0.0,0.0,0.0,0.0,0.0,0.0,0.0,0.0,0.0,0.0,0.0,0.0,0.0,0.0,0.0,0.0,0.0,0.0,0.0,0.0,0.0,0.0,0.0,0.0,0.0,0.0,0.0,0.0,0.0,0.0,0.0,0.0,0.0,0.0,0.0,0.0,0.0,0.0,0.0,0.0,0.0,0.0,0.0,0.0,0.0,0.0,0.0,0.0,0.0,0.0,0.0,0.0,0.0,0.0,0.0,0.0,0.0,0.0,0.0,0.0,0.0,0.0,0.0,0.0,0.0,0.0,0.0,0.0,0.0,0.0,0.0,0.0,0.0,0.0,0.0,0.0,0.0,0.0,0.0,0.0,0.0,0.0,0.0,-2.465,-2.6741,-2.8109,-2.8109,-2.9114,-2.9326,-2.8213,-2.8089,-2.7161,-2.4957,0.0,0.0,0.0,0.0,0.0,0.0,0.0,0.0,0.0,0.0,0.0,0.0,0.0,0.0,0.0,0.0,0.0,0.0,0.0,0.0,0.0,0.0,0.0,0.0,0.0,0.0,0.0,0.0,0.0,0.0,0.0,0.0,0.0,0.0,0.0,0.0,0.0,0.0,0.0,0.0,0.0,0.0,0.0,0.0,0.0,0.0,0.0,0.0,0.0,0.0,0.0,0.0,0.0,0.0,0.0,0.0,0.0,0.0,0.0,0.0,0.0,0.0,0.0,0.0,0.0,0.0,0.0,0.0,0.0,0.0,0.0,0.0,0.0,0.0,0.0,0.0,0.0,0.0,0.0,0.0,0.0,0.0,0.0,0.0,0.0,0.0,0.0,0.0,0.0,0.0,0.0,0.0,0.0,0.0,0.0,0.0,0.0,0.0,0.0,0.0,0.0,0.0,-2.465,-2.6741,-2.8109,-2.8109,-2.9114,-2.9427,-2.85,-2.8226,-2.7259,-2.5249,0.0,0.0,0.0,0.0,0.0,0.0,0.0,0.0,0.0,0.0,0.0,0.0,0.0,0.0,0.0,0.0,0.0,0.0,0.0,0.0,0.0,0.0,0.0,0.0,0.0,0.0,0.0,0.0,0.0,0.0,0.0,0.0,0.0,0.0,0.0,0.0,0.0,0.0,0.0,0.0,0.0,0.0,0.0,0.0,0.0,0.0,0.0,0.0,0.0,0.0,0.0,0.0,0.0,0.0,0.0,0.0,0.0,0.0,0.0,0.0,0.0,0.0,0.0,0.0,0.0,0.0,0.0,0.0,0.0,0.0,0.0,0.0,0.0,0.0,0.0,0.0,0.0,0.0,0.0,0.0,0.0,0.0,0.0,0.0,0.0,0.0,0.0,0.0,0.0,0.0,0.0,0.0,0.0,0.0,0.0,0.0,0.0,0.0,0.0,0.0,0.0,0.0,-2.4714,-2.6763,-2.8121,-2.8171,-2.9164,-2.9579,-2.8938,-2.8411,-2.7427,-2.5802,0.0,0.0,0.0,0.0,0.0,0.0,0.0,0.0,0.0,0.0,0.0,0.0,0.0,0.0,0.0,0.0,0.0,0.0,0.0,0.0,0.0,0.0,0.0,0.0,0.0,0.0,0.0,0.0,0.0,0.0,0.0,0.0,0.0,0.0,0.0,0.0,0.0,0.0,0.0,0.0,0.0,0.0,0.0,0.0,0.0,0.0,0.0,0.0,0.0,0.0,0.0,0.0,0.0,0.0,0.0,0.0,0.0,0.0,0.0,0.0,-3.0044,0.0,0.0,0.0,0.0,0.0,0.0,0.0,0.0,0.0,0.0,0.0,0.0,0.0,0.0,0.0,0.0,0.0,0.0,0.0,0.0,0.0,0.0,0.0,0.0,0.0,0.0,0.0,0.0,0.0,0.0,0.0,0.0,0.0,0.0,0.0,0.0,0.0,0.0,0.0,0.0,0.0,-2.5306,-2.699,-2.8261,-2.8689,-2.9378,-2.9576,-2.8932,-2.8392,-2.7582,-2.6386,-2.4865,0.0,0.0,0.0,0.0,0.0,0.0,0.0,0.0,0.0,0.0,0.0,0.0,0.0,0.0,0.0,0.0,0.0,0.0,0.0,0.0,0.0,0.0,0.0,0.0,0.0,0.0,0.0,0.0,0.0,0.0,0.0,0.0,0.0,0.0,0.0,0.0,0.0,0.0,0.0,0.0,0.0,0.0,0.0,0.0,0.0,0.0,0.0,0.0,0.0,0.0,0.0,0.0,0.0,0.0,0.0,0.0,0.0,0.0,0.0,0.0,-3.1137,0.0,0.0,0.0,0.0,0.0,0.0,0.0,0.0,0.0,0.0,0.0,0.0,0.0,0.0,0.0,0.0,0.0,0.0,0.0,0.0,0.0,0.0,0.0,0.0,0.0,0.0,0.0,0.0,0.0,0.0,0.0,0.0,0.0,0.0,0.0,0.0,0.0,0.0,0.0,0.0,-2.5875,-2.7227,-2.8296,-2.882,-2.9429,-2.9664,-2.9346,-2.8813,-2.8014,-2.6936,-2.5826,0.0,0.0,0.0,0.0,0.0,0.0,0.0,0.0,0.0,0.0,0.0,0.0,0.0,0.0,0.0,0.0,0.0,0.0,0.0,0.0,0.0,0.0,0.0,0.0,0.0,0.0,0.0,0.0,0.0,0.0,0.0,0.0,0.0,0.0,0.0,0.0,0.0,0.0,0.0,0.0,0.0,0.0,0.0,0.0,0.0,0.0,0.0,0.0,0.0,0.0,0.0,0.0,0.0,-3.9247,-3.8888,-3.8683,-3.8236,-3.7886,-3.756,-3.5383,-3.4004,-3.3268,-3.2247,0.0,0.0,0.0,0.0,0.0,0.0,0.0,0.0,0.0,0.0,0.0,0.0,0.0,0.0,0.0,0.0,0.0,0.0,0.0,0.0,0.0,0.0,0.0,0.0,-2.8412,-2.7427,-2.5498,0.0,0.0,0.0,0.0,0.0,0.0,0.0,0.0,0.0,0.0,0.0,-2.6453,-2.7582,-2.8438,-2.9001,-2.9491,-2.9792,-2.9792,-2.9257,-2.8499,-2.7627,-2.6892,-2.5669,0.0,0.0,0.0,0.0,0.0,0.0,0.0,0.0,0.0,0.0,0.0,0.0,0.0,0.0,0.0,0.0,0.0,0.0,0.0,0.0,0.0,0.0,0.0,0.0,0.0,0.0,0.0,0.0,0.0,0.0,0.0,0.0,-2.5328,-2.6147,0.0,0.0,0.0,0.0,0.0,0.0,0.0,0.0,0.0,0.0,0.0,0.0,0.0,-3.8469,-4.0576,-4.0451,-4.0968,-4.216,-4.1896,-4.1534,-4.1115,-4.0642,-4.0308,-4.0038,-3.9514,0.0,-3.5784,-3.4211,0.0,0.0,0.0,0.0,0.0,0.0,0.0,0.0,0.0,0.0,0.0,0.0,0.0,0.0,0.0,0.0,0.0,0.0,0.0,0.0,0.0,0.0,-2.9813,-3.0234,-2.9656,-2.893,0.0,-2.653,-2.4733,-2.4672,-2.3706,0.0,0.0,0.0,0.0,0.0,0.0,0.0,-2.7114,-2.8111,-2.9013,-2.9629,-2.9741,-2.9792,-2.9792,-2.9257,-2.8829,-2.8709,-2.7324,-2.6361,-2.6072,-2.4167,0.0,0.0,0.0,0.0,0.0,0.0,0.0,0.0,0.0,0.0,0.0,0.0,0.0,0.0,0.0,0.0,0.0,0.0,0.0,0.0,0.0,0.0,0.0,0.0,0.0,0.0,0.0,0.0,0.0,-2.5342,-2.6983,-2.7344,-2.8099,-2.8784,0.0,0.0,0.0,0.0,0.0,0.0,0.0,0.0,0.0,-3.9056,-4.0181,-4.138,-4.2664,-4.2527,-4.2876,-4.367,-4.3276,-4.2909,-4.2603,-4.2035,-4.1683,-4.15,-4.1191,-4.0415,-3.9191,-3.6965,-3.5716,-3.5167,0.0,0.0,0.0,0.0,-3.3769,-3.3769,-3.3769,-3.3769,-3.3514,-3.2213,0.0,0.0,0.0,0.0,0.0,0.0,0.0,0.0,0.0,0.0,-3.1537,-3.171,-3.1307,-3.0789,-3.065,-2.9082,-2.7427,0.0,-2.53,-2.4511,-2.452,0.0,0.0,0.0,0.0,-2.689,-2.805,-2.8587,-2.9124,-2.9754,-2.9792,-2.9792,-2.9792,-2.9575,-2.926,-2.8936,-2.7961,-2.714,-2.6512,-2.5209,-2.3966,0.0,0.0,0.0,0.0,0.0,0.0,0.0,0.0,0.0,0.0,0.0,0.0,0.0,0.0,0.0,0.0,0.0,0.0,0.0,0.0,0.0,0.0,0.0,0.0,0.0,0.0,0.0,0.0,-2.6989,-2.8443,-2.8858,-2.9627,-3.0416,0.0,0.0,0.0,0.0,0.0,0.0,-3.693,-3.9159,-4.0714,-4.1247,-4.2825,-4.3944,-4.4512,-4.4524,-4.4791,-4.5344,-4.4835,-4.4463,-4.4195,-4.3661,-4.3288,-4.3137,-4.2591,-4.2303,-4.1957,-3.9444,-3.8052,-3.7404,-3.6567,-3.6237,-3.6222,-3.6058,-3.5998,-3.5998,-3.5998,-3.5998,-3.5804,-3.4637,-3.4143,-3.3829,-3.2751,0.0,0.0,0.0,0.0,-3.256,-3.2987,-3.2981,-3.283,-3.2853,-3.2393,-3.1959,-3.1861,-3.0984,-2.9764,0.0,-2.7016,-2.622,-2.6251,0.0,0.0,0.0,0.0,-2.7557,-2.8757,-2.9043,-2.9321,-2.9728,-2.9792,-2.9792,-2.9792,-2.9792,-2.9616,-2.9176,-2.8624,-2.7883,-2.6952,-2.6223,-2.5034,-2.3358,0.0,0.0,0.0,0.0,0.0,0.0,0.0,0.0,0.0,0.0,0.0,0.0,0.0,0.0,0.0,0.0,0.0,0.0,0.0,0.0,0.0,0.0,0.0,0.0,0.0,0.0,0.0,0.0,0.0,-3.1243,-3.2078,0.0,0.0,0.0,0.0,-3.608,-3.8006,-3.9188,-3.9219,-4.145,-4.2741,-4.2789,-4.4361,-4.5501,-4.6173,-4.6614,-4.7114,-4.7624,-4.7206,-4.6819,-4.6427,-4.6005,-4.5683,-4.5378,-4.4558,-4.3838,-4.3174,-4.1085,-4.0232,-4.0068,-3.8751,-3.8242,-3.8167,-3.7539,-3.7315,-3.7315,-3.7315,-3.7315,-3.721,-3.6552,-3.5908,-3.5352,-3.5083,-3.4889,0.0,0.0,-3.4741,-3.4389,-3.4379,-3.3825,-3.325,-3.3178,-3.2421,-3.181,-3.2105,-3.1737,-3.1004,0.0,-2.8767,-2.7956,-2.7965,0.0,-2.794,-2.8024,-2.8437,-2.88,-2.8913,-2.9402,-2.9779,-2.9792,-2.9792,-2.9792,-2.9792,-2.9792,-2.9779,-2.9754,-2.9202,-2.8624,-2.8047,-2.7014,-2.5682,-2.3991,-2.3358,0.0,0.0,0.0,0.0,0.0,0.0,0.0,0.0,0.0,0.0,0.0,0.0,0.0,0.0,0.0,0.0,0.0,0.0,0.0,0.0,0.0,0.0,0.0,0.0,0.0,0.0,0.0,0.0,-3.2913,-3.369,0.0,-3.5938,-3.6723,-3.7465,-3.8241,-3.9938,-4.0956,-4.0956,-4.3204,-4.4512,-4.4512,-4.6086,-4.6961,-4.7087,-4.7227,-4.735,-4.7409,-4.7021,-4.6746,-4.6588,-4.6011,-4.5703,-4.5563,-4.5128,-4.4821,-4.4556,-4.3838,-4.2551,-4.098,-4.0502,-4.0322,-4.0292,-4.0053,-3.9963,-3.9963,-3.9963,-3.9963,-3.9798,-3.8721,-3.7913,-3.7251,-3.6614,-3.6222,-3.5941,-3.5637,-3.5336,-3.4996,-3.4605,-3.425,-3.3914,-3.3606,-3.3161,-3.2782,-3.2759,-3.2297,-3.1776,-3.1395,-3.0458,-2.9605,-2.9249,-2.885,-2.8612,-2.8612,-2.8762,-2.9026,-2.944,-2.9666,-2.9792,-2.9792,-2.9792,-2.9792,-2.9792,-2.9792,-2.9792,-2.9792,-2.9252,-2.865,-2.8134,-2.7394,-2.6399,-2.5059,-2.4462,-2.3634,0.0,0.0,0.0,0.0,0.0,0.0,0.0,0.0,0.0,0.0,0.0,0.0,0.0,0.0,0.0,0.0,0.0,0.0,0.0,0.0,0.0,0.0,0.0,0.0,0.0,0.0,-3.32,-3.4379,-3.5513,-3.6698,-3.7986,-3.8735,-3.9531,-4.0501,-4.1797,-4.2606,-4.2836,-4.4629,-4.5639,-4.5554,-4.6974,-4.7622,-4.7388,-4.7644,-4.7705,-4.7546,-4.724,-4.7038,-4.6916,-4.6492,-4.6245,-4.6157,-4.5789,-4.5642,-4.5618,-4.5394,-4.4272,-4.2656,-4.2207,-4.1908,-4.1722,-4.1459,-4.1422,-4.1422,-4.1422,-4.1422,-4.1235,-4.0367,-3.9768,-3.9284,-3.8563,-3.812,-3.7696,-3.6814,-3.6322,-3.5847,-3.5021,-3.4534,-3.4189,-3.381,-3.3471,-3.3283,-3.3111,-3.278,-3.2503,-3.2503,-3.1625,-3.0758,-3.0394,-3.0018,-2.9754,-2.9754,-2.9577,-2.9602,-3.0018,-2.9905,-2.9792,-2.9792,-2.9792,-2.9792,-2.9792,-2.9792,-2.9792,-2.9792,-2.9428,-2.8925,-2.8411,-2.7846,-2.703,-2.5946,-2.5119,-2.4229,-2.3243,0.0,0.0,0.0,0.0,0.0,0.0,0.0,0.0,0.0,0.0,0.0,0.0,0.0,0.0,0.0,0.0,0.0,0.0,0.0,0.0,0.0,0.0,0.0,-3.0627,-3.2871,-3.4866,-3.5701,-3.7541,-3.9023,-3.9879,-4.0561,-4.1501,-4.2834,-4.3585,-4.4252,-4.4879,-4.5748,-4.6133,-4.593,-4.7017,-4.7476,-4.7242,-4.7915,-4.8286,-4.8301,-4.8091,-4.7837,-4.7581,-4.7581,-4.7467,-4.7264,-4.6636,-4.6309,-4.6264,-4.5633,-4.5349,-4.52,-4.3898,-4.3015,-4.241,-4.1752,-4.1459,-4.1482,-4.1482,-4.1482,-4.1482,-4.1452,-4.1452,-4.1361,-4.0926,-4.0602,-4.0105,-3.8703,-3.7828,-3.7029,-3.5764,-3.4782,-3.4059,-3.3793,-3.3411,-3.3124,-3.3124,-3.3124,-3.3124,-3.3124,-3.219,-3.1436,-3.1411,-3.1411,-3.1411,-3.1386,-3.0959,0.0,-3.0633,-3.0156,-2.9817,-2.9817,-2.9804,-2.9792,-2.9792,-2.9792,-2.9792,-2.9792,-2.9792,-2.9528,-2.8913,-2.8411,-2.762,-2.6562,-2.527,-2.4265,-2.3587,0.0,0.0,0.0,0.0,0.0,0.0,0.0,0.0,0.0,0.0,0.0,0.0,0.0,0.0,0.0,0.0,0.0,0.0,0.0,0.0,0.0,-3.1898,-3.341,-3.341,-3.4442,-3.6031,-3.8147,-3.8882,-3.9697,-4.086,-4.2001,-4.2788,-4.3148,-4.4389,-4.5218,-4.5414,-4.6299,-4.6746,-4.6715,-4.7452,-4.7871,-4.7783,-4.7969,-4.8091,-4.8091,-4.7837,-4.7666,-4.7596,-4.7467,-4.7337,-4.7294,-4.7115,-4.704,-4.7025,-4.683,-4.6471,-4.5963,-4.5095,-4.4646,-4.4407,-4.3748,-4.321,-4.2791,-4.2791,-4.2791,-4.2716,-4.2291,-4.2126,-4.1959,-4.1059,-4.051,-3.9981,-3.8946,-3.8075,-3.7244,-3.642,-3.5351,-3.4396,-3.4125,-3.3573,-3.3124,-3.3124,-3.3124,-3.3124,-3.3124,-3.2872,-3.2478,-3.2064,-3.1989,-3.1851,-3.1449,-3.1273,0.0,-3.1173,-3.0721,-3.0394,-3.0394,-3.003,-2.9792,-2.9792,-2.9792,-2.9792,-2.9792,-2.9792,-2.9528,-2.8913,-2.875,-2.8373,-2.767,-2.6919,-2.6285,0.0,0.0,0.0,0.0,0.0,0.0,0.0,0.0,0.0,0.0,0.0,0.0,0.0,0.0,0.0,0.0,0.0,0.0,0.0,0.0,0.0,0.0,-3.3709,-3.5295,-3.6387,-3.6896,-3.7719,-3.9209,-4.0142,-4.107,-4.2117,-4.315,-4.3932,-4.45,-4.5372,-4.601,-4.6281,-4.6813,-4.7138,-4.7138,-4.7485,-4.7724,-4.7724,-4.7724,-4.7724,-4.7709,-4.7553,-4.7467,-4.7467,-4.7337,-4.7309,-4.7309,-4.7309,-4.7309,-4.7309,-4.7309,-4.7085,0.0,0.0,0.0,0.0,0.0,-4.4302,-4.3708,-4.3708,-4.3529,-4.323,-4.2895,-4.2722,-4.2529,-4.1804,-4.1197,-4.0562,-3.9489,-3.8574,-3.7671,-3.6754,-3.5713,-3.4804,-3.433,-3.382,-3.3357,-3.3174,-3.3124,-3.3124,-3.3124,-3.3124,0.0,-3.2641,-3.2579,-3.2466,-3.2152,-3.1888,-3.1738,-3.1738,-3.1273,-3.0859,-3.0633,-3.0331,-3.0043,-2.9817,-2.9792,0.0,0.0,0.0,-2.9528,-2.8913,-2.8888,0.0,0.0,0.0,0.0,0.0,0.0,0.0,0.0,-2.2883,-2.2681,0.0,0.0,0.0,0.0,0.0,0.0,0.0,0.0,0.0,0.0,0.0,0.0,0.0,0.0,0.0,0.0,-3.5355,-3.6761,-3.9059,-3.9619,-3.9753,-3.9753,-4.1369,-4.2785,-4.3434,-4.4122,-4.5035,-4.619,-4.6354,-4.6696,-4.7279,0.0,0.0,0.0,0.0,-4.7309,-4.7309,-4.7309,-4.7309,-4.7309,-4.7309,-4.7309,-4.7309,-4.7309,-4.7309,-4.7309,-4.7309,-4.7309,-4.7309,-4.7309,-4.7309,-4.7249,-4.6666,-4.6022,-4.5409,-4.5409,-4.499,-4.4407,-4.4347,0.0,0.0,-4.3319,-4.3155,-4.2955,-4.2769,-4.224,-4.1448,-4.0237,-3.9224,-3.8225,-3.6976,-3.6059,-3.5315,-3.454,-3.4117,-3.3771,-3.3269,-3.3162,-3.3124,-3.3124,-3.3124,-3.3124,-3.3124,-3.3124,-3.3124,-3.3124,-3.2641,-3.2303,-3.2303,-3.1825,-3.1311,-3.0846,0.0,0.0,-2.993,-2.988,-2.9854,-2.9792,-2.9792,-2.9566,-2.9013,-2.8988,-2.88,-2.831,-2.82,-2.8002,-2.7791,-2.7451,-2.7231,-2.7102,-2.501,-2.4176,0.0,0.0,0.0,0.0,0.0,0.0,0.0,0.0,0.0,0.0,0.0,0.0,0.0,0.0,0.0,-3.513,-3.7195,-3.8805,-3.9313,-4.0786,-4.1826,-4.1826,-4.2626,-4.3434,-4.4077,-4.5229,-4.5995,-4.6264,-4.6815,-4.7174,-4.7294,-4.7309,-4.7309,-4.7309,-4.7309,-4.7309,-4.7309,-4.7309,-4.7309,-4.7309,0.0,0.0,-4.7309,-4.7309,-4.7309,-4.7309,-4.7309,-4.7309,-4.7309,-4.7309,-4.7309,-4.7294,-4.7174,-4.6711,-4.6127,-4.6127,-4.5693,-4.5035,-4.4496,-4.4227,-4.4032,-4.3469,-4.3155,-4.2955,-4.2769,-4.224,0.0,-4.076,-3.986,-3.8867,-3.7838,-3.6839,-3.5993,-3.539,-3.455,-3.3872,-3.3759,-3.3395,-3.3124,-3.3124,-3.3124,-3.3124,-3.3124,-3.3124,-3.3124,-3.3124,-3.298,-3.2918,-3.2918,-3.2403,-3.2014,-3.1913,-3.1499,-3.1035,-3.0507,-3.0457,-3.0269,-2.9817,-2.9792,-2.9741,-2.9628,-2.9628,-2.9578,-2.9465,-2.9866,-2.9961,-2.9764,-2.9731,-2.9538,-2.9178,-2.6974,-2.5931,0.0,0.0,0.0,0.0,0.0,0.0,0.0,0.0,0.0,0.0,0.0,-3.1345,-3.2317,0.0,-3.5534,-3.7195,-3.8571,-3.9768,-4.0756,-4.1782,-4.2515,-4.2806,-4.3434,-4.4242,-4.5229,-4.5891,-4.6456,-4.68,-4.7115,-4.7309,-4.7309,-4.7309,-4.7309,-4.7309,-4.7623,-4.7803,-4.7803,-4.7803,-4.7803,-4.7803,-4.7459,-4.7309,-4.7309,-4.7309,-4.7309,-4.7309,-4.7309,-4.7309,-4.7309,-4.7309,-4.7309,-4.7309,-4.7309,-4.7115,-4.6815,-4.6815,-4.6396,-4.5753,-4.5439,-4.4885,-4.4257,-4.3888,-4.3358,-4.285,-4.2729,-4.2158,-4.1423,-4.0873,-3.9996,-3.9069,-3.8037,-3.7246,-3.6483,-3.5697,-3.5082,-3.4575,-3.4022,-3.3684,-3.3407,-3.3131,-3.3124,-3.3124,-3.3124,-3.3124,-3.3124,-3.3124,-3.3124,-3.3124,-3.3124,-3.283,-3.2528,-3.224,-3.1964,-3.1587,-3.1047,-3.0758,-3.0507,-3.0218,-2.9942,-2.9792,-2.9792,-3.0055,-3.0206,-3.0206,-3.0733,-3.0876,-3.0714,-3.0729,-3.0626,-3.0331,-2.8936,-2.7976,0.0,0.0,0.0,0.0,0.0,0.0,0.0,0.0,-3.0133,-3.0761,-3.2063,-3.3425,-3.4487,-3.5549,-3.6956,-3.908,-3.9738,-4.0546,-4.2171,-4.262,-4.2985,-4.3643,-4.4182,-4.4975,-4.616,-4.6441,-4.6741,-4.7264,-4.7309,-4.7309,-4.7309,-4.7309,-4.7369,-4.7489,-4.8012,-4.8341,-4.8476,-4.8476,-4.8416,-4.8282,-4.7743,-4.7429,-4.7309,-4.7309,-4.7309,-4.7309,-4.7309,-4.7309,-4.7309,-4.7309,-4.7309,-4.7309,-4.7309,-4.7309,-4.7309,-4.7309,-4.698,-4.6501,-4.6324,-4.5529,-4.4481,-4.4347,-4.3586,-4.2688,-4.2688,-4.2075,-4.1311,-4.083,-3.9996,-3.9069,-3.8037,-3.7466,-3.6853,-3.5898,-3.5583,-3.5257,-3.4412,-3.4048,-3.3771,-3.3319,-3.3156,-3.3124,-3.3124,-3.3124,-3.3124,-3.3124,-3.3124,-3.3124,-3.3124,-3.3124,-3.2893,-3.2428,-3.2378,-3.2152,-3.1599,-3.1072,-3.0771,-3.0771,-3.0344,-3.0105,-3.0105,-3.0532,-3.0771,-3.0771,-3.1286,-3.148,-3.1327,-3.1398,-3.1336,-3.1165,-3.0747,-2.9912,-2.4276,-2.5255,-2.6452,-2.7285,-2.7944,-2.8712,0.0,0.0,-3.1481,-3.2123,-3.3829,-3.522,-3.537,-3.736,-3.908,-3.9328,-4.0891,-4.2141,-4.2366,-4.3359,-4.4332,-4.5005,-4.514,-4.5484,-4.6204,-4.686,-4.7234,-4.7294,-4.7309,-4.7309,-4.7309,-4.7309,-4.7578,-4.8162,-4.8252,-4.8566,-4.9194,-4.9209,-4.891,-4.8282,-4.8207,-4.7878,-4.7309,-4.7309,-4.7309,-4.7309,-4.7309,-4.7309,-4.7309,-4.7309,-4.7309,-4.7309,-4.7309,-4.7309,-4.7309,-4.7309,-4.7249,-4.7115,-4.6488,-4.5828,-4.5095,-4.4496,-4.3586,-4.2688,-4.2688,-4.2075,-4.1311,-4.083,-3.9996,-3.9069,-3.8037,-3.7466,-3.6956,-3.6424,-3.5893,-3.547,-3.5345,-3.4587,-3.3884,-3.3822,-3.342,-3.3124,-3.3124,-3.3124,-3.3124,-3.3124,-3.3124,-3.3124,-3.3124,-3.3124,-3.3056,-3.2993,-3.298,-3.2754,-3.2177,-3.1625,-3.1298,-3.1298,-3.1248,-3.121,-3.121,-3.1273,-3.1298,-3.1298,-3.1838,-3.2085,-3.2085,-3.2374,-3.2401,-3.2227,-3.2236,-3.1445,-2.6033,-2.7036,-2.8098,-2.952,-3.0061,-3.0614,-3.1943,-3.2766,-3.332,-3.3604,-3.4951,-3.6193,-3.6552,-3.8153,-3.9664,0.0,-4.1617,-4.2665,-4.3389,-4.3973,-4.4706,-4.5768,-4.5888,-4.6157,-4.683,-4.7145,-4.7309,-4.7309,-4.7309,-4.7309,-4.7309,-4.7668,-4.7805,-4.7717,-4.882,-4.9478,-4.9642,-4.9747,-4.9688,-4.9419,-4.8656,-4.8132,-4.7863,-4.7474,-4.7309,-4.7309,-4.7309,-4.7309,-4.7309,-4.7309,-4.7309,-4.7309,-4.7309,-4.7309,-4.7309,-4.7309,-4.7309,-4.7264,-4.6995,-4.6456,-4.5783,-4.511,-4.415,-4.3189,-4.2699,-4.1868,-4.1057,-4.0473,-3.9675,-3.8832,-3.7893,-3.7341,-3.6968,-3.6499,-3.6194,-3.5931,-3.5571,-3.5144,-3.4663,-3.4022,-3.3709,-3.3458,-3.3131,-3.3124,-3.3124,-3.3124,-3.3124,-3.3124,-3.3124,-3.3124,-3.3124,-3.3124,-3.3124,-3.298,-3.2742,-3.2202,-3.1863,-3.1863,-3.1574,-3.1386,-3.1386,-3.17,-3.1863,-3.1863,-3.2428,-3.2717,-3.2717,-3.287,-3.281,-3.2562,-3.2617,-3.2257,-2.766,-2.8757,-2.9759,-3.1152,-3.178,-3.2333,-3.3499,-3.4159,-3.4563,-3.4758,-3.5818,-3.6881,-3.733,-3.8811,-4.0277,-4.122,-4.2087,-4.3015,-4.4152,-4.4466,-4.502,-4.6145,-4.6444,-4.6785,-4.7249,-4.7309,-4.7309,-4.7309,-4.7309,-4.7309,-4.7309,-4.7938,-4.8148,-4.7867,-4.9357,-5.024,-5.0238,-5.042,-5.0375,-5.0181,-4.909,-4.8461,-4.8267,-4.7608,-4.7309,-4.7309,-4.7309,-4.7309,-4.7309,-4.7309,-4.7309,-4.7309,-4.7309,-4.7309,-4.7309,-4.7309,-4.7309,-4.7309,-4.7309,-4.6875,-4.6217,-4.5529,-4.4552,-4.3543,-4.2664,-4.1744,-4.0873,-4.0213,-3.9424,-3.8607,-3.7736,-3.7261,-3.6875,-3.6499,-3.6405,-3.6304,-3.5855,-3.5608,-3.5257,-3.4512,-3.4223,-3.3947,-3.3395,-3.3307,-3.3257,-3.3106,-3.3124,-3.3124,-3.3124,-3.3124,-3.3124,-3.3124,-3.3124,-3.3124,-3.3124,-3.2692,-3.2453,-3.2453,-3.2077,-3.1851,-3.1851,-3.224,-3.2453,-3.2453,-3.2867,-3.3124,-3.3124,-3.3124,-3.3027,-3.2903,-3.3073,-3.2971,-2.9172,-3.0462,-3.1436,-3.1496,-3.2497,-3.3619,-3.4324,-3.4503,-3.4666,-3.534,-3.6492,-3.7389,-3.7404,-3.9559,-4.1324,-4.1407,-4.2462,-4.3499,-4.4212,-4.487,-4.5529,-4.6204,-4.689,-4.7279,-4.7309,-4.7309,-4.7309,-4.7309,-4.7309,-4.7309,-4.7309,-4.7938,-4.8581,-4.9194,-4.9883,-5.0495,-5.1122,-5.1184,-5.0823,-5.0181,-4.9553,-4.894,-4.8267,-4.7608,-4.7309,-4.7309,-4.7309,-4.7309,-4.7309,-4.7309,-4.7309,-4.7309,-4.7309,-4.7309,-4.7309,-4.7309,-4.7309,-4.7309,-4.7309,-4.6875,-4.6217,-4.5529,-4.4552,-4.3543,-4.2664,-4.1744,-4.0873,-4.0213,-3.9349,-3.8421,-3.769,-3.7108,-3.6675,-3.6452,-3.6405,-3.6405,-3.6392,-3.5918,-3.5495,-3.5458,-3.5019,-3.4525,-3.3972,-3.3872,-3.3696,-3.3156,-3.3124,-3.3124,-3.3124,-3.3124,-3.3124,-3.3124,-3.3124,-3.3124,-3.3124,-3.3056,-3.3056,-3.3056,-3.3074,-3.3074,-3.3074,-3.3043,-3.3056,-3.3056,-3.3111,-3.3124,-3.3124,-3.3124,-3.3214,-3.3474,-3.3806,-3.3839,-3.0627,-3.1496,-3.2392,-3.326,-3.3814,-3.4354,-3.4996,-3.516,-3.522,-3.5459,-3.6193,-3.6926,-3.733,-3.8871,-4.0367,-4.1272,-4.2117,-4.3225,-4.4751,-4.5155,-4.5708,-4.6845,-4.7174,-4.7309,-4.7309,-4.7309,0.0,-4.7309,-4.7309,-4.7489,-4.7938,-4.8581,-4.9209,-4.9687,-5.0465,-5.0943,-5.1214,-5.1214,-5.1109,-5.0823,-4.9793,-4.8969,-4.8275,-4.762,-4.7309,-4.7309,-4.7309,-4.7309,-4.7309,-4.7309,-4.7309,-4.7309,-4.7309,-4.7309,-4.7309,-4.7309,-4.7309,-4.7309,-4.7309,-4.716,-4.6785,-4.5663,-4.4879,-4.4076,-4.2602,-4.1521,-4.0645,-3.9777,-3.898,-3.8167,-3.7446,-3.6968,-3.6675,-3.6452,-3.6405,-3.6405,-3.6405,-3.6267,-3.5981,-3.5571,-3.5345,-3.5044,-3.4537,-3.4135,-3.3709,-3.3156,-3.3124,-3.3124,-3.3124,-3.3124,-3.3124,-3.3124,-3.3124,-3.3124,-3.3124,-3.3124,-3.3124,-3.3124,-3.3124,-3.3124,-3.3124,-3.3124,-3.3124,-3.3124,-3.3124,-3.3124,-3.3124,-3.3445,-3.3677,-3.379,-3.4304,-3.4403,-3.1675,-3.2512,-3.3425,-3.4294,-3.4698,-3.4966,-3.54,-3.5504,-3.5504,-3.5504,-3.6028,-3.6671,-3.73,-3.8512,-3.9843,-4.1175,-4.1976,-4.3084,-4.502,-4.5289,-4.5798,-4.7145,-4.7309,-4.7309,-4.7309,-4.7309,0.0,-4.7309,-4.7309,-4.7593,-4.8252,-4.8955,-4.9538,-4.9969,-5.0794,-5.1214,-5.1214,-5.1214,-5.1094,-5.0808,-4.9778,-4.8969,-4.8275,-4.762,-4.7309,-4.7309,-4.7309,-4.7309,-4.7309,-4.7309,-4.7309,-4.7309,-4.7309,-4.7309,-4.7309,-4.7309,-4.7309,-4.7309,-4.7309,-4.7309,-4.713,-4.5938,-4.5137,-4.4373,-4.2729,-4.1539,-4.0487,-3.9557,-3.8697,-3.7926,-3.7294,-3.6875,-3.6534,-3.6452,-3.6405,-3.6405,-3.6405,-3.6405,-3.6304,-3.5906,-3.583,-3.5667,-3.5069,-3.4562,-3.401,-3.3458,-3.337,-3.3307,-3.3106,-3.3124,-3.3124,-3.3124,-3.3124,-3.3124,-3.3124,-3.3124,-3.3124,-3.3124,-3.3124,-3.3124,-3.3124,-3.3124,-3.3124,-3.3124,-3.3124,-3.3169,-3.337,-3.3721,-3.411,-3.4455,-3.4814,-3.4873,-3.2407,-3.3529,-3.4518,-3.4548,-3.5026,-3.5504,-3.5504,-3.5504,-3.5504,-3.5504,-3.5998,-3.6626,-3.724,-3.8437,-3.9753,-4.1115,-4.1916,-4.3054,-4.5005,-4.5289,-4.5798,0.0,0.0,0.0,-4.7309,0.0,0.0,-4.7354,0.0,-4.7638,-4.8297,-4.9,-4.9613,-5.0226,-5.0885,-5.1214,-5.1214,-5.1214,-5.0838,-5.0181,-4.9583,-4.897,-4.8267,-4.7608,-4.7309,-4.7309,-4.7309,-4.7309,-4.7309,-4.7309,-4.7309,-4.7309,-4.7309,-4.7309,-4.7309,-4.7309,-4.7309,-4.7309,-4.7309,-4.7309,-4.7161,-4.6304,-4.5422,-4.4461,-4.3097,-4.1753,-4.0487,-3.9557,-3.8562,-3.7671,-3.7248,-3.6734,-3.6405,-3.6405,-3.6405,-3.6405,-3.6405,-3.6405,-3.6405,-3.6405,-3.6405,-3.6194,-3.5596,-3.5069,-3.4575,-3.4022,-3.3922,-3.3709,-3.3156,-3.3124,-3.3124,-3.3124,-3.3124,-3.3124,-3.3124,-3.3124,-3.3124,-3.3124,-3.3124,-3.3124,-3.3124,-3.3124,-3.3124,-3.3124,-3.3124,-3.3345,-3.3897,-3.3922,-3.45,-3.5508,-3.5313,-3.5223,-3.3799,-3.4249,-3.4638,-3.5115,-3.537,-3.5504,-3.5504,-3.5504,-3.5504,-3.5504,-3.5639,-3.5953,-3.6611,-3.7389,0.0,-4.0352,-4.1205,0.0,-4.4945,-4.5289,0.0,-4.7145,0.0,-4.7309,-4.7309,-4.7309,0.0,0.0,-4.8042,-4.8327,-4.903,-4.9628,-5.0287,-5.0898,-5.1124,-5.1214,-5.1214,-5.1214,-5.0838,-5.0181,-4.9583,-4.897,-4.8267,-4.7608,-4.7309,-4.7309,-4.7309,-4.7309,-4.7309,-4.7309,-4.7309,-4.7309,-4.7309,-4.7309,-4.7309,-4.7309,-4.7309,-4.7309,-4.7309,-4.7309,-4.7161,-4.6304,-4.5422,-4.4461,-4.3097,-4.1753,-4.0487,-3.9557,-3.8562,-3.7671,-3.7248,-3.6734,-3.6405,-3.6405,-3.6405,-3.6405,-3.6405,-3.6405,-3.6405,-3.6405,-3.6405,-3.6194,-3.5596,-3.5382,-3.5107,-3.46,-3.4161,-3.3709,-3.3156,-3.3124,-3.3124,-3.3124,-3.3124,-3.3124,-3.3124,-3.3124,-3.3124,-3.3124,-3.3124,-3.3124,-3.3124,-3.3124,-3.3124,-3.3124,-3.3124,-3.3345,-3.3897,-3.4311,-3.4818,-3.5508,-3.57,-3.5784,-3.4414,-3.4728,-3.5026,-3.5415,-3.5504,-3.5504,-3.5504,-3.5265,-3.5055,-3.5055,-3.5055,-3.5265,-3.5938,-3.6791,-3.7973,0.0,0.0,0.0,-4.4152,-4.493,-4.5693,0.0,-4.713,0.0,-4.7309,-4.7563,-4.7893,0.0,-4.8282,-4.8701,-4.9643,-5.0001,-5.0495,-5.1199,-5.1214,-5.1214,-5.1214,-5.1214,-5.0838,-5.0181,-4.9583,-4.897,-4.8267,-4.7608,-4.7309,-4.7309,0.0,-4.7309,-4.7309,-4.7309,-4.7309,-4.7309,-4.7309,-4.7309,-4.7309,-4.7309,-4.7309,-4.7309,-4.7309,-4.7207,-4.7017,-4.6443,-4.5665,-4.4701,-4.3228,-4.1863,-4.056,-3.9448,-3.8427,-3.7559,-3.7201,-3.6734,-3.6405,-3.6405,-3.6405,-3.6405,-3.6405,-3.6405,-3.6405,-3.6405,-3.6405,-3.6304,-3.5956,-3.5893,-3.5717,-3.5119,-3.4768,-3.4336,-3.3533,-3.3275,-3.3124,-3.3124,-3.3124,-3.3124,-3.3124,-3.3124,-3.3124,-3.3124,-3.3124,-3.3124,-3.3124,-3.3124,-3.3124,-3.3124,-3.3319,-3.3709,-3.4261,-3.4768,-3.532,-3.5918,-3.6091,-3.6098,-3.4758,-3.5115,-3.5534,-3.5609,-3.5564,-3.5489,-3.5385,-3.4906,-3.4474,-3.4399,-3.4384,-3.4562,-3.5235,-3.6342,-3.7614,-3.905,0.0,-4.1743,-4.3095,-4.4466,-4.5544,-4.6204,-4.6905,-4.7309,-4.7309,-4.7908,-4.8327,-4.8416,-4.8491,-4.9045,-5.0136,-5.027,-5.0584,-5.1199,-5.1214,-5.1214,-5.1214,-5.1124,-5.0765,-5.0046,-4.9449,-4.8835,-4.8132,-4.7563,-4.7309,-4.7309,-4.7309,0.0,-4.7309,-4.7309,-4.7309,-4.7309,-4.7309,-4.7309,-4.7309,-4.7309,-4.7309,-4.7309,-4.7309,-4.7121,-4.6887,-4.6683,-4.5977,-4.4953,-4.3394,-4.1959,-4.0635,-3.9262,-3.82,-3.7413,-3.7108,-3.6734,-3.6405,-3.6405,-3.6405,-3.6405,-3.6405,-3.6405,-3.6405,-3.6405,-3.6405,-3.6405,-3.6405,-3.6405,-3.6194,-3.5683,-3.5545,-3.5157,-3.4248,-3.3571,-3.3156,-3.3124,-3.3124,-3.3124,-3.3124,-3.3124,-3.3124,-3.3124,-3.3124,-3.3124,-3.3124,-3.3124,-3.3106,-3.3181,-3.3658,-3.4211,-3.4826,-3.527,-3.583,-3.6405,-3.6405,-3.6275,-3.5983,-3.5833,-3.5639,-3.6178,-3.5908,-3.5355,-3.4786,-3.4593,0.0,0.0,-3.3664,-3.3873,-3.4532,-3.531,-3.6432,-3.8272,-3.9694,-4.122,-4.3035,-4.4466,-4.5544,0.0,-4.6905,-4.7309,-4.7309,-4.7908,0.0,0.0,-4.9598,-4.9956,-5.0181,-5.0704,-5.1094,-5.1214,-5.1214,-5.1214,-5.1214,-5.0629,-5.0077,-4.9434,-4.8775,-4.8117,-4.7474,-4.7354,-4.7309,-4.7309,-4.7309,0.0,-4.7309,-4.7309,-4.7309,-4.7309,-4.7309,-4.7309,-4.7309,-4.7309,-4.7309,-4.7309,-4.7309,-4.7121,-4.6887,-4.6683,-4.5874,-4.4733,-4.3306,-4.1959,-4.0591,-3.9065,-3.8103,-3.74,-3.6909,-3.6581,-3.6405,-3.6405,-3.6405,-3.6405,-3.6405,-3.6405,-3.6405,-3.6405,-3.6405,-3.6405,-3.6405,-3.6405,-3.6367,-3.6279,-3.583,-3.5433,-3.5245,-3.4374,-3.3583,-3.3174,-3.3124,-3.3124,-3.3124,-3.3124,-3.3124,-3.3124,-3.3124,-3.3124,-3.3124,-3.3124,-3.3294,-3.3746,-3.3847,-3.4399,-3.5357,-3.5445,-3.583,-3.6405,-3.6405,-3.6358,-3.6312,-3.6013,-3.5669,-3.6327,-3.5998,-3.5325,-3.4668,0.0,0.0,0.0,-3.2976,-3.308,-3.3395,-3.4577,-3.5923,-3.7195,-3.8796,-4.0457,-4.2087,-4.3449,-4.4646,-4.5663,-4.6381,-4.6935,-4.7279,-4.8207,-4.897,-4.9284,-5.0182,-5.0704,-5.0704,-5.105,-5.1214,-5.1214,-5.1214,-5.1003,-5.0659,-5.0345,-4.9733,-4.8805,-4.8431,-4.7938,-4.7309,-4.7309,-4.7309,-4.7309,-4.7309,0.0,-4.7309,-4.7309,-4.7309,-4.7309,-4.7309,-4.7309,-4.7309,-4.7309,-4.7309,-4.7266,-4.7164,-4.6931,-4.6683,-4.6373,-4.5693,-4.4719,-4.3234,-4.1892,-4.0526,-3.9064,-3.8004,-3.7201,-3.6815,-3.6534,-3.6405,-3.6405,-3.6405,-3.6405,-3.6405,-3.6405,-3.6405,-3.6405,-3.6405,-3.6405,-3.6405,-3.6405,-3.6405,-3.6405,-3.6132,-3.5868,-3.5533,-3.4826,-3.411,-3.3558,-3.3257,-3.3124,-3.3124,-3.3124,-3.3124,-3.3124,-3.3124,-3.3206,-3.3495,-3.3508,-3.3771,-3.4324,-3.4613,-3.4969,-3.5495,-3.583,-3.6107,-3.6405,-3.6405,-3.6405,-3.6312,-3.6013,-3.5669,-3.6327,-3.5998,-3.5295,-3.4488,-3.3858,0.0,-3.2437,-3.2273,-3.2318,-3.2452,-3.3918,-3.534,0.0,-3.7913,-3.9664,-4.0995,-4.2432,-4.3823,-4.514,-4.5903,0.0,-4.7234,-4.8491,0.0,-4.9314,-5.0346,-5.1065,-5.1214,-5.1214,-5.1154,-5.1005,-5.1005,-5.069,-4.9986,-4.9837,-4.9299,-4.8282,-4.8132,-4.7803,-4.7309,-4.7309,-4.7309,-4.7309,-4.7309,0.0,0.0,-4.7309,-4.7309,-4.7309,-4.7309,-4.7309,-4.7309,-4.7309,-4.7251,-4.7164,-4.6975,-4.6712,-4.6373,-4.588,-4.5413,-4.4734,-4.3162,-4.1778,-4.0435,-3.9008,-3.7826,-3.6968,-3.6722,-3.6546,-3.6405,-3.6405,-3.6405,-3.6405,-3.6405,-3.6405,-3.6405,-3.6405,-3.6405,-3.6405,-3.6405,-3.6405,-3.6405,-3.6405,-3.6405,-3.6207,-3.5768,-3.5082,-3.4562,-3.4123,-3.3483,-3.3124,-3.3124,-3.3124,-3.3124,-3.3124,-3.3124,-3.3319,-3.3872,-3.3897,-3.4211,-3.4843,-3.5282,-3.5558,-3.5671,-3.6157,-3.6405,-3.6405,-3.6405,-3.6405,-3.6312,-3.6013,-3.5669,-3.6327,-3.5998,-3.516,-3.3873,0.0,-3.314,-3.1854,-3.1585,-3.178,-3.2378,-3.3155,-3.4098,-3.5385,0.0,-3.896,-4.0292,-4.2162,-4.3868,-4.514,0.0,0.0,-4.7234,-4.8491,-4.9314,-4.9314,-4.9927,-5.0539,-5.1184,-5.1214,-5.0898,-5.03,-5.0285,-5.0017,-4.9404,-4.876,-4.8401,-4.8282,-4.7683,-4.7369,-4.7309,-4.7309,-4.7309,-4.7309,-4.7309,0.0,0.0,-4.7309,-4.7309,-4.7309,-4.7309,-4.7309,-4.7309,-4.7309,-4.7164,-4.6931,-4.6916,-4.6491,-4.588,-4.5367,-4.5,-4.4563,-4.3129,-4.1637,-4.0167,-3.876,-3.7565,-3.6675,-3.6499,-3.6405,-3.6405,-3.6405,-3.6405,-3.6405,-3.6405,-3.6405,-3.6405,-3.6405,-3.6405,-3.6405,-3.6405,-3.6405,-3.6405,-3.6405,-3.6405,-3.6392,-3.6329,-3.5366,-3.4655,-3.465,-3.3709,-3.3124,-3.3124,-3.3124,-3.3124,-3.3124,-3.3124,-3.3319,-3.3872,-3.3897,-3.4399,-3.5408,-3.547,-3.5793,-3.6329,-3.638,-3.6405,-3.6405,-3.6405,-3.6405,-3.6193,-3.6013,-3.5669,-3.6327,-3.5998,-3.516,-3.3799,-3.3499,-3.3125,-3.178,-3.1511,-3.1585,-3.1854,-3.2781,-3.3799,-3.4741,-3.6522,-3.8407,-4.0157,-4.1429,-4.2955,-4.505,-4.5544,0.0,0.0,0.0,-4.888,-4.9284,-4.9508,0.0,-5.0032,-5.0047,-4.9927,-4.9673,-4.9658,-4.9344,-4.8686,-4.8416,-4.8087,-4.7698,-4.7429,-4.7309,-4.7309,-4.7309,-4.7309,-4.7309,-4.7309,0.0,0.0,-4.7309,-4.7309,-4.7309,-4.7309,-4.7309,-4.7309,-4.7309,-4.7121,-4.6873,-4.6565,-4.6135,-4.5504,-4.4694,-4.4181,-4.3668,-4.2657,-4.121,-3.9712,-3.8663,-3.7562,-3.6675,-3.6452,-3.6405,-3.6405,-3.6405,-3.6405,-3.6405,-3.6405,-3.6405,-3.6405,-3.6405,-3.6405,-3.6405,-3.6405,-3.6405,-3.6405,-3.6405,-3.6405,-3.6405,-3.6405,-3.5403,-3.468,-3.468,-3.3734,-3.3124,-3.3124,-3.3124,-3.3124,-3.3124,-3.3382,-3.3822,-3.4374,-3.4668,-3.5253,-3.6019,-3.6031,-3.6144,-3.6405,-3.6405,-3.6405,-3.6405,-3.6405,-3.6405,-3.5672,-3.5699,-3.5609,-3.6088,-3.5699,-3.4891,-3.3754,-3.335,-3.2886,-3.1735,-3.1511,-3.1511,-3.1511,-3.2617,-3.3649,0.0,-3.5998,-3.7973,-3.9574,-4.0711,-4.2207,-4.4451,0.0,-4.5753,0.0,-4.7788,-4.8566,-4.9269,-4.9134,0.0,-4.9015,-4.8835,-4.882,-4.9015,-4.9015,-4.8656,-4.7997,-4.7997,-4.7758,-4.7309,-4.7309,-4.7309,-4.7309,-4.7309,-4.7309,-4.7309,-4.7309,0.0,0.0,-4.7309,-4.7309,-4.7309,-4.7309,-4.7309,-4.7309,-4.7207,-4.7019,-4.6756,-4.6269,-4.573,-4.5138,-4.4181,-4.341,-4.2736,-4.1967,-4.067,-3.9319,-3.8605,-3.7549,-3.6581,-3.6452,-3.6405,-3.6405,-3.6405,-3.6405,-3.6405,-3.6405,-3.6405,-3.6405,-3.6405,-3.6405,-3.6405,-3.6405,-3.6405,-3.6405,-3.6405,-3.6405,-3.6405,-3.6405,-3.5403,-3.468,-3.468,-3.3734,-3.3124,-3.3124,-3.3124,-3.3124,-3.3124,-3.3596,-3.4148,-3.47,-3.5207,-3.5805,-3.6405,-3.6405,-3.6405,-3.6405,-3.6405,-3.6405,-3.6405,-3.6405,-3.6405,-3.4518,-3.4996,-3.5504,-3.5519,-3.4996,-3.4339,-3.3649,-3.2991,-3.2303,-3.1645,-3.1511,-3.1511,-3.1511,-3.2617,-3.3499,-3.3499,-3.5699,-3.7644,-3.8317,-4.0127,-4.1878,0.0,0.0,-4.5574,-4.6219,-4.7519,-4.8566,-4.9269,0.0,0.0,-4.8297,-4.7683,-4.7623,-4.8282,-4.8297,-4.7982,-4.7324,-4.7309,-4.7309,-4.7309,-4.7309,-4.7309,-4.7309,-4.7309,-4.7309,-4.7309,0.0,0.0,0.0,-4.7309,-4.7309,-4.7309,-4.7309,-4.7309,-4.7266,-4.7019,-4.6756,-4.655,-4.606,-4.5427,-4.469,-4.3851,-4.2929,-4.198,-4.1185,-4.0117,-3.9101,-3.8556,-3.7417,-3.6405,-3.6405,-3.6405,-3.6405,-3.6405,-3.6405,-3.6405,-3.6405,-3.6405,-3.6405,-3.6405,-3.6405,-3.6405,-3.6405,-3.6405,-3.6405,-3.6405,-3.6405,-3.6405,-3.6405,-3.5403,-3.468,-3.468,-3.3734,-3.3124,-3.3124,-3.3124,-3.3124,-3.3124,-3.3596,-3.4148,-3.47,-3.5207,-3.5805,-3.6405,-3.6405,-3.6405,-3.6405,-3.6405,-3.6405,-3.6405,-3.6405,-3.6405,-3.3679,-3.3963,-3.4128,-3.4128,-3.3963,-3.3634,-3.2976,-3.2662,-3.2303,-3.1645,-3.1511,-3.1645,-3.2093,-3.2901,-3.3649,-3.4098,-3.5983,0.0,0.0,0.0,0.0,-4.4407,-4.5858,-4.6756,0.0,0.0,-4.7698,0.0,0.0,0.0,-4.7623,-4.7414,-4.7399,-4.7608,-4.7623,-4.7519,-4.7309,-4.7309,-4.7309,-4.7309,-4.7309,-4.7309,-4.7309,-4.7309,-4.7309,0.0,0.0,0.0,0.0,-4.7309,-4.7309,-4.7309,-4.7309,-4.7309,-4.7266,-4.7019,-4.6668,-4.6225,-4.5595,-4.4741,-4.3851,-4.3101,-4.2239,-4.1448,-4.0808,-3.9697,-3.8439,-3.7339,-3.6729,-3.6405,-3.6405,-3.6405,-3.6405,-3.6405,-3.6405,-3.6405,-3.6405,-3.6405,-3.6405,-3.6405,-3.6405,-3.6405,-3.6405,-3.6405,-3.6405,-3.6405,-3.6405,-3.6405,-3.6405,-3.573,-3.5094,-3.4718,-3.4073,-3.3483,-3.3106,-3.3124,-3.3244,-3.3608,-3.4161,-3.4713,-3.5219,-3.5818,-3.6182,-3.6405,-3.6405,-3.6405,-3.6405,-3.6405,-3.6405,-3.6405,-3.6405,-3.6405,-3.2871,-3.3305,-3.3499,-3.3499,-3.3305,-3.3021,-3.2617,-3.2288,-3.1989,-3.1585,-3.1511,-3.1705,-3.2392,-3.3051,-3.3799,-3.4726,-3.6297,0.0,0.0,0.0,0.0,-4.499,0.0,0.0,0.0,-4.7309,0.0,0.0,0.0,0.0,-4.7309,-4.7309,-4.7309,-4.7309,-4.7309,-4.7309,-4.7309,-4.7309,-4.7309,-4.7309,-4.7309,-4.7309,-4.7309,-4.7309,-4.7309,0.0,0.0,0.0,0.0,-4.7309,-4.7309,-4.7309,-4.7309,-4.7251,-4.7121,-4.6887,-4.6491,-4.6001,-4.523,-4.4369,-4.3457,-4.2631,-4.1647,-4.0667,-3.9828,-3.8967,-3.7985,-3.6767,-3.6405,-3.6405,-3.6405,-3.6405,-3.6405,-3.6405,-3.6405,-3.6405,-3.6405,-3.6405,-3.6405,-3.6405,-3.6405,-3.6405,-3.6405,-3.6405,-3.6405,-3.6405,-3.6405,-3.6405,-3.6405,-3.5881,-3.537,-3.5019,-3.4537,-3.4073,-3.3721,-3.3508,-3.3533,-3.3872,-3.4568,-3.5144,-3.5483,-3.6069,-3.6405,-3.6405,-3.6405,-3.6405,-3.6405,-3.6405,-3.6405,-3.6405,-3.6405,-3.6405,0.0,-3.2856,-3.3365,-3.3365,-3.2901,-3.2437,-3.2437,-3.1944,0.0,-3.1511,-3.154,-3.178,-3.2437,-3.3125,-3.4008,-3.5355,-3.6641,0.0,0.0,-4.0741,0.0,0.0,-4.5948,0.0,-4.7249,-4.7309,0.0,0.0,0.0,0.0,-4.7309,-4.7309,-4.7309,-4.7309,-4.7309,-4.7309,-4.7309,-4.7309,-4.7309,-4.7309,-4.7309,-4.7309,-4.7309,-4.7309,-4.7309,0.0,0.0,0.0,0.0,-4.7309,-4.7309,-4.7309,-4.7266,-4.7121,-4.6887,-4.6639,-4.6239,-4.5745,-4.4968,-4.4195,-4.3362,-4.2311,-4.1121,-3.9816,-3.8441,-3.8002,-3.7776,-3.6719,-3.6405,-3.6405,-3.6405,-3.6405,-3.6405,-3.6405,-3.6405,-3.6405,-3.6405,-3.6405,-3.6405,-3.6405,-3.6405,-3.6405,-3.6405,-3.6405,-3.6405,-3.6405,-3.6405,-3.6405,-3.6405,-3.5918,-3.5545,-3.5495,-3.5044,-3.4718,-3.468,-3.4248,-3.3972,-3.401,-3.4931,-3.552,-3.5558,-3.6094,-3.6405,-3.6405,-3.6405,-3.6405,-3.6405,-3.6405,-3.6405,-3.6405,-3.6405,-3.6405,-3.0896,0.0,-3.1974,-3.1974,-3.1854,-3.1735,0.0,-3.1615,-3.1511,-3.1511,0.0,-3.2452,-3.314,-3.3799,-3.4681,-3.6043,0.0,0.0,-3.9978,0.0,0.0,-4.5229,-4.6337,-4.713,-4.7294,0.0,0.0,0.0,0.0,-4.7309,-4.7309,-4.7309,-4.7309,-4.7309,-4.7309,-4.7309,-4.7309,-4.7309,-4.7309,-4.7309,-4.7309,-4.7309,-4.7309,-4.7309,-4.7309,0.0,0.0,0.0,-4.7309,-4.7309,-4.7309,-4.7266,-4.7062,-4.6975,-4.6829,-4.6284,-4.573,-4.517,-4.4228,-4.3389,-4.2533,-4.1298,-4.0529,-3.9816,-3.8441,-3.8002,-3.7776,-3.6719,-3.6405,-3.6405,-3.6405,-3.6405,-3.6405,-3.6405,-3.6405,-3.6405,-3.6405,-3.6405,-3.6405,-3.6405,-3.6405,-3.6405,-3.6405,-3.6405,-3.6405,-3.6405,-3.6405,-3.6405,-3.6405,-3.6304,-3.6006,-3.5545,-3.5382,-3.5144,-3.4705,-3.4555,-3.4713,-3.5094,-3.5357,-3.5683,-3.6157,-3.6329,-3.6405,-3.6405,-3.6405,-3.6405,-3.6405,-3.6405,-3.6405,-3.6405,-3.6405,-3.6405,-3.0417,-3.0972,-3.1511,-3.1511,-3.1511,-3.1585,-3.1884,0.0,0.0,0.0,0.0,-3.3155,-3.3829,-3.4502,-3.5385,0.0,-3.8003,0.0,0.0,0.0,-4.5409,-4.5723,-4.6681,-4.7309,0.0,0.0,0.0,0.0,0.0,-4.7309,-4.7309,-4.7309,-4.7309,-4.7309,-4.7309,-4.7309,-4.7309,-4.7309,-4.7309,-4.7309,-4.7309,-4.7309,-4.7309,-4.7309,-4.7309,0.0,0.0,0.0,-4.7309,-4.7309,-4.7207,-4.7121,-4.6975,-4.6712,-4.6358,-4.5925,-4.5216,-4.4509,-4.3695,-4.2701,-4.1597,-4.0643,-4.0134,-3.9676,-3.8391,-3.8002,-3.7776,-3.6719,-3.6405,-3.6405,-3.6405,-3.6405,-3.6405,-3.6405,-3.6405,-3.6405,-3.6405,-3.6405,-3.6405,-3.6405,-3.6405,-3.6405,-3.6405,-3.6405,-3.6405,-3.6405,-3.6405,-3.6405,-3.6405,-3.6405,-3.6292,-3.5956,-3.5918,-3.5805,-3.5491,-3.5479,-3.5491,-3.5495,-3.578,-3.6056,-3.6405,-3.6405,-3.6405,-3.6405,-3.6405,-3.6405,-3.6405,-3.6405,-3.6405,-3.6405,-3.6405,-3.6405,-3.0223,-3.0913,-3.1525,-3.163,-3.1645,-3.1824,-3.2512,0.0,0.0,0.0,0.0,0.0,0.0,-3.519,0.0,0.0,0.0,0.0,-4.3095,-4.4526,-4.5544,-4.6204,-4.6905,0.0,0.0,0.0,0.0,0.0,0.0,-4.7309,-4.7309,-4.7309,-4.7309,-4.7309,-4.7309,-4.7309,-4.7309,-4.7309,-4.7309,-4.7309,-4.7309,-4.7309,-4.7309,-4.7309,-4.7309,-4.7309,0.0,0.0,-4.7309,-4.7251,-4.7121,-4.6873,-4.68,-4.6358,-4.579,-4.5413,-4.4694,-4.379,-4.3122,-4.1954,-4.0681,-4.0224,-3.9929,-3.9484,-3.8354,-3.8002,-3.7776,-3.6719,-3.6405,-3.6405,-3.6405,-3.6405,-3.6405,-3.6405,-3.6405,-3.6405,-3.6405,-3.6405,-3.6405,-3.6405,-3.6405,-3.6405,-3.6405,-3.6405,-3.6405,-3.6405,-3.6405,-3.6405,-3.6405,-3.6405,-3.6405,-3.6405,-3.6405,-3.6405,-3.6405,-3.6405,-3.6157,-3.5658,-3.6107,-3.6405,-3.6405,-3.6405,-3.6405,-3.6405,-3.6405,-3.6405,-3.6405,-3.6405,-3.6405,-3.6405,-3.6405,-3.6405,-2.9726,-3.0612,-3.1645,-3.2183,-3.2333,-3.2512,-3.3185,0.0,0.0,0.0,0.0,0.0,0.0,-3.5893,-3.6941,0.0,0.0,-4.2447,0.0,0.0,-4.5544,-4.6204,0.0,0.0,0.0,0.0,0.0,0.0,0.0,-4.7309,-4.7309,-4.7309,-4.7309,-4.7309,-4.7309,-4.7309,-4.7309,-4.7309,-4.7309,-4.7309,-4.7309,-4.7309,-4.7309,-4.7309,-4.7309,-4.7309,0.0,-4.7309,-4.7266,-4.7062,-4.6931,-4.6829,-4.6284,-4.5821,-4.5458,-4.4555,-4.3837,-4.317,-4.198,-4.0997,-4.0224,-4.0134,-3.9929,-3.9484,-3.8354,-3.8002,-3.7776,-3.6719,-3.6405,-3.6405,-3.6405,-3.6405,-3.6405,-3.6405,-3.6405,-3.6405,-3.6405,-3.6405,-3.6405,-3.6405,-3.6405,-3.6405,-3.6405,-3.6405,-3.6405,-3.6405,-3.6405,-3.6405,-3.6405,-3.6405,-3.6405,-3.6405,-3.6405,-3.6405,-3.6405,-3.6405,-3.6367,-3.6292,-3.6367,-3.6405,-3.6405,-3.6405,-3.6405,-3.6405,-3.6405,-3.6405,-3.6405,-3.6405,-3.6405,-3.6405,-3.6405,-3.6405,-2.9606,-3.0481,-3.1618,-3.2631,-3.2676,-3.2781,-3.3784,0.0,0.0,0.0,0.0,0.0,0.0,0.0,-3.8167,-4.0157,0.0,-4.3344,-4.4661,-4.5424,-4.6097,0.0,0.0,0.0,0.0,0.0,0.0,0.0,0.0,0.0,-4.7309,-4.7309,-4.7309,-4.7309,-4.7309,-4.7309,-4.7309,-4.7309,-4.7309,-4.7309,-4.7309,-4.7309,-4.7309,-4.7309,-4.7309,-4.7309,0.0,-4.7309,-4.7266,-4.7019,-4.6741,-4.6476,-4.5911,-4.5261,-4.4555,-4.3218,-4.2506,-4.2029,-4.0984,-4.044,-4.007,-3.9929,-3.9586,-3.9094,-3.8266,-3.7801,-3.74,-3.6631,-3.6405,-3.6405,-3.6405,-3.6405,-3.6405,-3.6405,-3.6405,-3.6405,-3.6405,-3.6405,-3.6405,-3.6405,-3.6405,-3.6405,-3.6405,-3.6405,-3.6405,-3.6405,-3.6405,-3.6405,-3.6405,-3.6405,-3.6405,-3.6405,-3.6405,-3.6405,-3.6405,-3.6405,-3.6405,-3.6405,-3.6405,-3.6405,-3.6405,-3.6405,-3.6405,-3.6405,-3.6405,-3.6405,-3.6405,-3.6405,-3.6405,-3.6405,-3.6405,-3.6405,-2.9525,-3.0473,-3.1738,-3.2879,0.0,-3.3019,-3.4496,0.0,0.0,0.0,0.0,0.0,0.0,-3.8402,0.0,-4.1377,-4.2701,-4.3932,-4.5125,-4.5888,-4.6576,0.0,0.0,0.0,0.0,0.0,0.0,0.0,0.0,0.0,-4.7309,-4.7309,-4.7309,-4.7309,-4.7309,-4.7309,-4.7309,-4.7309,-4.7309,-4.7309,-4.7309,-4.7309,-4.7309,-4.7309,-4.7309,-4.7309,-4.7309,-4.7251,-4.7207,-4.6931,-4.6521,-4.609,-4.5549,-4.4616,-4.341,-4.2079,-4.1348,-4.0959,-4.0326,-4.0083,-3.9955,-3.9637,-3.922,-3.8743,-3.8027,-3.7525,-3.7073,-3.6568,-3.6405,-3.6405,-3.6405,-3.6405,-3.6405,-3.6405,-3.6405,-3.6405,-3.6405,-3.6405,-3.6405,-3.6405,-3.6405,-3.6405,-3.6405,-3.6405,-3.6405,-3.6405,-3.6405,-3.6405,-3.6405,-3.6405,-3.6405,-3.6405,-3.6405,-3.6405,-3.6405,-3.6405,-3.6405,-3.6405,-3.6405,-3.6405,-3.6405,-3.6405,-3.6405,-3.6405,-3.6405,-3.6405,-3.6405,-3.6405,-3.6405,-3.6405,-3.6405,-3.6358,-2.9305,-3.0599,-3.2134,-3.2827,-3.3005,0.0,-3.5366,-3.5794,0.0,0.0,0.0,0.0,0.0,-3.9778,-4.1452,-4.2201,-4.3389,-4.4481,-4.52,0.0,0.0,0.0,0.0,0.0,0.0,0.0,0.0,0.0,0.0,0.0,-4.7309,-4.7309,-4.7309,-4.7309,-4.7309,-4.7309,-4.7309,-4.7309,-4.7309,-4.7309,-4.7309,-4.7309,-4.7309,-4.7309,-4.7309,-4.7309,-4.7309,-4.7164,-4.6916,-4.6727,-4.6328,-4.5835,-4.5106,-4.377,-4.2177,-4.1547,-4.0846,-4.0173,-4.0121,-3.9929,-3.9661,-3.9145,-3.8957,-3.8668,-3.7575,-3.7211,-3.7073,-3.6568,-3.6405,-3.6405,-3.6405,-3.6405,-3.6405,-3.6405,-3.6405,-3.6405,-3.6405,-3.6405,-3.6405,-3.6405,-3.6405,-3.6405,-3.6405,-3.6405,-3.6405,-3.6405,-3.6405,-3.6405,-3.6405,-3.6405,-3.6405,-3.6405,-3.6405,-3.6405,-3.6405,-3.6405,-3.6405,-3.6405,-3.6405,-3.6405,-3.6405,-3.6405,-3.6405,-3.6405,-3.6405,-3.6405,-3.6405,-3.6405,-3.6405,-3.6405,-3.6405,-3.6275,-2.9099,-3.0338,-3.1809,-3.2373,0.0,0.0,0.0,0.0,0.0,0.0,0.0,0.0,0.0,0.0,-4.2111,-4.2366,-4.3808,0.0,0.0,0.0,0.0,0.0,0.0,0.0,0.0,0.0,0.0,0.0,0.0,0.0,-4.7309,-4.7309,-4.7309,-4.7309,-4.7309,-4.7309,-4.7309,-4.7309,-4.7309,-4.7309,-4.7309,-4.7309,-4.7309,-4.7309,-4.7309,-4.7309,-4.7309,-4.7164,-4.6873,-4.6491,-4.6001,-4.5276,-4.3926,-4.2631,-4.1547,-4.101,-4.0491,-4.007,-3.9929,-3.9561,-3.9145,-3.8994,-3.8391,-3.7739,-3.7312,-3.6996,-3.6681,-3.6468,-3.6405,-3.6405,-3.6405,-3.6405,-3.6405,-3.6405,-3.6405,-3.6405,-3.6405,-3.6405,-3.6405,-3.6405,-3.6405,-3.6405,-3.6405,-3.6405,-3.6405,-3.6405,-3.6405,-3.6405,-3.6405,-3.6405,-3.6405,-3.6405,-3.6405,-3.6405,-3.6405,-3.6405,-3.6405,-3.6405,-3.6405,-3.6405,-3.6405,-3.6405,-3.6405,-3.6405,-3.6405,-3.6405,-3.6405,-3.6405,-3.6405,-3.6405,-3.6228,-3.6098,-2.9125,-3.0319,-3.1691,0.0,0.0,0.0,0.0,0.0,0.0,0.0,0.0,0.0,0.0,0.0,0.0,0.0,0.0,0.0,0.0,0.0,0.0,0.0,0.0,0.0,0.0,0.0,0.0,0.0,0.0,0.0,0.0,-4.7309,-4.7309,-4.7309,-4.7309,-4.7309,-4.7309,-4.7309,-4.7309,-4.7309,-4.7309,-4.7309,-4.7309,-4.7309,-4.7309,-4.7294,-4.6998,-4.6749,-4.6459,-4.5771,-4.4929,-4.3931,-4.2399,-4.1364,-4.0564,-4.0016,-3.9664,-3.9399,-3.9208,-3.8919,-3.8567,-3.8391,-3.7814,-3.7149,-3.6973,-3.6707,-3.6405,-3.6405,-3.6405,-3.6405,-3.6405,-3.6405,-3.6405,-3.6405,-3.6405,-3.6405,-3.6405,-3.6405,-3.6405,-3.6405,-3.6405,-3.6405,-3.6405,-3.6405,-3.6405,-3.6405,-3.6405,-3.6405,-3.6405,-3.6405,-3.6405,-3.6405,-3.6405,-3.6405,-3.6405,-3.6405,-3.6405,-3.6405,-3.6405,-3.6405,-3.6405,-3.6405,-3.6405,-3.6405,-3.6405,-3.6405,-3.6405,-3.6405,-3.6358,-3.6275,-3.6098,-3.586,-2.9421,-3.0633,-3.183,0.0,0.0,0.0,0.0,0.0,0.0,0.0,0.0,0.0,-4.174,0.0,0.0,-4.3145,0.0,0.0,0.0,0.0,0.0,0.0,0.0,0.0,0.0,0.0,0.0,0.0,0.0,0.0,0.0,-4.7309,-4.7309,-4.7309,-4.7309,-4.7309,-4.7309,-4.7309,-4.7309,-4.7309,-4.7294,-4.7294,-4.7309,-4.7294,-4.7294,-4.7264,-4.6362,-4.585,-4.5475,-4.4413,-4.3092,-4.1714,-4.0756,-3.9907,-3.9152,-3.8617,-3.8212,-3.8002,-3.8002,-3.8002,-3.7902,-3.7362,-3.7186,-3.7073,-3.6568,-3.6405,-3.6405,-3.6405,-3.6405,-3.6405,-3.6405,-3.6405,-3.6405,-3.6405,-3.6405,-3.6405,-3.6405,-3.6405,-3.6405,-3.6405,-3.6405,-3.6405,-3.6405,-3.6405,-3.6405,-3.6405,-3.6405,-3.6405,-3.6405,-3.6405,-3.6405,-3.6405,-3.6405,-3.6405,-3.6405,-3.6405,-3.6405,-3.6405,-3.6405,-3.6405,-3.6405,-3.6405,-3.6405,-3.6405,-3.6405,-3.6405,-3.6405,-3.6405,-3.6275,-3.6015,-3.5968,-3.5572,-2.9362,-3.0411,0.0,-3.2277,0.0,0.0,0.0,0.0,0.0,0.0,0.0,-4.0709,-4.1248,0.0,0.0,0.0,0.0,0.0,0.0,0.0,0.0,0.0,0.0,0.0,0.0,0.0,0.0,0.0,0.0,0.0,0.0,-4.7309,-4.7309,-4.7309,-4.7309,-4.7309,-4.7309,-4.7309,-4.7309,-4.7294,-4.683,-4.686,-4.7294,-4.683,-4.652,-4.6347,-4.5592,-4.4957,-4.437,-4.303,-4.1882,-4.0929,-4.0131,-3.9464,-3.8884,-3.8519,-3.8212,-3.8002,-3.8002,-3.7751,-3.74,-3.7236,-3.6923,-3.6619,-3.6455,-3.6405,-3.6405,-3.6405,-3.6405,-3.6405,-3.6405,-3.6405,-3.6405,-3.6405,-3.6405,-3.6405,-3.6405,-3.6405,-3.6405,-3.6405,-3.6405,-3.6405,-3.6405,-3.6405,-3.6405,-3.6405,-3.6405,-3.6405,-3.6405,-3.6405,-3.6405,-3.6405,-3.6405,-3.6405,-3.6405,-3.6405,-3.6405,-3.6405,-3.6405,-3.6405,-3.6405,-3.6405,-3.6405,-3.6405,-3.6405,-3.6405,-3.6405,-3.6181,-3.6098,-3.5968,-3.5428,-3.492,-2.9594,-3.0313,0.0,-3.235,-3.3014,-3.3793,-3.5405,0.0,0.0,0.0,0.0,-4.0823,-4.1249,-4.2099,0.0,0.0,0.0,0.0,0.0,0.0,0.0,0.0,0.0,0.0,0.0,0.0,0.0,0.0,0.0,0.0,0.0,-4.6501,-4.6501,-4.6501,-4.6501,-4.6501,-4.6501,-4.6431,-4.6388,-4.6388,-4.5915,-4.5888,-4.626,-4.5943,-4.5665,-4.5422,-4.4488,-4.3484,-4.2424,-4.1371,-4.0441,-3.9628,-3.9021,-3.8454,-3.7916,-3.7701,-3.7507,-3.7349,-3.7349,-3.7136,-3.6908,-3.6908,-3.6681,-3.6405,-3.6405,-3.6405,-3.6405,-3.6405,-3.6405,-3.6405,-3.6405,-3.6405,-3.6405,-3.6405,-3.6405,-3.6405,-3.6405,-3.6405,-3.6405,-3.6405,-3.6405,-3.6405,-3.6405,-3.6405,-3.6405,-3.6405,-3.6405,-3.6405,-3.6405,-3.6405,-3.6405,-3.6405,-3.6405,-3.6405,-3.6405,-3.6405,-3.6405,-3.6405,-3.6405,-3.6405,-3.6405,-3.6405,-3.6405,-3.6405,-3.6405,-3.6405,-3.6405,-3.6146,-3.5908,-3.5668,-3.4981,-3.4323,-3.0048,0.0,0.0,-3.2523,-3.3126,0.0,-3.5953,-3.7411,-3.8597,-3.9407,0.0,-4.0816,-4.1521,0.0,0.0,0.0,0.0,0.0,0.0,0.0,0.0,0.0,0.0,0.0,0.0,0.0,0.0,0.0,0.0,0.0,0.0,-4.5289,-4.5289,-4.5248,-4.5248,-4.5248,-4.5263,-4.5054,-4.4944,-4.4929,-4.4689,-4.4533,-4.4533,-4.4729,-4.4699,-4.433,-4.3081,-4.1653,-4.0215,-3.9692,-3.8997,-3.8122,-3.7631,-3.7108,-3.6675,-3.6452,-3.6405,-3.6405,-3.6405,-3.6405,-3.6405,-3.6405,-3.6405,-3.6405,-3.6405,-3.6405,-3.6405,-3.6405,-3.6405,-3.6405,-3.6405,-3.6405,-3.6405,-3.6405,-3.6405,-3.6405,-3.6405,-3.6405,-3.6405,-3.6405,-3.6405,-3.6405,-3.6405,-3.6405,-3.6405,-3.6405,-3.6405,-3.6405,-3.6405,-3.6405,-3.6405,-3.6405,-3.6405,-3.6405,-3.6405,-3.6405,-3.6405,-3.6405,-3.6405,-3.6405,-3.6405,-3.6405,-3.6405,-3.6405,-3.6405,-3.6405,-3.6358,-3.6098,-3.5668,-3.5126,-3.458,-3.3782,-3.0276,-3.044,0.0,0.0,-3.3938,-3.5045,-3.5786,-3.7009,-3.8294,-3.9176,-3.9777,-4.0343,-4.1043,0.0,0.0,0.0,0.0,0.0,0.0,0.0,0.0,0.0,0.0,0.0,0.0,0.0,0.0,0.0,0.0,0.0,-4.5289,-4.5289,-4.5221,-4.5069,-4.5054,-4.4986,-4.4832,-4.479,-4.4649,0.0,-4.3908,-4.3506,-4.3153,-4.3548,-4.3159,-4.2092,-4.1426,-4.0614,-3.9692,-3.9056,-3.8498,-3.7893,-3.7142,-3.6815,-3.6675,-3.6452,-3.6405,-3.6405,-3.6405,-3.6405,-3.6405,-3.6405,-3.6405,-3.6405,-3.6405,-3.6405,-3.6405,-3.6405,-3.6405,-3.6405,-3.6405,-3.6405,-3.6405,-3.6405,-3.6405,-3.6405,-3.6405,-3.6405,-3.6405,-3.6405,-3.6405,-3.6405,-3.6405,-3.6405,-3.6405,-3.6405,-3.6405,-3.6405,-3.6405,-3.6405,-3.6405,-3.6405,-3.6405,-3.6405,-3.6405,-3.6405,-3.6405,-3.6405,-3.6405,-3.6405,-3.6405,-3.6405,-3.6405,-3.6405,-3.6405,-3.6323,-3.6098,-3.5812,-3.5416,-3.4884,-3.4139,-3.3335,-2.972,0.0,0.0,-3.2084,0.0,-3.543,-3.5607,-3.6619,-3.7802,-3.8769,-3.9424,-4.0025,0.0,0.0,0.0,0.0,0.0,0.0,0.0,0.0,0.0,0.0,0.0,0.0,0.0,0.0,0.0,0.0,0.0,-4.4306,-4.421,-4.4184,-4.4061,-4.3761,-4.3761,-4.3622,-4.3414,-4.3288,-4.3162,-4.2894,-4.2462,-4.1966,-4.141,-4.1966,-4.1667,-4.0702,-4.0329,-3.9706,-3.8908,-3.844,-3.7893,-3.7281,-3.6849,-3.6628,-3.6534,-3.6452,-3.6405,-3.6405,-3.6405,-3.6405,-3.6405,-3.6405,-3.6405,-3.6405,-3.6405,-3.6405,-3.6405,-3.6405,-3.6405,-3.6405,-3.6405,-3.6405,-3.6405,-3.6405,-3.6405,-3.6405,-3.6405,-3.6405,-3.6405,-3.6405,-3.6405,-3.6405,-3.6405,-3.6405,-3.6405,-3.6405,-3.6405,-3.6405,-3.6405,-3.6405,-3.6405,-3.6405,-3.6405,-3.6405,-3.6405,-3.6405,-3.6405,-3.6405,-3.6405,-3.6405,-3.6405,-3.6405,-3.6405,-3.6405,-3.6405,-3.6275,-3.6015,-3.562,-3.5078,-3.4384,-3.3484,-3.2572,-2.9038,0.0,-3.0552,-3.1797,-3.3652,0.0,-3.5352,-3.6296,-3.7337,-3.8307,-3.9077,-3.9793,0.0,0.0,0.0,0.0,0.0,0.0,0.0,0.0,0.0,0.0,0.0,0.0,0.0,0.0,0.0,0.0,0.0,-4.317,-4.2915,-4.2915,-4.2688,-4.2228,-4.2228,-4.2075,-4.1798,-4.1604,-4.1409,-4.1128,-4.0845,-4.0402,-3.9821,-4.0358,-4.0315,-3.9821,-3.953,-3.8953,-3.8122,-3.7848,-3.7328,-3.6709,-3.6675,-3.6534,-3.6405,-3.6405,-3.6405,-3.6405,-3.6405,-3.6405,-3.6405,-3.6405,-3.6405,-3.6405,-3.6405,-3.6405,-3.6405,-3.6405,-3.6405,-3.6405,-3.6405,-3.6405,-3.6405,-3.6405,-3.6405,-3.6405,-3.6405,-3.6405,-3.6405,-3.6405,-3.6405,-3.6405,-3.6405,-3.6405,-3.6405,-3.6405,-3.6405,-3.6405,-3.6405,-3.6405,-3.6405,-3.6405,-3.6405,-3.6405,-3.6405,-3.6405,-3.6405,-3.6405,-3.6405,-3.6405,-3.6405,-3.6405,-3.6405,-3.6405,-3.637,-3.6193,-3.592,-3.5368,-3.4726,-3.3892,-3.2873,-3.1964,0.0,0.0,-3.1501,0.0,-3.3256,-3.4114,0.0,0.0,-3.725,0.0,-3.8807,0.0,0.0,0.0,0.0,0.0,0.0,0.0,0.0,0.0,0.0,0.0,0.0,0.0,0.0,0.0,0.0,0.0,-4.3036,-4.2875,-4.2514,-4.2459,-4.2187,-4.1564,-4.1522,-4.1297,-4.0859,-4.0873,-4.0616,-4.017,-3.9733,-3.9367,-3.9042,-3.898,-3.898,-3.9042,-3.88,-3.8453,-3.7893,-3.7387,-3.7002,-3.6675,-3.6499,-3.6405,-3.6405,-3.6405,-3.6405,-3.6405,-3.6405,-3.6405,-3.6405,-3.6405,-3.6405,-3.6405,-3.6405,-3.6405,-3.6405,-3.6405,-3.6405,-3.6405,-3.6405,-3.6405,-3.6405,-3.6405,-3.6405,-3.6405,-3.6405,-3.6405,-3.6405,-3.6405,-3.6405,-3.6405,-3.6405,-3.6405,-3.6405,-3.6405,-3.6405,-3.6405,-3.6405,-3.6405,-3.6405,-3.6405,-3.6405,-3.6405,-3.6405,-3.6405,-3.6405,-3.6405,-3.6405,-3.6405,-3.6405,-3.6405,-3.6405,-3.6405,-3.6193,-3.5908,-3.5668,-3.5126,-3.4433,-3.3645,-3.2773,-3.1964,-2.88,-2.9989,-3.0971,0.0,-3.2877,-3.4127,-3.4556,0.0,-3.6748,-3.7577,0.0,0.0,0.0,0.0,0.0,0.0,0.0,0.0,0.0,0.0,0.0,0.0,0.0,0.0,0.0,0.0,0.0,0.0,-4.2915,-4.2648,-4.2213,-4.1966,-4.1507,-4.0802,-4.0688,-4.0386,-3.9908,-3.9908,-3.9689,-3.9216,-3.8845,-3.8472,-3.8122,-3.7998,-3.8135,-3.8336,-3.8089,-3.7723,-3.7188,-3.6956,-3.6722,-3.6546,-3.6452,-3.6405,-3.6405,-3.6405,-3.6405,-3.6405,-3.6405,-3.6405,-3.6405,-3.6405,-3.6405,-3.6405,-3.6405,-3.6405,-3.6405,-3.6405,-3.6405,-3.6405,-3.6405,-3.6405,-3.6405,-3.6405,-3.6405,-3.6405,-3.6405,-3.6405,-3.6405,-3.6405,-3.6405,-3.6405,-3.6405,-3.6405,-3.6405,-3.6405,-3.6405,-3.6405,-3.6405,-3.6405,-3.6405,-3.6405,-3.6405,-3.6405,-3.6405,-3.6405,-3.6405,-3.6405,-3.6405,-3.6405,-3.6405,-3.6405,-3.6405,-3.6405,-3.6146,-3.5812,-3.5368,-3.4689,-3.3941,-3.3147,-3.2179,-3.1373,0.0,0.0,-3.0221,-3.1026,-3.2462,-3.3762,0.0,0.0,0.0,0.0,0.0,0.0,0.0,0.0,0.0,0.0,0.0,0.0,0.0,0.0,0.0,0.0,0.0,0.0,0.0,0.0,0.0,0.0,-4.2648,-4.2281,-4.1702,-4.1325,-4.0731,-3.9849,-3.9573,-3.9169,-3.858,-3.8491,-3.8225,-3.7881,-3.7642,-3.7326,-3.6974,-3.6941,-3.6974,-3.7202,-3.7116,-3.6857,-3.6493,-3.6261,-3.6117,-3.6003,-3.6094,-3.6157,-3.6169,-3.6355,-3.6405,-3.6405,-3.6405,-3.6405,-3.6405,-3.6405,-3.6405,-3.6405,-3.6405,-3.6405,-3.6405,-3.6405,-3.6405,-3.6405,-3.6405,-3.6405,-3.6405,-3.6405,-3.6405,-3.6405,-3.6405,-3.6405,-3.6405,-3.6405,-3.6405,-3.6405,-3.6405,-3.6405,-3.6405,-3.6405,-3.6405,-3.6405,-3.6405,-3.6405,-3.6405,-3.6405,-3.6405,-3.6405,-3.6405,-3.6405,-3.6405,-3.6405,-3.6405,-3.6405,-3.6405,-3.6405,-3.6405,-3.6405,-3.6098,-3.5668,-3.5223,-3.4335,-3.3496,-3.2695,-3.168,-3.0868,0.0,-2.8934,0.0,-3.1585,0.0,0.0,0.0,0.0,0.0,0.0,0.0,0.0,0.0,0.0,0.0,0.0,0.0,0.0,0.0,0.0,0.0,0.0,0.0,0.0,0.0,0.0,0.0,0.0,-4.2172,-4.166,-4.083,-4.0488,-3.9778,-3.8567,-3.8075,-3.7426,-3.6664,-3.6214,-3.5994,-3.5937,-3.5742,-3.5653,-3.5608,-3.5353,-3.5232,-3.5257,-3.5765,-3.5968,-3.5884,-3.5105,-3.4813,-3.4864,-3.5345,-3.5545,-3.5608,-3.6169,-3.6405,-3.6405,-3.6405,-3.6405,-3.6405,-3.6405,-3.6405,-3.6405,-3.6405,-3.6405,-3.6405,-3.6405,-3.6405,-3.6405,-3.6405,-3.6405,-3.6405,-3.6405,-3.6405,-3.6405,-3.6405,-3.6405,-3.6405,-3.6405,-3.6405,-3.6405,-3.6405,-3.6405,-3.6405,-3.6405,-3.6405,-3.6405,-3.6405,-3.6405,-3.6405,-3.6405,-3.6405,-3.6405,-3.6405,-3.6405,-3.6405,-3.6405,-3.6405,-3.6405,-3.6405,-3.6405,-3.6405,-3.6405,-3.5895,-3.5476,-3.5223,-3.4139,-3.3235,-3.2409,-3.1578,-3.0765,0.0,0.0,0.0,-2.9882,-3.1169,-3.2331,0.0,0.0,0.0,0.0,0.0,0.0,0.0,0.0,0.0,0.0,0.0,0.0,0.0,0.0,0.0,0.0,0.0,0.0,0.0,0.0,0.0,0.0,0.0,-4.0071,-3.9327,-3.8794,-3.8102,-3.7224,-3.6875,-3.6477,-3.5872,-3.5696,-3.5519,-3.5353,-3.5264,-3.513,-3.4983,-3.4906,-3.4861,-3.4803,-3.4684,-3.481,-3.5125,-3.4801,-3.468,-3.4738,-3.4893,-3.4969,-3.5044,-3.5629,-3.583,-3.5893,-3.6292,-3.6405,-3.6405,-3.6405,-3.6405,-3.6405,-3.6405,-3.6405,-3.6405,-3.6405,-3.6405,-3.6405,-3.6405,-3.6405,-3.6405,-3.6405,-3.6405,-3.6405,-3.6405,-3.6405,-3.6405,-3.6405,-3.6405,-3.6405,-3.6405,-3.6405,-3.6405,-3.6405,-3.6405,-3.6405,-3.6405,-3.6405,-3.6405,-3.6405,-3.6405,-3.6405,-3.6405,-3.6405,-3.6405,-3.6405,-3.6405,-3.6405,-3.6405,-3.6405,-3.6405,-3.6405,-3.5847,-3.5368,-3.492,-3.3892,-3.2935,-3.2117,-3.1322,-3.0505,-2.6506,0.0,0.0,0.0,0.0,-3.1619,0.0,0.0,0.0,0.0,0.0,0.0,0.0,0.0,0.0,0.0,0.0,0.0,0.0,0.0,0.0,0.0,0.0,0.0,0.0,0.0,0.0,0.0,0.0,0.0,-3.8187,-3.7529,-3.6724,-3.5774,-3.5449,-3.5084,-3.4691,-3.4691,-3.4603,-3.4452,-3.4452,-3.4363,-3.4173,-3.4173,-3.4173,-3.4148,-3.3784,-3.3935,-3.4437,-3.4248,-3.4173,-3.4186,-3.4374,-3.4449,-3.4512,-3.5019,-3.5219,-3.527,-3.568,-3.5805,-3.5805,-3.5805,-3.5931,-3.6094,-3.6094,-3.6267,-3.6405,-3.6405,-3.6405,-3.6405,-3.6405,-3.6405,-3.6405,-3.6405,-3.6405,-3.6405,-3.6405,-3.6405,-3.6405,-3.6405,-3.6405,-3.6405,-3.6405,-3.6405,-3.6405,-3.6405,-3.6405,-3.6405,-3.6405,-3.6405,-3.6405,-3.6405,-3.6405,-3.6405,-3.6405,-3.6405,-3.6405,-3.6405,-3.6405,-3.6405,-3.6405,-3.6405,-3.6405,-3.6405,-3.5847,-3.532,-3.4775,-3.3744,-3.2734,-3.1874,-3.1127,-3.0297,0.0,0.0,0.0,0.0,0.0,0.0,0.0,0.0,0.0,0.0,0.0,0.0,0.0,0.0,0.0,0.0,0.0,0.0,0.0,0.0,0.0,0.0,0.0,0.0,0.0,0.0,0.0,0.0,-3.8804,-3.8131,-3.7475,-3.6764,-3.5748,-3.4305,-3.369,-3.3313,-3.3124,-3.3124,-3.3124,-3.3124,-3.3124,-3.3124,-3.3124,-3.3124,-3.3124,-3.3124,-3.3124,-3.3382,-3.3834,-3.3294,-3.3124,-3.3174,-3.3671,-3.3872,-3.3935,-3.45,-3.47,-3.47,-3.4668,-3.468,-3.468,-3.468,-3.5044,-3.547,-3.547,-3.5906,-3.638,-3.638,-3.6405,-3.6405,-3.6405,-3.6405,-3.6405,-3.6405,-3.6405,-3.6405,-3.6405,-3.6405,-3.6405,-3.6405,-3.6405,-3.6405,-3.6405,-3.6405,-3.6405,-3.6405,-3.6405,-3.6405,-3.6405,-3.6405,-3.6405,-3.6405,-3.6405,-3.6405,-3.6405,-3.6405,-3.6405,-3.6405,-3.6405,-3.6405,-3.6405,-3.6405,-3.6405,-3.6405,-3.5847,-3.532,-3.4775,-3.3744,-3.2645,-3.1578,-3.1023,-3.0141,-2.615,0.0,0.0,0.0,0.0,0.0,0.0,0.0,0.0,0.0,0.0,0.0,0.0,0.0,0.0,0.0,0.0,0.0,0.0,0.0,0.0,0.0,0.0,0.0,0.0,0.0,0.0,0.0,-3.7193,-3.6577,-3.5801,-3.4796,-3.4093,-3.3639,-3.3371,-3.3154,-3.3124,-3.3124,-3.3124,-3.3124,-3.3124,-3.3124,-3.3124,-3.3124,-3.3124,-3.3124,-3.3124,-3.3169,-3.3294,-3.3144,-3.3124,-3.3093,-3.3244,-3.3307,-3.337,-3.3922,-3.4123,-3.4186,-3.4587,-3.468,-3.468,-3.468,-3.4781,-3.4906,-3.4906,-3.5282,-3.5768,-3.5768,-3.6056,-3.6405,-3.6405,-3.6405,-3.6405,-3.6405,-3.6405,-3.6405,-3.6405,-3.6405,-3.6405,-3.6405,-3.6405,-3.6405,-3.6405,-3.6405,-3.6405,-3.6405,-3.6405,-3.6405,-3.6405,-3.6405,-3.6405,-3.6405,-3.6405,-3.6405,-3.6405,-3.6405,-3.6405,-3.6405,-3.6405,-3.6405,-3.6405,-3.6405,-3.6323,-3.6098,-3.5764,-3.5223,-3.4531,-3.3645,-3.2645,-3.1567,-3.0172,-2.9396,-2.6769,-2.7289,-2.7896,-2.8367,0.0,0.0,-3.0159,-3.0405,0.0,0.0,0.0,0.0,0.0,0.0,0.0,0.0,0.0,0.0,0.0,0.0,0.0,0.0,0.0,0.0,0.0,-3.804,-3.7404,-3.6626,-3.6177,-3.5521,-3.4564,-3.3823,-3.3356,-3.3283,-3.3154,-3.3124,-3.3124,-3.3124,-3.3124,-3.3124,-3.3124,-3.3124,-3.3124,-3.3124,-3.3124,-3.3124,-3.3124,-3.3124,-3.3124,-3.3124,-3.3124,-3.3124,-3.3124,-3.3124,-3.3162,-3.3432,-3.3558,-3.3608,-3.3922,-3.4035,-3.4035,-3.4035,-3.4186,-3.4374,-3.4374,-3.4718,-3.5157,-3.5157,-3.5429,-3.568,-3.568,-3.568,-3.568,-3.568,-3.568,-3.568,-3.568,-3.5855,-3.6094,-3.6367,-3.6405,-3.6405,-3.6405,-3.6405,-3.6405,-3.6405,-3.6405,-3.6405,-3.6405,-3.6405,-3.6405,-3.6405,-3.6405,-3.6405,-3.6405,-3.6405,-3.6405,-3.6405,-3.6405,-3.6405,-3.6405,-3.6275,-3.6146,-3.6015,-3.5524,-3.4726,-3.3572,-3.3346,-3.2482,-3.1054,-2.9701,-2.9026,-2.8154,-2.8154,-2.8253,-2.8714,-2.8705,0.0,-2.9895,-2.9737,-2.9617,0.0,0.0,0.0,0.0,0.0,0.0,0.0,0.0,0.0,0.0,0.0,0.0,0.0,0.0,0.0,-3.7296,-3.6936,-3.647,-3.58,-3.5319,-3.4627,-3.3533,-3.3293,-3.3093,-3.2935,-3.2893,-3.2893,-3.2893,-3.2893,-3.2893,-3.2893,-3.2893,-3.2893,-3.2893,-3.2955,-3.298,-3.298,-3.3056,-3.3124,-3.3124,-3.3124,-3.3124,-3.3124,-3.3124,-3.3124,-3.3124,-3.3124,-3.3124,-3.3124,-3.3124,-3.3124,-3.3124,-3.3124,-3.3407,-3.3809,-3.3809,-3.4198,-3.4638,-3.4655,-3.468,-3.468,-3.468,-3.468,-3.468,-3.468,-3.468,-3.468,-3.468,-3.5056,-3.5558,-3.6128,-3.6317,-3.6405,-3.6405,-3.6405,-3.6405,-3.6405,-3.6405,-3.6405,-3.6405,-3.6405,-3.6405,-3.6405,-3.6405,-3.6405,-3.6405,-3.6405,-3.6405,-3.6405,-3.6405,-3.6405,-3.6358,-3.6146,-3.5968,-3.5872,-3.5078,-3.388,-3.2359,-3.2784,-3.2077,-3.0349,-2.9501,-2.8983,-2.7762,-2.7791,-2.7917,-2.8384,-2.8477,0.0,-2.8858,-2.886,-2.8861,0.0,0.0,0.0,0.0,0.0,0.0,0.0,0.0,0.0,0.0,0.0,0.0,0.0,0.0,0.0,-3.5203,-3.5127,-3.4823,-3.4182,-3.3437,-3.2757,-3.2217,-3.1918,-3.1754,-3.1712,-3.1712,-3.1712,-3.1712,-3.1712,-3.1712,-3.1712,-3.1712,-3.1712,-3.1738,-3.2177,-3.239,-3.2403,-3.288,-3.3124,-3.3124,-3.3124,-3.3124,-3.3124,-3.3124,-3.3124,-3.3124,-3.3124,-3.3124,-3.3124,-3.3124,-3.3124,-3.3124,-3.3124,-3.3156,-3.3244,-3.3244,-3.3621,-3.4161,-3.46,-3.468,-3.468,-3.468,-3.468,-3.468,-3.468,-3.468,-3.468,-3.468,-3.4756,-3.4868,-3.5027,-3.5755,-3.6405,-3.6405,-3.6405,-3.6405,-3.6405,-3.6405,-3.6405,-3.6405,-3.6405,-3.6405,-3.6405,-3.6405,-3.6405,-3.6405,-3.6405,-3.6405,-3.6405,-3.6405,-3.6323,-3.6098,-3.6015,-3.5716,-3.5078,-3.4113,-3.3108,-3.2066,-3.1732,-3.1075,-3.0047,-2.9406,-2.8983,-2.8604,-2.8567,-2.8536,-2.8518,-2.841,0.0,0.0,-2.8249,-2.808,-2.8205,-2.8103,0.0,0.0,0.0,0.0,0.0,0.0,0.0,0.0,0.0,0.0,0.0,0.0,0.0,-3.4175,-3.4061,-3.374,-3.3105,-3.2447,-3.2019,-3.1818,-3.1562,-3.1386,-3.1386,-3.1386,-3.1386,-3.1386,-3.1386,-3.1386,-3.1386,-3.1386,-3.1386,-3.1399,-3.1675,-3.18,-3.1838,-3.2403,-3.2641,-3.2667,-3.2998,-3.3124,-3.3124,-3.3124,-3.3124,-3.3124,-3.3124,-3.3124,-3.3124,-3.3124,-3.3124,-3.3124,-3.3124,-3.3124,-3.3124,-3.3124,-3.3269,-3.3545,-3.3822,-3.3897,-3.3897,-3.3897,-3.3897,-3.3897,-3.3897,-3.3897,-3.3897,-3.3897,-3.4123,-3.4311,-3.4311,-3.4977,-3.5629,-3.5906,-3.5956,-3.6044,-3.6367,-3.6405,-3.6405,-3.6405,-3.6405,-3.6405,-3.6405,-3.6405,-3.6405,-3.6405,-3.6405,-3.6405,-3.6405,-3.6405,-3.6275,-3.6015,-3.5872,-3.5271,-3.4237,-3.3296,-3.2443,-3.1618,-3.092,-3.0349,-2.9774,-2.9195,-2.8781,-2.9504,-2.9289,-2.9087,-2.8643,-2.8329,-2.8124,0.0,0.0,0.0,-2.7403,-2.718,0.0,0.0,0.0,0.0,0.0,0.0,0.0,0.0,0.0,0.0,0.0,0.0,0.0,0.0,-3.2889,-3.2593,-3.1978,-3.1647,-3.146,-3.142,-3.1206,-3.1085,-3.1085,-3.1085,-3.1085,-3.1085,-3.1085,-3.1085,-3.1085,-3.1085,-3.1085,-3.1085,-3.1198,-3.1248,-3.1273,-3.1813,-3.2051,-3.2102,-3.2667,-3.2918,-3.2918,-3.3031,-3.3124,-3.3124,-3.3124,-3.3124,-3.3124,-3.3124,-3.3124,-3.3124,-3.3124,-3.3124,-3.3124,-3.3124,-3.3124,-3.3124,-3.3124,-3.3124,-3.3124,-3.3124,-3.3124,-3.3124,-3.3124,-3.3124,-3.3124,-3.3124,-3.3432,-3.3746,-3.3746,-3.4098,-3.4613,-3.5232,-3.5345,-3.5533,-3.6119,-3.6207,-3.6292,-3.6405,-3.6405,-3.6405,-3.6405,-3.6405,-3.6405,-3.6405,-3.6405,-3.6405,-3.6405,-3.637,-3.6181,-3.592,-3.5476,-3.4677,-3.3446,-3.2672,-3.1874,-3.1127,-3.0214,-2.9692,-2.9501,-2.894,-2.8568,0.0,0.0,0.0,0.0,-2.797,-2.7556,-2.7436,0.0,-2.7268,-2.7079,0.0,0.0,0.0,0.0,0.0,0.0,0.0,0.0,0.0,0.0,0.0,0.0,0.0,0.0,0.0,-3.0668,-3.0637,-3.0381,-3.0304,-3.0239,-3.0058,-3.0019,-2.998,-2.998,-2.998,-2.998,-2.998,-2.998,-2.998,-2.998,-2.998,-2.998,-2.9993,-3.0482,-3.0708,-3.0733,-3.126,-3.1486,-3.1524,-3.2089,-3.2303,-3.2365,-3.288,-3.3124,-3.3124,-3.3124,-3.3124,-3.3124,-3.3124,-3.3124,-3.3124,-3.3124,-3.3124,-3.3124,-3.3124,-3.3124,-3.3124,-3.3124,-3.3124,-3.3124,-3.3124,-3.3124,-3.3124,-3.3124,-3.3124,-3.3124,-3.3124,-3.3174,-3.3212,-3.3212,-3.3219,-3.3596,-3.4638,-3.4768,-3.4956,-3.5508,-3.5596,-3.5818,-3.6342,-3.6405,-3.6405,-3.6405,-3.6405,-3.6405,-3.6405,-3.6405,-3.6405,-3.6405,-3.6193,-3.592,-3.5668,-3.4482,-3.3545,-3.2896,-3.2088,-3.1424,-3.0827,-2.9621,-2.9052,-2.9132,-2.8834,-2.8568,0.0,0.0,0.0,0.0,0.0,0.0,-2.7146,0.0,-2.693,0.0,0.0,0.0,0.0,0.0,0.0,0.0,-2.6683,0.0,0.0,0.0,0.0,0.0,0.0,0.0,0.0,0.0,0.0,0.0,-2.9214,-2.9366,-2.9289,-2.9616,-2.9792,-2.9792,-2.9792,-2.9792,-2.9792,-2.9792,-2.9792,-2.9792,-2.9792,-2.9792,-2.9804,-3.003,-3.0143,-3.0168,-3.0708,-3.0947,-3.0984,-3.1512,-3.1738,-3.1788,-3.2353,-3.278,-3.3124,-3.3124,-3.3124,-3.3124,-3.3124,-3.3124,-3.3124,-3.3124,-3.3124,-3.3124,-3.3124,-3.3124,-3.3124,-3.3124,-3.3124,-3.3124,-3.3124,-3.3124,-3.3124,-3.3124,-3.3124,-3.3124,-3.3124,-3.3124,-3.3124,-3.3124,-3.3124,-3.3219,-3.3684,-3.4035,-3.4437,-3.4944,-3.5019,-3.5219,-3.5818,-3.5893,-3.5893,-3.5893,-3.5893,-3.5755,-3.5441,-3.5416,-3.5542,-3.5868,-3.5674,-3.5428,-3.5126,-3.4052,-3.3158,-3.2583,-3.1497,-3.0606,-2.9951,-2.8819,-2.8227,-2.8099,-2.786,-2.7663,-2.9693,0.0,0.0,0.0,0.0,0.0,0.0,0.0,0.0,0.0,0.0,0.0,0.0,0.0,-2.6468,-2.5899,0.0,-2.583,0.0,0.0,0.0,0.0,0.0,0.0,0.0,0.0,0.0,0.0,0.0,-2.8737,-2.8888,-2.9327,-2.9628,-2.9779,-2.9792,-2.9792,-2.9792,-2.9792,-2.9792,-2.9792,-2.9792,-2.9792,-2.9792,-2.9792,-2.9792,-2.9817,-3.0218,-3.0394,-3.0432,-3.0959,-3.1173,-3.1235,-3.1775,-3.224,-3.2654,-3.2998,-3.3124,-3.3124,-3.3124,-3.3124,-3.3124,-3.3124,-3.3124,-3.3124,-3.3124,-3.3124,-3.3124,-3.3124,-3.3124,-3.3124,-3.3124,-3.3124,-3.3124,-3.3124,-3.3124,-3.3124,-3.3124,-3.3124,-3.3124,-3.3124,-3.3124,-3.3124,-3.3124,-3.3407,-3.3859,-3.4412,-3.45,-3.4655,-3.5207,-3.527,-3.527,-3.527,-3.527,-3.5107,-3.4705,-3.468,-3.4798,-3.5061,-3.485,-3.4559,-3.4268,-3.3221,-3.2456,-3.2018,-3.0701,-2.9722,-2.9125,-2.8056,-2.7432,-2.7221,-2.7055,-2.7012,0.0,0.0,0.0,-2.8084,0.0,0.0,0.0,0.0,-2.6499,0.0,0.0,0.0,0.0,-2.6499,-2.6298,-2.572,-2.5632,0.0,0.0,0.0,0.0,0.0,0.0,0.0,0.0,0.0,0.0,0.0,0.0,0.0,-2.8863,-2.8913,-2.9214,-2.9779,-2.9792,-2.9792,-2.9792,-2.9792,-2.9792,-2.9792,-2.9792,-2.9792,-2.9792,-2.9792,-2.9792,-2.9792,-2.9817,-2.9817,-2.9867,-3.0407,-3.0645,-3.0696,-3.1223,-3.1436,-3.1574,-3.2667,-3.3124,-3.3124,-3.3124,-3.3124,-3.3124,-3.3124,-3.3124,-3.3124,-3.3124,-3.3124,-3.3124,-3.3124,-3.3124,-3.3124,-3.3124,-3.3124,-3.3124,-3.3124,-3.3124,-3.3124,-3.3124,-3.3124,-3.3124,-3.3124,-3.3124,-3.3124,-3.3124,-3.3093,-3.3294,-3.3847,-3.3922,-3.4123,-3.4675,-3.4751,-3.4751,-3.4751,-3.4751,-3.4738,-3.468,-3.468,-3.4512,-3.4081,-3.3621,-3.3243,-3.2973,-3.1763,-3.1049,-3.1041,-2.9539,-2.8769,-2.8709,-2.7441,-2.6824,-2.6834,-2.6918,-2.7012,0.0,0.0,-2.8524,-2.8197,0.0,0.0,0.0,0.0,0.0,0.0,0.0,0.0,-2.6499,-2.6499,-2.6197,-2.5234,-2.5084,-2.4725,0.0,0.0,0.0,0.0,0.0,0.0,0.0,0.0,0.0,0.0,-2.7143,0.0,0.0,-2.87,-2.9202,-2.9779,-2.9792,-2.9792,-2.9792,-2.9792,-2.9792,-2.9792,-2.9792,-2.9792,-2.9792,-2.9792,-2.9792,-2.9792,-2.9792,-2.9792,-2.9804,-2.9993,-3.0068,-3.0118,-3.067,-3.0871,-3.1009,-3.2102,-3.2503,-3.2554,-3.2943,-3.3124,-3.3124,-3.3124,-3.3124,-3.3124,-3.3124,-3.3124,-3.3124,-3.3124,-3.3124,-3.3124,-3.3124,-3.3124,-3.3124,-3.3124,-3.3124,-3.3124,-3.3124,-3.3124,-3.3124,-3.3124,-3.3124,-3.3124,-3.3124,-3.3124,-3.3144,-3.3319,-3.3357,-3.3558,-3.411,-3.4173,-3.4173,-3.4173,-3.4173,-3.3934,-3.3439,-3.3415,-3.3297,-3.305,-3.2732,-3.2346,-3.1936,-3.0994,-3.0253,-2.9746,-2.8757,-2.7976,-2.7431,-2.6684,-2.6231,-2.6045,-2.6103,-2.6122,-2.9792,-2.9365,0.0,-2.8486,-2.7833,0.0,-2.6864,0.0,-2.6499,0.0,0.0,0.0,0.0,-2.6499,-2.6135,-2.5008,-2.4788,-2.4399,0.0,-2.3421,0.0,0.0,0.0,0.0,0.0,0.0,-2.5398,-2.5586,-2.6276,0.0,0.0,0.0,-2.89,-2.9465,-2.9691,-2.9792,-2.9792,-2.9792,-2.9792,-2.9792,-2.9792,-2.9792,-2.9792,-2.9792,-2.9792,-2.9792,-2.9792,-2.9792,-2.9792,-2.9792,-2.9792,-2.9829,-3.0181,-3.0319,-3.0457,-3.1524,-3.2051,-3.2303,-3.288,-3.3124,-3.3124,-3.3124,-3.3124,-3.3124,-3.3124,-3.3124,-3.3124,-3.3124,-3.3124,-3.3124,-3.3124,-3.3124,-3.3124,-3.3124,-3.3124,-3.3124,-3.3124,-3.3124,-3.3124,-3.3124,-3.3124,-3.3124,-3.3124,-3.3124,-3.3124,-3.3124,-3.3124,-3.3206,-3.3558,-3.3608,-3.3564,-3.3464,-3.3464,-3.3196,-3.2519,-3.2361,-3.2154,-3.1941,-3.1587,-3.1201,-3.0875,-2.9847,-2.9074,-2.8726,-2.7788,-2.7065,-2.6576,-2.6142,-2.5868,-2.5693,-2.5693,-2.5693]},{"header":{"parameterUnit":"m.s-1","parameterCategory":1,"la1":30.6,"la2":29.2853,"lo1":-89.7004,"lo2":-87.6739,"dy":0.0162,"dx":0.0183,"nx":112,"ny":82,"refTime":"2024-06-24T12:00:00:Z","depth":0,"parameterNumber":3,"parameterNumberName":"V-component_of_WINDS"},"data":[0.0,0.0,0.0,0.0,0.0,0.0,0.0,0.0,0.0,0.0,0.0,0.0,0.0,0.0,0.0,0.0,0.0,0.0,0.0,0.0,0.0,0.0,0.0,0.0,0.0,0.0,0.0,0.0,0.0,0.0,0.0,0.0,0.0,0.0,0.0,0.0,0.0,0.0,0.0,0.0,0.0,0.0,0.0,0.0,0.0,0.0,0.0,0.0,0.0,0.0,0.0,0.0,0.0,0.0,0.0,0.0,0.0,0.0,0.0,0.0,0.0,0.0,0.0,0.0,0.0,0.0,0.0,0.0,0.0,0.0,0.0,0.0,0.0,0.0,0.0,0.0,0.0,0.0,0.0,0.0,0.0,0.0,0.0,0.0,0.0,0.0,0.0,0.0,0.0,0.0,-2.8584,-3.0609,-3.2419,-3.3479,-3.3479,-3.2314,-3.1122,-3.0017,0.0,0.0,0.0,0.0,0.0,0.0,0.0,0.0,0.0,0.0,0.0,0.0,0.0,0.0,0.0,0.0,0.0,0.0,0.0,0.0,0.0,0.0,0.0,0.0,0.0,0.0,0.0,0.0,0.0,0.0,0.0,0.0,0.0,0.0,0.0,0.0,0.0,0.0,0.0,0.0,0.0,0.0,0.0,0.0,0.0,0.0,0.0,0.0,0.0,0.0,0.0,0.0,0.0,0.0,0.0,0.0,0.0,0.0,0.0,0.0,0.0,0.0,0.0,0.0,0.0,0.0,0.0,0.0,0.0,0.0,0.0,0.0,0.0,0.0,0.0,0.0,0.0,0.0,0.0,0.0,0.0,0.0,0.0,0.0,0.0,0.0,0.0,0.0,0.0,0.0,0.0,0.0,0.0,0.0,0.0,0.0,0.0,0.0,0.0,0.0,0.0,0.0,0.0,0.0,-2.9303,-3.1922,-3.3407,-3.423,-3.423,-3.3158,-3.1963,-3.0715,0.0,0.0,0.0,0.0,0.0,0.0,0.0,0.0,0.0,0.0,0.0,0.0,0.0,0.0,0.0,0.0,0.0,0.0,0.0,0.0,0.0,0.0,0.0,0.0,0.0,0.0,0.0,0.0,0.0,0.0,0.0,0.0,0.0,0.0,0.0,0.0,0.0,0.0,0.0,0.0,0.0,0.0,0.0,0.0,0.0,0.0,0.0,0.0,0.0,0.0,0.0,0.0,0.0,0.0,0.0,0.0,0.0,0.0,0.0,0.0,0.0,0.0,0.0,0.0,0.0,0.0,0.0,0.0,0.0,0.0,0.0,0.0,0.0,0.0,0.0,0.0,0.0,0.0,0.0,0.0,0.0,0.0,0.0,0.0,0.0,0.0,0.0,0.0,0.0,0.0,0.0,0.0,0.0,0.0,0.0,0.0,0.0,0.0,0.0,0.0,0.0,0.0,0.0,-2.9491,-3.1391,-3.2637,-3.3893,-3.4668,-3.4668,-3.3548,-3.232,-3.1028,-2.8408,0.0,0.0,0.0,0.0,0.0,0.0,0.0,0.0,0.0,0.0,0.0,0.0,0.0,0.0,0.0,0.0,0.0,0.0,0.0,0.0,0.0,0.0,0.0,0.0,0.0,0.0,0.0,0.0,0.0,0.0,0.0,0.0,0.0,0.0,0.0,0.0,0.0,0.0,0.0,0.0,0.0,0.0,0.0,0.0,0.0,0.0,0.0,0.0,0.0,0.0,0.0,0.0,0.0,0.0,0.0,0.0,0.0,0.0,0.0,0.0,0.0,0.0,0.0,0.0,0.0,0.0,0.0,0.0,0.0,0.0,0.0,0.0,0.0,0.0,0.0,0.0,0.0,0.0,0.0,0.0,0.0,0.0,0.0,0.0,0.0,0.0,0.0,0.0,0.0,0.0,0.0,0.0,0.0,0.0,0.0,0.0,0.0,0.0,0.0,0.0,0.0,0.0,-3.1471,-3.3129,-3.3129,-3.4265,-3.4975,-3.4812,-3.378,-3.2507,-3.1042,-2.8753,0.0,0.0,0.0,0.0,0.0,0.0,0.0,0.0,0.0,0.0,0.0,0.0,0.0,0.0,0.0,0.0,0.0,0.0,0.0,0.0,0.0,0.0,0.0,0.0,0.0,0.0,0.0,0.0,0.0,0.0,0.0,0.0,0.0,0.0,0.0,0.0,0.0,0.0,0.0,0.0,0.0,0.0,0.0,0.0,0.0,0.0,0.0,0.0,0.0,0.0,0.0,0.0,0.0,0.0,0.0,0.0,0.0,0.0,0.0,0.0,0.0,0.0,0.0,0.0,0.0,0.0,0.0,0.0,0.0,0.0,0.0,0.0,0.0,0.0,0.0,0.0,0.0,0.0,0.0,0.0,0.0,0.0,0.0,0.0,0.0,0.0,0.0,0.0,0.0,0.0,0.0,0.0,0.0,0.0,0.0,0.0,0.0,0.0,0.0,0.0,0.0,0.0,-3.1722,-3.3454,-3.3454,-3.4665,-3.5218,-3.456,-3.3857,-3.2632,-3.0673,-2.8682,0.0,0.0,0.0,0.0,0.0,0.0,0.0,0.0,0.0,0.0,0.0,0.0,0.0,0.0,0.0,0.0,0.0,0.0,0.0,0.0,0.0,0.0,0.0,0.0,0.0,0.0,0.0,0.0,0.0,0.0,0.0,0.0,0.0,0.0,0.0,0.0,0.0,0.0,0.0,0.0,0.0,0.0,0.0,0.0,0.0,0.0,0.0,0.0,0.0,0.0,0.0,0.0,0.0,0.0,0.0,0.0,0.0,0.0,0.0,0.0,0.0,0.0,0.0,0.0,0.0,0.0,0.0,0.0,0.0,0.0,0.0,0.0,0.0,0.0,0.0,0.0,0.0,0.0,0.0,0.0,0.0,0.0,0.0,0.0,0.0,0.0,0.0,0.0,0.0,0.0,0.0,0.0,0.0,0.0,0.0,0.0,0.0,0.0,0.0,0.0,0.0,0.0,-3.1839,-3.3499,-3.3499,-3.4696,-3.5235,-3.4563,-3.3873,-3.2632,-3.0627,0.0,0.0,0.0,0.0,0.0,0.0,0.0,0.0,0.0,0.0,0.0,0.0,0.0,0.0,0.0,0.0,0.0,0.0,0.0,0.0,0.0,0.0,0.0,0.0,0.0,0.0,0.0,0.0,0.0,0.0,0.0,0.0,0.0,0.0,0.0,0.0,0.0,0.0,0.0,0.0,0.0,0.0,0.0,0.0,0.0,0.0,0.0,0.0,0.0,0.0,0.0,0.0,0.0,0.0,0.0,0.0,0.0,0.0,0.0,0.0,0.0,0.0,0.0,0.0,0.0,0.0,0.0,0.0,0.0,0.0,0.0,0.0,0.0,0.0,0.0,0.0,0.0,0.0,0.0,0.0,0.0,0.0,0.0,0.0,0.0,0.0,0.0,0.0,0.0,0.0,0.0,0.0,0.0,0.0,0.0,0.0,0.0,0.0,0.0,0.0,0.0,0.0,-2.9442,-3.1869,-3.3499,-3.3499,-3.4696,-3.5145,-3.4279,-3.3754,-3.2617,-3.0546,0.0,0.0,0.0,0.0,0.0,0.0,0.0,0.0,0.0,0.0,0.0,0.0,0.0,0.0,0.0,0.0,0.0,0.0,0.0,0.0,0.0,0.0,0.0,0.0,0.0,0.0,0.0,0.0,0.0,0.0,0.0,0.0,0.0,0.0,0.0,0.0,0.0,0.0,0.0,0.0,0.0,0.0,0.0,0.0,0.0,0.0,0.0,0.0,0.0,0.0,0.0,0.0,0.0,0.0,0.0,0.0,0.0,0.0,0.0,0.0,0.0,0.0,0.0,0.0,0.0,0.0,0.0,0.0,0.0,0.0,0.0,0.0,0.0,0.0,0.0,0.0,0.0,0.0,0.0,0.0,0.0,0.0,0.0,0.0,0.0,0.0,0.0,0.0,0.0,0.0,0.0,0.0,0.0,0.0,0.0,0.0,0.0,0.0,0.0,0.0,0.0,0.0,-2.9442,-3.1869,-3.3499,-3.3499,-3.4696,-3.4966,-3.3619,-3.3499,-3.2571,0.0,0.0,0.0,0.0,0.0,0.0,0.0,0.0,0.0,0.0,0.0,0.0,0.0,0.0,0.0,0.0,0.0,0.0,0.0,0.0,0.0,0.0,0.0,0.0,0.0,0.0,0.0,0.0,0.0,0.0,0.0,0.0,0.0,0.0,0.0,0.0,0.0,0.0,0.0,0.0,0.0,0.0,0.0,0.0,0.0,0.0,0.0,0.0,0.0,0.0,0.0,0.0,0.0,0.0,0.0,0.0,0.0,0.0,0.0,0.0,0.0,0.0,0.0,0.0,0.0,0.0,0.0,0.0,0.0,0.0,0.0,0.0,0.0,0.0,0.0,0.0,0.0,0.0,0.0,0.0,0.0,0.0,0.0,0.0,0.0,0.0,0.0,0.0,0.0,0.0,0.0,0.0,0.0,0.0,0.0,0.0,0.0,0.0,0.0,0.0,0.0,0.0,0.0,-2.9442,-3.1869,-3.3499,-3.3499,-3.4696,-3.5105,-3.4074,-3.3999,-3.3169,-3.1235,0.0,0.0,0.0,0.0,0.0,0.0,0.0,0.0,0.0,0.0,0.0,0.0,0.0,0.0,0.0,0.0,0.0,0.0,0.0,0.0,0.0,0.0,0.0,0.0,0.0,0.0,0.0,0.0,0.0,0.0,0.0,0.0,0.0,0.0,0.0,0.0,0.0,0.0,0.0,0.0,0.0,0.0,0.0,0.0,0.0,0.0,0.0,0.0,0.0,0.0,0.0,0.0,0.0,0.0,0.0,0.0,0.0,0.0,0.0,0.0,0.0,0.0,0.0,0.0,0.0,0.0,0.0,0.0,0.0,0.0,0.0,0.0,0.0,0.0,0.0,0.0,0.0,0.0,0.0,0.0,0.0,0.0,0.0,0.0,0.0,0.0,0.0,0.0,0.0,0.0,0.0,0.0,0.0,0.0,0.0,0.0,0.0,0.0,0.0,0.0,0.0,0.0,-2.9442,-3.1869,-3.3499,-3.3499,-3.4696,-3.5147,-3.4267,-3.4013,-3.3215,-3.1601,0.0,0.0,0.0,0.0,0.0,0.0,0.0,0.0,0.0,0.0,0.0,0.0,0.0,0.0,0.0,0.0,0.0,0.0,0.0,0.0,0.0,0.0,0.0,0.0,0.0,0.0,0.0,0.0,0.0,0.0,0.0,0.0,0.0,0.0,0.0,0.0,0.0,0.0,0.0,0.0,0.0,0.0,0.0,0.0,0.0,0.0,0.0,0.0,0.0,0.0,0.0,0.0,0.0,0.0,0.0,0.0,0.0,0.0,0.0,0.0,0.0,0.0,0.0,0.0,0.0,0.0,0.0,0.0,0.0,0.0,0.0,0.0,0.0,0.0,0.0,0.0,0.0,0.0,0.0,0.0,0.0,0.0,0.0,0.0,0.0,0.0,0.0,0.0,0.0,0.0,0.0,0.0,0.0,0.0,0.0,0.0,0.0,0.0,0.0,0.0,0.0,0.0,-2.9388,-3.1824,-3.3439,-3.3499,-3.468,-3.5173,-3.441,-3.3934,-3.3051,-3.1581,0.0,0.0,0.0,0.0,0.0,0.0,0.0,0.0,0.0,0.0,0.0,0.0,0.0,0.0,0.0,0.0,0.0,0.0,0.0,0.0,0.0,0.0,0.0,0.0,0.0,0.0,0.0,0.0,0.0,0.0,0.0,0.0,0.0,0.0,0.0,0.0,0.0,0.0,0.0,0.0,0.0,0.0,0.0,0.0,0.0,0.0,0.0,0.0,0.0,0.0,0.0,0.0,0.0,0.0,0.0,0.0,0.0,0.0,0.0,0.0,-2.0939,0.0,0.0,0.0,0.0,0.0,0.0,0.0,0.0,0.0,0.0,0.0,0.0,0.0,0.0,0.0,0.0,0.0,0.0,0.0,0.0,0.0,0.0,0.0,0.0,0.0,0.0,0.0,0.0,0.0,0.0,0.0,0.0,0.0,0.0,0.0,0.0,0.0,0.0,0.0,0.0,0.0,-2.8983,-3.1323,-3.3089,-3.3443,-3.4703,-3.5404,-3.5253,-3.5139,-3.4061,-3.1656,-2.9567,0.0,0.0,0.0,0.0,0.0,0.0,0.0,0.0,0.0,0.0,0.0,0.0,0.0,0.0,0.0,0.0,0.0,0.0,0.0,0.0,0.0,0.0,0.0,0.0,0.0,0.0,0.0,0.0,0.0,0.0,0.0,0.0,0.0,0.0,0.0,0.0,0.0,0.0,0.0,0.0,0.0,0.0,0.0,0.0,0.0,0.0,0.0,0.0,0.0,0.0,0.0,0.0,0.0,0.0,0.0,0.0,0.0,0.0,0.0,0.0,-2.257,0.0,0.0,0.0,0.0,0.0,0.0,0.0,0.0,0.0,0.0,0.0,0.0,0.0,0.0,0.0,0.0,0.0,0.0,0.0,0.0,0.0,0.0,0.0,0.0,0.0,0.0,0.0,0.0,0.0,0.0,0.0,0.0,0.0,0.0,0.0,0.0,0.0,0.0,0.0,0.0,-2.9054,-3.1738,-3.3572,-3.3819,-3.484,-3.5509,-3.552,-3.5502,-3.4364,-3.1678,-3.0238,0.0,0.0,0.0,0.0,0.0,0.0,0.0,0.0,0.0,0.0,0.0,0.0,0.0,0.0,0.0,0.0,0.0,0.0,0.0,0.0,0.0,0.0,0.0,0.0,0.0,0.0,0.0,0.0,0.0,0.0,0.0,0.0,0.0,0.0,0.0,0.0,0.0,0.0,0.0,0.0,0.0,0.0,0.0,0.0,0.0,0.0,0.0,0.0,0.0,0.0,0.0,0.0,0.0,-2.6162,-2.6727,-2.7023,-2.7653,-2.8098,-2.824,-2.6422,-2.5624,-2.5527,-2.5251,0.0,0.0,0.0,0.0,0.0,0.0,0.0,0.0,0.0,0.0,0.0,0.0,0.0,0.0,0.0,0.0,0.0,0.0,0.0,0.0,0.0,0.0,0.0,0.0,-3.0335,-3.0128,-2.8133,0.0,0.0,0.0,0.0,0.0,0.0,0.0,0.0,0.0,0.0,0.0,-2.9638,-3.2437,-3.4268,-3.4409,-3.5068,-3.5504,-3.5504,-3.5492,-3.4572,-3.2347,-3.1766,-3.0524,0.0,0.0,0.0,0.0,0.0,0.0,0.0,0.0,0.0,0.0,0.0,0.0,0.0,0.0,0.0,0.0,0.0,0.0,0.0,0.0,0.0,0.0,0.0,0.0,0.0,0.0,0.0,0.0,0.0,0.0,0.0,0.0,-1.7285,-1.7678,0.0,0.0,0.0,0.0,0.0,0.0,0.0,0.0,0.0,0.0,0.0,0.0,0.0,-2.4567,-2.5912,-2.6144,-2.6924,-2.8237,-2.8593,-2.915,-2.9804,-3.0349,-3.079,-3.1141,-3.1081,0.0,-2.8083,-2.7457,0.0,0.0,0.0,0.0,0.0,0.0,0.0,0.0,0.0,0.0,0.0,0.0,0.0,0.0,0.0,0.0,0.0,0.0,0.0,0.0,0.0,0.0,-2.9043,-3.0834,-3.1525,-3.185,0.0,-3.0119,-2.8265,-2.8319,-2.6854,0.0,0.0,0.0,0.0,0.0,0.0,0.0,-3.1191,-3.2986,-3.45,-3.5233,-3.5444,-3.5504,-3.5504,-3.5492,-3.5363,-3.4982,-3.2781,-3.1346,-3.1002,-2.8801,0.0,0.0,0.0,0.0,0.0,0.0,0.0,0.0,0.0,0.0,0.0,0.0,0.0,0.0,0.0,0.0,0.0,0.0,0.0,0.0,0.0,0.0,0.0,0.0,0.0,0.0,0.0,0.0,0.0,-1.8118,-1.9247,-1.9414,-1.9767,-2.0015,0.0,0.0,0.0,0.0,0.0,0.0,0.0,0.0,0.0,-2.5424,-2.6094,-2.6937,-2.7971,-2.8215,-2.8852,-2.9804,-3.0373,-3.089,-3.131,-3.2037,-3.2493,-3.2789,-3.3208,-3.2801,-3.1736,-3.0202,-2.9507,-2.9313,0.0,0.0,0.0,0.0,-2.8335,-2.8335,-2.8335,-2.8335,-2.8184,-2.703,0.0,0.0,0.0,0.0,0.0,0.0,0.0,0.0,0.0,0.0,-3.2373,-3.3856,-3.4466,-3.4878,-3.5259,-3.3826,-3.2184,0.0,-2.9557,-2.8509,-2.8964,0.0,0.0,0.0,0.0,-3.2912,-3.3651,-3.4449,-3.5095,-3.5459,-3.5504,-3.5504,-3.5504,-3.5482,-3.5337,-3.4946,-3.3471,-3.2273,-3.1525,-3.0043,-2.8435,0.0,0.0,0.0,0.0,0.0,0.0,0.0,0.0,0.0,0.0,0.0,0.0,0.0,0.0,0.0,0.0,0.0,0.0,0.0,0.0,0.0,0.0,0.0,0.0,0.0,0.0,0.0,0.0,-2.0199,-2.1288,-2.1451,-2.1823,-2.22,0.0,0.0,0.0,0.0,0.0,0.0,-2.5679,-2.685,-2.7656,-2.8018,-2.8682,-2.9363,-3.0024,-3.0458,-3.1,-3.1676,-3.2426,-3.2901,-3.3228,-3.3959,-3.4433,-3.4621,-3.4954,-3.5027,-3.474,-3.266,-3.1647,-3.1386,-3.0683,-3.0407,-3.0394,-3.0256,-3.0206,-3.0206,-3.0206,-3.0206,-3.0043,-2.9063,-2.8649,-2.8386,-2.7664,0.0,0.0,0.0,0.0,-3.2489,-3.3715,-3.4831,-3.5906,-3.6728,-3.7264,-3.7585,-3.7719,-3.6926,-3.5629,0.0,-3.2555,-3.1667,-3.1285,0.0,0.0,0.0,0.0,-3.4106,-3.5119,-3.5389,-3.549,-3.5507,-3.5504,-3.5504,-3.5504,-3.5504,-3.5295,-3.4771,-3.4113,-3.323,-3.2049,-3.1182,-2.9834,-2.7899,0.0,0.0,0.0,0.0,0.0,0.0,0.0,0.0,0.0,0.0,0.0,0.0,0.0,0.0,0.0,0.0,0.0,0.0,0.0,0.0,0.0,0.0,0.0,0.0,0.0,0.0,0.0,0.0,0.0,-2.4028,-2.4448,0.0,0.0,0.0,0.0,-2.6334,-2.7803,-2.8668,-2.8691,-2.984,-3.0487,-3.0521,-3.1207,-3.186,-3.2331,-3.3096,-3.384,-3.4601,-3.517,-3.5683,-3.6192,-3.6758,-3.7158,-3.7407,-3.7141,-3.6784,-3.6147,-3.4474,-3.3759,-3.3621,-3.2516,-3.2089,-3.2026,-3.1499,-3.1311,-3.1311,-3.1311,-3.1311,-3.1223,-3.067,-3.0131,-2.973,-2.9897,-3.0063,0.0,0.0,-3.1557,-3.2992,-3.6466,-3.7981,-3.8588,-3.8676,-3.8983,-3.9282,-3.9294,-3.8586,-3.7444,0.0,-3.5287,-3.4988,-3.4152,0.0,-3.3894,-3.3546,-3.404,-3.4475,-3.4533,-3.5117,-3.5489,-3.5504,-3.5504,-3.5504,-3.5504,-3.5504,-3.5489,-3.5459,-3.4801,-3.4113,-3.3425,-3.2123,-3.0539,-2.8592,-2.7899,0.0,0.0,0.0,0.0,0.0,0.0,0.0,0.0,0.0,0.0,0.0,0.0,0.0,0.0,0.0,0.0,0.0,0.0,0.0,0.0,0.0,0.0,0.0,0.0,0.0,0.0,0.0,0.0,-2.6298,-2.6858,0.0,-2.8077,-2.8563,-2.9009,-2.941,-3.0438,-3.1003,-3.1003,-3.2042,-3.2637,-3.2637,-3.333,-3.3885,-3.4211,-3.4549,-3.4877,-3.5322,-3.5837,-3.6195,-3.6398,-3.6845,-3.7257,-3.7643,-3.7951,-3.786,-3.7387,-3.6784,-3.5705,-3.4387,-3.3985,-3.3834,-3.3809,-3.3608,-3.3533,-3.3533,-3.3533,-3.3533,-3.3395,-3.2491,-3.1813,-3.1326,-3.1202,-3.1418,-3.1798,-3.2371,-3.3386,-3.4692,-3.6387,-3.7624,-3.8502,-3.8745,-3.8999,-3.9242,-3.9388,-3.8832,-3.8122,-3.7499,-3.6703,-3.5914,-3.5168,-3.4688,-3.4326,-3.4174,-3.4354,-3.4668,-3.5085,-3.5355,-3.5504,-3.5504,-3.5504,-3.5504,-3.5504,-3.5504,-3.5504,-3.5504,-3.4861,-3.4219,-3.3529,-3.2647,-3.1391,-2.9864,-2.9217,-2.8229,0.0,0.0,0.0,0.0,0.0,0.0,0.0,0.0,0.0,0.0,0.0,0.0,0.0,0.0,0.0,0.0,0.0,0.0,0.0,0.0,0.0,0.0,0.0,0.0,0.0,0.0,-2.7247,-2.8089,-2.9015,-2.985,-3.0555,-3.1088,-3.1656,-3.2288,-3.295,-3.3437,-3.3618,-3.44,-3.4783,-3.4797,-3.5317,-3.5723,-3.5871,-3.6147,-3.6358,-3.6566,-3.6991,-3.7248,-3.7402,-3.7649,-3.7952,-3.8303,-3.8592,-3.8554,-3.8278,-3.809,-3.7149,-3.5793,-3.5416,-3.5165,-3.4931,-3.4788,-3.468,-3.468,-3.468,-3.468,-3.46,-3.3872,-3.337,-3.3036,-3.3009,-3.3283,-3.3645,-3.4179,-3.5152,-3.6161,-3.6584,-3.7523,-3.8389,-3.8723,-3.9017,-3.9228,-3.9373,-3.9065,-3.8736,-3.8736,-3.7689,-3.6656,-3.6222,-3.5774,-3.5459,-3.5459,-3.5327,-3.5357,-3.5774,-3.5639,-3.5504,-3.5504,-3.5504,-3.5504,-3.5504,-3.5504,-3.5504,-3.5504,-3.507,-3.4548,-3.3858,-3.3185,-3.2213,-3.0853,-3.0068,-2.9132,-2.8071,0.0,0.0,0.0,0.0,0.0,0.0,0.0,0.0,0.0,0.0,0.0,0.0,0.0,0.0,0.0,0.0,0.0,0.0,0.0,0.0,0.0,0.0,0.0,-2.5699,-2.7582,-2.9063,-2.9495,-3.0947,-3.2097,-3.2438,-3.2993,-3.3757,-3.4841,-3.5373,-3.5915,-3.6505,-3.6798,-3.6943,-3.6945,-3.7148,-3.726,-3.7242,-3.8028,-3.8409,-3.8421,-3.8684,-3.8998,-3.931,-3.931,-3.9478,-3.9659,-3.9132,-3.8944,-3.8906,-3.8291,-3.8052,-3.7927,-3.6835,-3.6094,-3.5508,-3.4956,-3.4788,-3.4731,-3.4731,-3.4731,-3.4731,-3.4705,-3.4705,-3.4783,-3.5264,-3.5607,-3.5874,-3.6249,-3.677,-3.7272,-3.736,-3.7958,-3.8582,-3.8789,-3.9119,-3.9388,-3.9388,-3.9388,-3.9388,-3.9388,-3.8362,-3.7464,-3.7434,-3.7434,-3.7434,-3.7404,-3.6896,0.0,-3.6507,-3.5938,-3.5534,-3.5534,-3.5519,-3.5504,-3.5504,-3.5504,-3.5504,-3.5504,-3.5504,-3.519,-3.4533,-3.3858,-3.2916,-3.1585,-3.0451,-2.9633,-2.9128,0.0,0.0,0.0,0.0,0.0,0.0,0.0,0.0,0.0,0.0,0.0,0.0,0.0,0.0,0.0,0.0,0.0,0.0,0.0,0.0,0.0,-2.6766,-2.7972,-2.7972,-2.89,-3.0167,-3.1868,-3.2481,-3.3089,-3.3983,-3.4932,-3.5665,-3.5965,-3.6673,-3.7109,-3.7271,-3.7576,-3.777,-3.7745,-3.8169,-3.8334,-3.835,-3.8586,-3.8684,-3.8684,-3.8998,-3.9206,-3.9322,-3.9478,-3.9633,-3.9685,-3.9534,-3.9471,-3.9459,-3.9295,-3.8994,-3.8567,-3.7839,-3.7462,-3.7262,-3.6709,-3.6257,-3.5906,-3.5906,-3.5906,-3.5843,-3.5408,-3.527,-3.5286,-3.5379,-3.5683,-3.6158,-3.6959,-3.7744,-3.8483,-3.897,-3.9262,-3.9481,-3.9691,-3.9571,-3.9388,-3.9388,-3.9388,-3.9388,-3.9388,-3.9089,-3.8706,-3.8212,-3.8123,-3.7958,-3.7479,-3.727,0.0,-3.715,-3.6611,-3.6222,-3.6222,-3.5789,-3.5504,-3.5504,-3.5504,-3.5504,-3.5504,-3.5504,-3.519,-3.4533,-3.4339,-3.3814,-3.2976,-3.2152,-3.1816,0.0,0.0,0.0,0.0,0.0,0.0,0.0,0.0,0.0,0.0,0.0,0.0,0.0,0.0,0.0,0.0,0.0,0.0,0.0,0.0,0.0,0.0,-2.8285,-2.9616,-3.0532,-3.0959,-3.165,-3.2973,-3.3684,-3.4462,-3.5341,-3.6207,-3.6945,-3.7423,-3.7903,-3.8266,-3.8491,-3.8675,-3.8772,-3.8772,-3.9057,-3.9166,-3.9166,-3.9166,-3.9166,-3.9154,-3.9374,-3.9478,-3.9478,-3.9633,-3.9697,-3.9697,-3.9697,-3.9697,-3.9697,-3.9697,-3.9509,0.0,0.0,0.0,0.0,0.0,-3.7174,-3.6757,-3.6757,-3.6606,-3.6355,-3.5994,-3.5927,-3.6004,-3.61,-3.6528,-3.7087,-3.772,-3.849,-3.9266,-3.9673,-4.0013,-4.0214,-4.0107,-3.995,-3.9753,-3.9448,-3.9388,-3.9388,-3.9388,-3.9388,0.0,-3.8901,-3.8826,-3.8691,-3.8317,-3.8003,-3.7823,-3.7823,-3.727,-3.6776,-3.6507,-3.6148,-3.5804,-3.5534,-3.5504,0.0,0.0,0.0,-3.519,-3.4533,-3.4503,0.0,0.0,0.0,0.0,0.0,0.0,0.0,0.0,-3.314,-3.4267,0.0,0.0,0.0,0.0,0.0,0.0,0.0,0.0,0.0,0.0,0.0,0.0,0.0,0.0,0.0,0.0,-2.9666,-3.0846,-3.2847,-3.3244,-3.3357,-3.3357,-3.4713,-3.5821,-3.6445,-3.7023,-3.7789,-3.8844,-3.8982,-3.9182,-3.9672,0.0,0.0,0.0,0.0,-3.9697,-3.9697,-3.9697,-3.9697,-3.9697,-3.9697,-3.9697,-3.9697,-3.9697,-3.9697,-3.9697,-3.9697,-3.9697,-3.9697,-3.9697,-3.9697,-3.9647,-3.9157,-3.8617,-3.8103,-3.8103,-3.7751,-3.7262,-3.7211,0.0,0.0,-3.643,-3.6534,-3.6769,-3.7015,-3.7618,-3.823,-3.8435,-3.9138,-3.9843,-4.0,-4.049,-4.0805,-4.0441,-4.039,-4.0247,-3.9649,-3.9433,-3.9388,-3.9388,-3.9388,-3.9388,-3.9388,-3.9388,-3.9388,-3.9388,-3.8901,-3.8497,-3.8497,-3.7928,-3.7315,-3.6761,0.0,0.0,-3.5669,-3.5609,-3.5579,-3.5504,-3.5504,-3.5235,-3.4653,-3.4623,-3.4322,-3.3739,-3.3907,-3.4121,-3.4319,-3.4666,-3.5408,-3.646,-3.5801,-3.644,0.0,0.0,0.0,0.0,0.0,0.0,0.0,0.0,0.0,0.0,0.0,0.0,0.0,0.0,0.0,-2.9478,-3.121,-3.2634,-3.3061,-3.4223,-3.5019,-3.5019,-3.5768,-3.6445,-3.6985,-3.7952,-3.868,-3.8906,-3.9283,-3.9584,-3.9685,-3.9697,-3.9697,-3.9697,-3.9697,-3.9697,-3.9697,-3.9697,-3.9697,-3.9697,0.0,0.0,-3.9697,-3.9697,-3.9697,-3.9697,-3.9697,-3.9697,-3.9697,-3.9697,-3.9697,-3.9685,-3.9584,-3.9195,-3.8705,-3.8705,-3.8341,-3.7789,-3.7337,-3.7111,-3.6948,-3.6556,-3.6534,-3.6769,-3.7015,-3.7618,0.0,-3.8934,-3.9773,-4.0689,-4.1383,-4.1547,-4.1588,-4.1897,-4.1175,-4.0367,-4.0232,-3.9798,-3.9388,-3.9388,-3.9388,-3.9388,-3.9388,-3.9388,-3.9388,-3.9388,-3.9305,-3.923,-3.923,-3.8616,-3.8153,-3.8033,-3.7539,-3.6985,-3.6357,-3.6297,-3.6073,-3.5534,-3.5504,-3.5444,-3.531,-3.531,-3.525,-3.5115,-3.5672,-3.6024,-3.6187,-3.7044,-3.7721,-3.8197,-3.7642,-3.8084,0.0,0.0,0.0,0.0,0.0,0.0,0.0,0.0,0.0,0.0,0.0,-2.6302,-2.7118,0.0,-2.9817,-3.121,-3.2365,-3.337,-3.4198,-3.4981,-3.5596,-3.5918,-3.6445,-3.7123,-3.7952,-3.8592,-3.8981,-3.927,-3.9534,-3.9697,-3.9697,-3.9697,-3.9697,-3.9697,-3.9961,-4.0111,-4.0111,-4.0111,-4.0111,-4.0111,-3.9823,-3.9697,-3.9697,-3.9697,-3.9697,-3.9697,-3.9697,-3.9697,-3.9697,-3.9697,-3.9697,-3.9697,-3.9697,-3.9534,-3.9283,-3.9283,-3.8931,-3.8391,-3.8128,-3.7663,-3.7136,-3.6908,-3.6868,-3.6922,-3.7062,-3.771,-3.8544,-3.9127,-3.9996,-4.0901,-4.1784,-4.2099,-4.2248,-4.2354,-4.1901,-4.1205,-4.0546,-4.0142,-3.9813,-3.9484,-3.9388,-3.9388,-3.9388,-3.9388,-3.9388,-3.9388,-3.9388,-3.9388,-3.9388,-3.9125,-3.8766,-3.8422,-3.8093,-3.7644,-3.7,-3.6656,-3.6357,-3.6013,-3.5684,-3.5504,-3.5504,-3.5818,-3.5998,-3.5998,-3.6626,-3.7042,-3.7176,-3.7694,-3.833,-3.9084,-3.9015,-3.9494,0.0,0.0,0.0,0.0,0.0,0.0,0.0,0.0,-2.5285,-2.5812,-2.6904,-2.8047,-2.8938,-2.9829,-3.1009,-3.2792,-3.3345,-3.4022,-3.5307,-3.5683,-3.6069,-3.6621,-3.7073,-3.7739,-3.8818,-3.8969,-3.922,-3.9659,-3.9697,-3.9697,-3.9697,-3.9697,-3.9747,-3.9848,-4.0287,-4.0563,-4.0676,-4.0676,-4.0626,-4.0513,-4.0061,-3.9798,-3.9697,-3.9697,-3.9697,-3.9697,-3.9697,-3.9697,-3.9697,-3.9697,-3.9697,-3.9697,-3.9697,-3.9697,-3.9697,-3.9697,-3.9421,-3.9019,-3.8957,-3.8203,-3.7324,-3.7211,-3.7143,-3.7108,-3.7108,-3.7802,-3.8692,-3.9172,-3.9996,-4.0901,-4.1784,-4.2348,-4.2676,-4.2593,-4.25,-4.2111,-4.101,-4.0576,-4.0247,-3.9709,-3.9514,-3.9388,-3.9388,-3.9388,-3.9388,-3.9388,-3.9388,-3.9388,-3.9388,-3.9388,-3.92,-3.8646,-3.8586,-3.8317,-3.7659,-3.703,-3.6671,-3.6671,-3.6163,-3.5878,-3.5878,-3.6387,-3.6671,-3.6671,-3.7285,-3.7683,-3.7835,-3.8004,-3.8611,-3.9622,-4.007,-4.0795,-2.0415,-2.1192,-2.2196,-2.2844,-2.3396,-2.4092,0.0,0.0,-2.6474,-2.7014,-2.8386,-2.9553,-2.9679,-3.1348,-3.2792,-3.3074,-3.4311,-3.5282,-3.547,-3.6383,-3.7199,-3.7764,-3.7877,-3.8165,-3.8856,-3.932,-3.9634,-3.9685,-3.9697,-3.9697,-3.9697,-3.9697,-3.9923,-4.0413,-4.0488,-4.0752,-4.1188,-4.12,-4.0949,-4.0513,-4.045,-4.0174,-3.9697,-3.9697,-3.9697,-3.9697,-3.9697,-3.9697,-3.9697,-3.9697,-3.9697,-3.9697,-3.9697,-3.9697,-3.9697,-3.9697,-3.9647,-3.9534,-3.9095,-3.8454,-3.7839,-3.7337,-3.7143,-3.7108,-3.7108,-3.7802,-3.8692,-3.9172,-3.9996,-4.0901,-4.1784,-4.2348,-4.2795,-4.3121,-4.2776,-4.2366,-4.2216,-4.122,-4.0382,-4.0307,-3.9828,-3.9388,-3.9388,-3.9388,-3.9388,-3.9388,-3.9388,-3.9388,-3.9388,-3.9388,-3.9394,-3.932,-3.9305,-3.9035,-3.8347,-3.7689,-3.73,-3.73,-3.724,-3.7195,-3.7195,-3.727,-3.73,-3.73,-3.7943,-3.8322,-3.8322,-3.9098,-3.9657,-3.9975,-4.0892,-4.1919,-2.1845,-2.2686,-2.3577,-2.477,-2.528,-2.5745,-2.6804,-2.7494,-2.7959,-2.8197,-2.9327,-3.0369,-3.067,-3.2014,-3.3282,0.0,-3.4843,-3.5721,-3.6408,-3.6897,-3.7513,-3.8404,-3.8504,-3.873,-3.9295,-3.9559,-3.9697,-3.9697,-3.9697,-3.9697,-3.9697,-3.9998,-4.0291,-4.0485,-4.1147,-4.1609,-4.1839,-4.1835,-4.1693,-4.1467,-4.0827,-4.0388,-4.0162,-3.9835,-3.9697,-3.9697,-3.9697,-3.9697,-3.9697,-3.9697,-3.9697,-3.9697,-3.9697,-3.9697,-3.9697,-3.9697,-3.9697,-3.9659,-3.9433,-3.8981,-3.8417,-3.7852,-3.7625,-3.7544,-3.7364,-3.8031,-3.8877,-3.9513,-4.0286,-4.11,-4.1993,-4.2485,-4.2809,-4.321,-4.3135,-4.2821,-4.2485,-4.1976,-4.1309,-4.0546,-4.0172,-3.9873,-3.9484,-3.9388,-3.9388,-3.9388,-3.9388,-3.9388,-3.9388,-3.9388,-3.9388,-3.9388,-3.9388,-3.9305,-3.902,-3.8377,-3.7973,-3.7973,-3.7629,-3.7404,-3.7404,-3.7778,-3.7973,-3.7973,-3.8646,-3.899,-3.899,-3.9346,-3.9625,-3.9854,-4.0914,-4.2038,-2.3158,-2.413,-2.4971,-2.6197,-2.6725,-2.719,-2.8109,-2.8599,-2.8938,-2.9101,-3.0055,-3.0947,-3.1323,-3.2566,-3.3796,-3.4587,-3.5316,-3.6094,-3.7048,-3.7312,-3.7776,-3.8806,-3.9057,-3.9258,-3.9647,-3.9697,-3.9697,-3.9697,-3.9697,-3.9697,-3.9697,-4.0224,-4.0581,-4.0702,-4.1692,-4.225,-4.2435,-4.2401,-4.2363,-4.22,-4.1191,-4.0664,-4.0501,-3.9948,-3.9697,-3.9697,-3.9697,-3.9697,-3.9697,-3.9697,-3.9697,-3.9697,-3.9697,-3.9697,-3.9697,-3.9697,-3.9697,-3.9697,-3.9697,-3.9333,-3.8781,-3.8203,-3.7967,-3.7851,-3.758,-3.8167,-3.9042,-3.9777,-4.0559,-4.1311,-4.2187,-4.2581,-4.289,-4.321,-4.329,-4.317,-4.2731,-4.253,-4.2111,-4.113,-4.0786,-4.0457,-3.9798,-3.9694,-3.9634,-3.9454,-3.9388,-3.9388,-3.9388,-3.9388,-3.9388,-3.9388,-3.9388,-3.9388,-3.9388,-3.896,-3.8676,-3.8676,-3.8227,-3.7958,-3.7958,-3.8422,-3.8676,-3.8676,-3.917,-3.9388,-3.9388,-3.9388,-3.9622,-4.0004,-4.1024,-4.2202,-2.4424,-2.5561,-2.6436,-2.6487,-2.7268,-2.821,-2.8737,-2.8888,-2.9089,-2.9654,-3.062,-3.1373,-3.1386,-3.3194,-3.4675,-3.4668,-3.5629,-3.6581,-3.7098,-3.7651,-3.8203,-3.8856,-3.9346,-3.9672,-3.9697,-3.9697,-3.9697,-3.9697,-3.9697,-3.9697,-3.9697,-4.0224,-4.0764,-4.1279,-4.1856,-4.2464,-4.2992,-4.2949,-4.274,-4.22,-4.158,-4.0974,-4.0501,-3.9948,-3.9697,-3.9697,-3.9697,-3.9697,-3.9697,-3.9697,-3.9697,-3.9697,-3.9697,-3.9697,-3.9697,-3.9697,-3.9697,-3.9697,-3.9697,-3.9333,-3.8781,-3.8203,-3.7967,-3.7851,-3.758,-3.8167,-3.9042,-3.9777,-4.0659,-4.1564,-4.2228,-4.2688,-4.3036,-4.325,-4.329,-4.329,-4.3275,-4.2806,-4.2396,-4.2351,-4.1826,-4.1145,-4.0487,-4.0367,-4.0157,-3.9514,-3.9388,-3.9388,-3.9388,-3.9388,-3.9388,-3.9388,-3.9388,-3.9388,-3.9388,-3.9394,-3.9394,-3.9394,-3.9328,-3.9328,-3.9328,-3.9379,-3.9394,-3.9394,-3.9373,-3.9388,-3.9388,-3.9388,-3.9847,-4.0697,-4.1561,-4.2637,-2.5699,-2.6487,-2.718,-2.7908,-2.8373,-2.8762,-2.9365,-2.9503,-2.9553,-2.9754,-3.0369,-3.0984,-3.1323,-3.2616,-3.3872,-3.4555,-3.5341,-3.627,-3.755,-3.7889,-3.8354,-3.9308,-3.9584,-3.9697,-3.9697,-3.9697,0.0,-3.9697,-3.9697,-3.9848,-4.0224,-4.0764,-4.1291,-4.1877,-4.2439,-4.2841,-4.2974,-4.2974,-4.2886,-4.274,-4.1781,-4.0818,-3.9972,-3.9782,-3.9697,-3.9697,-3.9697,-3.9697,-3.9697,-3.9697,-3.9697,-3.9697,-3.9697,-3.9697,-3.9697,-3.9697,-3.9697,-3.9697,-3.9697,-3.9572,-3.9258,-3.8316,-3.8246,-3.8399,-3.7857,-3.8381,-3.9336,-4.0213,-4.0986,-4.1744,-4.2418,-4.2809,-4.3036,-4.325,-4.329,-4.329,-4.329,-4.3125,-4.288,-4.2485,-4.2216,-4.1856,-4.116,-4.0681,-4.0172,-3.9514,-3.9388,-3.9388,-3.9388,-3.9388,-3.9388,-3.9388,-3.9388,-3.9388,-3.9388,-3.9388,-3.9388,-3.9388,-3.9388,-3.9388,-3.9388,-3.9388,-3.9388,-3.9388,-3.9388,-3.9388,-3.9388,-3.9858,-4.0224,-4.0537,-4.1987,-4.2962,-2.6637,-2.7341,-2.8047,-2.8712,-2.9051,-2.934,-2.9704,-2.9792,-2.9792,-2.9792,-3.0231,-3.0771,-3.1298,-3.2315,-3.3432,-3.455,-3.5144,-3.6072,-3.7776,-3.8002,-3.8429,-3.9559,-3.9697,-3.9697,-3.9697,-3.9697,0.0,-3.9697,-3.9697,-3.9936,-4.0488,-4.0987,-4.1568,-4.2208,-4.2715,-4.2974,-4.2974,-4.2974,-4.2873,-4.2728,-4.1769,-4.0818,-3.9972,-3.9782,-3.9697,-3.9697,-3.9697,-3.9697,-3.9697,-3.9697,-3.9697,-3.9697,-3.9697,-3.9697,-3.9697,-3.9697,-3.9697,-3.9697,-3.9697,-3.9697,-3.9546,-3.8718,-3.8636,-3.8743,-3.8389,-3.8735,-3.9526,-4.043,-4.1226,-4.1937,-4.2526,-4.289,-4.3155,-4.325,-4.329,-4.329,-4.329,-4.329,-4.317,-4.2791,-4.2701,-4.2506,-4.1886,-4.119,-4.0531,-3.9873,-3.9768,-3.9694,-3.9454,-3.9388,-3.9388,-3.9388,-3.9388,-3.9388,-3.9388,-3.9388,-3.9388,-3.9388,-3.9388,-3.9388,-3.9388,-3.9388,-3.9388,-3.9388,-3.9388,-3.9529,-3.9768,-4.0187,-4.0651,-4.1153,-4.2327,-4.316,-2.7253,-2.8134,-2.89,-2.8925,-2.939,-2.9792,-2.9792,-2.9792,-2.9792,-2.9792,-3.0206,-3.0733,-3.1248,-3.2252,-3.3357,-3.45,-3.5094,-3.6047,-3.7764,-3.8002,-3.8429,0.0,0.0,0.0,-3.9697,0.0,0.0,-3.9735,0.0,-3.9973,-4.0526,-4.1025,-4.163,-4.2238,-4.2698,-4.2974,-4.2974,-4.2974,-4.2753,-4.22,-4.1605,-4.1,-4.0501,-3.9948,-3.9697,-3.9697,-3.9697,-3.9697,-3.9697,-3.9697,-3.9697,-3.9697,-3.9697,-3.9697,-3.9697,-3.9697,-3.9697,-3.9697,-3.9697,-3.9697,-3.9661,-3.9373,-3.9052,-3.882,-3.9061,-3.9192,-3.9526,-4.043,-4.1353,-4.2114,-4.2566,-4.301,-4.329,-4.329,-4.329,-4.329,-4.329,-4.329,-4.329,-4.329,-4.329,-4.3135,-4.2515,-4.1886,-4.1205,-4.0546,-4.0427,-4.0172,-3.9514,-3.9388,-3.9388,-3.9388,-3.9388,-3.9388,-3.9388,-3.9388,-3.9388,-3.9388,-3.9388,-3.9388,-3.9388,-3.9388,-3.9388,-3.9388,-3.9388,-3.9738,-4.0397,-4.0427,-4.1115,-4.241,-4.2649,-4.3304,-2.836,-2.8675,-2.9001,-2.9465,-2.9679,-2.9792,-2.9792,-2.9792,-2.9792,-2.9792,-2.9905,-3.0168,-3.0721,-3.1373,0.0,-3.3859,-3.4575,0.0,-3.7713,-3.8002,0.0,-3.9559,0.0,-3.9697,-3.9697,-3.9697,0.0,0.0,-4.0312,-4.0551,-4.105,-4.1643,-4.2195,-4.2803,-4.2898,-4.2974,-4.2974,-4.2974,-4.2753,-4.22,-4.1605,-4.1,-4.0501,-3.9948,-3.9697,-3.9697,-3.9697,-3.9697,-3.9697,-3.9697,-3.9697,-3.9697,-3.9697,-3.9697,-3.9697,-3.9697,-3.9697,-3.9697,-3.9697,-3.9697,-3.9661,-3.9373,-3.9052,-3.882,-3.9061,-3.9192,-3.9526,-4.043,-4.1353,-4.2114,-4.2566,-4.301,-4.329,-4.329,-4.329,-4.329,-4.329,-4.329,-4.329,-4.329,-4.329,-4.3135,-4.2515,-4.2261,-4.1931,-4.1235,-4.0711,-4.0172,-3.9514,-3.9388,-3.9388,-3.9388,-3.9388,-3.9388,-3.9388,-3.9388,-3.9388,-3.9388,-3.9388,-3.9388,-3.9388,-3.9388,-3.9388,-3.9388,-3.9388,-3.9738,-4.0397,-4.0891,-4.1587,-4.241,-4.3115,-4.3603,-2.8813,-2.9076,-2.939,-2.9716,-2.9792,-2.9792,-2.9792,-2.9591,-2.9415,-2.9415,-2.9415,-2.9591,-3.0156,-3.0871,-3.1863,0.0,0.0,0.0,-3.7048,-3.7701,-3.8341,0.0,-3.9546,0.0,-3.9697,-3.991,-4.0187,0.0,-4.0513,-4.0865,-4.1656,-4.2049,-4.2464,-4.2961,-4.2974,-4.2974,-4.2974,-4.2974,-4.2753,-4.22,-4.1605,-4.1,-4.0501,-3.9948,-3.9697,-3.9697,0.0,-3.9697,-3.9697,-3.9697,-3.9697,-3.9697,-3.9697,-3.9697,-3.9697,-3.9697,-3.9697,-3.9697,-3.9697,-3.9788,-3.9891,-3.9842,-3.9608,-3.9375,-3.9698,-3.99,-4.012,-4.0672,-4.1479,-4.2266,-4.2607,-4.301,-4.329,-4.329,-4.329,-4.329,-4.329,-4.329,-4.329,-4.329,-4.329,-4.317,-4.2851,-4.2776,-4.2566,-4.1946,-4.1527,-4.092,-3.9963,-3.9568,-3.9388,-3.9388,-3.9388,-3.9388,-3.9388,-3.9388,-3.9388,-3.9388,-3.9388,-3.9388,-3.9388,-3.9388,-3.9388,-3.9388,-3.9709,-4.0172,-4.0831,-4.1527,-4.2186,-4.2806,-4.3298,-4.3596,-2.9101,-2.9465,-2.9817,-2.988,-2.9842,-2.9779,-2.9691,-2.9289,-2.8863,-2.88,-2.8787,-2.9001,-2.9566,-3.0495,-3.1562,-3.2767,0.0,-3.5027,-3.6241,-3.7312,-3.8216,-3.8856,-3.9358,-3.9697,-3.9697,-4.0199,-4.0551,-4.0626,-4.0689,-4.1153,-4.2162,-4.2275,-4.2539,-4.2961,-4.2974,-4.2974,-4.2974,-4.2898,-4.2597,-4.2087,-4.1492,-4.0887,-4.0388,-3.991,-3.9697,-3.9697,-3.9697,0.0,-3.9697,-3.9697,-3.9697,-3.9697,-3.9697,-3.9697,-3.9697,-3.9697,-3.9697,-3.9697,-3.9697,-3.989,-4.0134,-4.0402,-4.032,-4.0122,-4.0554,-4.0786,-4.0902,-4.1014,-4.1688,-4.2474,-4.2688,-4.301,-4.329,-4.329,-4.329,-4.329,-4.329,-4.329,-4.329,-4.329,-4.329,-4.329,-4.329,-4.329,-4.3135,-4.262,-4.2455,-4.1991,-4.0816,-4.0008,-3.9514,-3.9388,-3.9388,-3.9388,-3.9388,-3.9388,-3.9388,-3.9388,-3.9388,-3.9388,-3.9388,-3.9388,-3.9454,-3.9544,-4.0113,-4.0771,-4.1504,-4.2126,-4.2701,-4.329,-4.329,-4.3423,-3.0193,-3.0068,-2.9905,-3.0357,-3.0131,-2.9666,-2.9189,-2.8963,0.0,0.0,-2.8247,-2.8423,-2.8976,-2.9628,-3.057,-3.2114,-3.3307,-3.4587,-3.6191,-3.7312,-3.8216,0.0,-3.9358,-3.9697,-3.9697,-4.0199,0.0,0.0,-4.1618,-4.2011,-4.22,-4.264,-4.2873,-4.2974,-4.2974,-4.2974,-4.2974,-4.2577,-4.202,-4.148,-4.0927,-4.0375,-3.9835,-3.9735,-3.9697,-3.9697,-3.9697,0.0,-3.9697,-3.9697,-3.9697,-3.9697,-3.9697,-3.9697,-3.9697,-3.9697,-3.9697,-3.9697,-3.9697,-3.989,-4.0134,-4.0402,-4.0408,-4.0366,-4.0649,-4.0786,-4.0947,-4.1256,-4.1856,-4.2459,-4.2835,-4.3115,-4.329,-4.329,-4.329,-4.329,-4.329,-4.329,-4.329,-4.329,-4.329,-4.329,-4.329,-4.329,-4.3245,-4.314,-4.2701,-4.2321,-4.2096,-4.0965,-4.0023,-3.9448,-3.9388,-3.9388,-3.9388,-3.9388,-3.9388,-3.9388,-3.9388,-3.9388,-3.9388,-3.9388,-3.9679,-4.0217,-4.0337,-4.0995,-4.2231,-4.2336,-4.2701,-4.329,-4.329,-4.3329,-3.047,-3.0218,-2.993,-3.0482,-3.0206,-2.9641,-2.9026,0.0,0.0,0.0,-2.767,-2.7758,-2.8021,-2.9013,-3.0143,-3.121,-3.2554,-3.3947,-3.5316,-3.6458,-3.7462,-3.8316,-3.8919,-3.9383,-3.9672,-4.045,-4.1,-4.1263,-4.2108,-4.264,-4.264,-4.2836,-4.2974,-4.2974,-4.2974,-4.2891,-4.2602,-4.2338,-4.1731,-4.0862,-4.0639,-4.0224,-3.9697,-3.9697,-3.9697,-3.9697,-3.9697,0.0,-3.9697,-3.9697,-3.9697,-3.9697,-3.9697,-3.9697,-3.9697,-3.9697,-3.9697,-3.9749,-3.9839,-4.0083,-4.0402,-4.0757,-4.1052,-4.1338,-4.1659,-4.1801,-4.1966,-4.2167,-4.2393,-4.2607,-4.2915,-4.3155,-4.329,-4.329,-4.329,-4.329,-4.329,-4.329,-4.329,-4.329,-4.329,-4.329,-4.329,-4.329,-4.329,-4.329,-4.306,-4.2746,-4.244,-4.1504,-4.0651,-3.9993,-3.9634,-3.9388,-3.9388,-3.9388,-3.9388,-3.9388,-3.9388,-3.9574,-3.9918,-3.9933,-4.0247,-4.0905,-4.125,-4.1767,-4.2396,-4.2701,-4.303,-4.329,-4.329,-4.329,-3.047,-3.0218,-2.993,-3.0482,-3.0206,-2.9616,-2.8875,-2.8411,0.0,-2.7278,-2.714,-2.7178,-2.7291,-2.8461,-2.9654,0.0,-3.1813,-3.3282,-3.4399,-3.5604,-3.6772,-3.7877,-3.8517,0.0,-3.9634,-4.0689,0.0,-4.1288,-4.2246,-4.2848,-4.2974,-4.2974,-4.2924,-4.2798,-4.2798,-4.2534,-4.2037,-4.1911,-4.1367,-4.0513,-4.0388,-4.0111,-3.9697,-3.9697,-3.9697,-3.9697,-3.9697,0.0,0.0,-3.9697,-3.9697,-3.9697,-3.9697,-3.9697,-3.9697,-3.9697,-3.9736,-3.9839,-4.0032,-4.0338,-4.0757,-4.1311,-4.1796,-4.2266,-4.26,-4.2793,-4.289,-4.3039,-4.2943,-4.2809,-4.2996,-4.317,-4.329,-4.329,-4.329,-4.329,-4.329,-4.329,-4.329,-4.329,-4.329,-4.329,-4.329,-4.329,-4.329,-4.329,-4.329,-4.315,-4.2626,-4.1901,-4.119,-4.0666,-3.9903,-3.9388,-3.9388,-3.9388,-3.9388,-3.9388,-3.9388,-3.9709,-4.0367,-4.0397,-4.0771,-4.1617,-4.2141,-4.247,-4.2605,-4.309,-4.329,-4.329,-4.329,-4.329,-3.047,-3.0218,-2.993,-3.0482,-3.0206,-2.9503,-2.8423,0.0,-2.7808,-2.6788,-2.6562,-2.6725,-2.7228,-2.7821,-2.8612,-2.9691,0.0,-3.2692,-3.3809,-3.5378,-3.681,-3.7877,0.0,0.0,-3.9634,-4.0689,-4.1288,-4.1288,-4.1894,-4.2502,-4.2949,-4.2974,-4.2803,-4.2301,-4.2288,-4.1969,-4.1363,-4.0915,-4.0614,-4.0513,-4.0011,-3.9747,-3.9697,-3.9697,-3.9697,-3.9697,-3.9697,0.0,0.0,-3.9697,-3.9697,-3.9697,-3.9697,-3.9697,-3.9697,-3.9697,-3.9839,-4.0083,-4.007,-4.0593,-4.1311,-4.1845,-4.2239,-4.2474,-4.2661,-4.2929,-4.3168,-4.3236,-4.3119,-4.3036,-4.321,-4.329,-4.329,-4.329,-4.329,-4.329,-4.329,-4.329,-4.329,-4.329,-4.329,-4.329,-4.329,-4.329,-4.329,-4.329,-4.329,-4.3275,-4.32,-4.2147,-4.1392,-4.1294,-4.0172,-3.9388,-3.9388,-3.9388,-3.9388,-3.9388,-3.9388,-3.9709,-4.0367,-4.0397,-4.0995,-4.2291,-4.2366,-4.2656,-4.32,-4.326,-4.329,-4.329,-4.329,-4.329,-3.0369,-3.0218,-2.993,-3.0482,-3.0206,-2.9503,-2.836,-2.8109,-2.7795,-2.6725,-2.6499,-2.6562,-2.6788,-2.7507,-2.836,-2.9151,-3.0645,-3.2227,-3.3696,-3.4763,-3.6044,-3.7801,-3.8216,0.0,0.0,0.0,-4.0924,-4.1263,-4.1543,0.0,-4.1982,-4.1995,-4.1894,-4.1681,-4.1668,-4.1404,-4.0852,-4.0626,-4.035,-4.0023,-3.9798,-3.9697,-3.9697,-3.9697,-3.9697,-3.9697,-3.9697,0.0,0.0,-3.9697,-3.9697,-3.9697,-3.9697,-3.9697,-3.9697,-3.9697,-3.989,-4.0121,-4.0478,-4.0997,-4.1696,-4.2506,-4.3039,-4.3477,-4.3981,-4.3904,-4.3719,-4.4183,-4.369,-4.3036,-4.325,-4.329,-4.329,-4.329,-4.329,-4.329,-4.329,-4.329,-4.329,-4.329,-4.329,-4.329,-4.329,-4.329,-4.329,-4.329,-4.329,-4.329,-4.329,-4.2192,-4.1422,-4.1422,-4.0202,-3.9388,-3.9388,-3.9388,-3.9388,-3.9388,-3.9783,-4.0307,-4.0965,-4.1407,-4.2013,-4.2925,-4.294,-4.3075,-4.329,-4.329,-4.329,-4.329,-4.329,-4.329,-2.9866,-2.9955,-2.988,-3.0281,-2.9955,-2.9277,-2.8323,-2.7984,-2.7595,-2.6688,-2.6499,-2.6499,-2.6499,-2.7369,-2.8235,0.0,-3.0206,-3.1863,-3.3206,-3.4161,-3.5416,-3.7299,0.0,-3.8391,0.0,-4.0099,-4.0752,-4.125,-4.1137,0.0,-4.1037,-4.0887,-4.0874,-4.1037,-4.1037,-4.0827,-4.0275,-4.0275,-4.0074,-3.9697,-3.9697,-3.9697,-3.9697,-3.9697,-3.9697,-3.9697,-3.9697,0.0,0.0,-3.9697,-3.9697,-3.9697,-3.9697,-3.9697,-3.9697,-3.9788,-3.9981,-4.0287,-4.0846,-4.1448,-4.2092,-4.3039,-4.379,-4.4448,-4.5201,-4.4774,-4.4151,-4.4803,-4.4061,-4.3115,-4.325,-4.329,-4.329,-4.329,-4.329,-4.329,-4.329,-4.329,-4.329,-4.329,-4.329,-4.329,-4.329,-4.329,-4.329,-4.329,-4.329,-4.329,-4.329,-4.2192,-4.1422,-4.1422,-4.0202,-3.9388,-3.9388,-3.9388,-3.9388,-3.9388,-4.0038,-4.0696,-4.1354,-4.2051,-4.2671,-4.329,-4.329,-4.329,-4.329,-4.329,-4.329,-4.329,-4.329,-4.329,-2.89,-2.9365,-2.9792,-2.9804,-2.9365,-2.875,-2.8235,-2.7682,-2.7165,-2.6612,-2.6499,-2.6499,-2.6499,-2.7369,-2.8109,-2.8109,-2.9955,-3.1587,-3.2152,-3.3671,-3.514,0.0,0.0,-3.8241,-3.8869,-3.9873,-4.0752,-4.125,0.0,0.0,-4.0526,-4.0011,-3.9961,-4.0513,-4.0526,-4.0262,-3.971,-3.9697,-3.9697,-3.9697,-3.9697,-3.9697,-3.9697,-3.9697,-3.9697,-3.9697,0.0,0.0,0.0,-3.9697,-3.9697,-3.9697,-3.9697,-3.9697,-3.9749,-3.9981,-4.0287,-4.0555,-4.111,-4.1809,-4.2595,-4.3375,-4.4261,-4.5216,-4.5941,-4.5245,-4.4292,-4.4845,-4.4199,-4.329,-4.329,-4.329,-4.329,-4.329,-4.329,-4.329,-4.329,-4.329,-4.329,-4.329,-4.329,-4.329,-4.329,-4.329,-4.329,-4.329,-4.329,-4.329,-4.329,-4.2192,-4.1422,-4.1422,-4.0202,-3.9388,-3.9388,-3.9388,-3.9388,-3.9388,-4.0038,-4.0696,-4.1354,-4.2051,-4.2671,-4.329,-4.329,-4.329,-4.329,-4.329,-4.329,-4.329,-4.329,-4.329,-2.826,-2.8499,-2.8637,-2.8637,-2.8499,-2.8222,-2.767,-2.7406,-2.7165,-2.6612,-2.6499,-2.6612,-2.6989,-2.7607,-2.8235,-2.8612,-3.0193,0.0,0.0,0.0,0.0,-3.7262,-3.8479,-3.9233,0.0,0.0,-4.0023,0.0,0.0,0.0,-3.9961,-3.9785,-3.9772,-3.9948,-3.9961,-3.9873,-3.9697,-3.9697,-3.9697,-3.9697,-3.9697,-3.9697,-3.9697,-3.9697,-3.9697,0.0,0.0,0.0,0.0,-3.9697,-3.9697,-3.9697,-3.9697,-3.9697,-3.9749,-3.9981,-4.0389,-4.0896,-4.1597,-4.2457,-4.3375,-4.4148,-4.5,-4.573,-4.6328,-4.5666,-4.461,-4.4009,-4.3578,-4.329,-4.329,-4.329,-4.329,-4.329,-4.329,-4.329,-4.329,-4.329,-4.329,-4.329,-4.329,-4.329,-4.329,-4.329,-4.329,-4.329,-4.329,-4.329,-4.329,-4.2581,-4.1916,-4.1467,-4.0606,-3.9903,-3.9454,-3.9388,-3.9619,-4.0053,-4.0711,-4.1369,-4.2066,-4.2686,-4.312,-4.329,-4.329,-4.329,-4.329,-4.329,-4.329,-4.329,-4.329,-4.329,-2.7582,-2.7946,-2.8109,-2.8109,-2.7946,-2.7708,-2.7369,-2.7153,-2.6901,-2.6562,-2.6499,-2.6663,-2.718,-2.7733,-2.836,-2.9139,-3.0457,0.0,0.0,0.0,0.0,-3.7751,0.0,0.0,0.0,-3.9697,0.0,0.0,0.0,0.0,-3.9697,-3.9697,-3.9697,-3.9697,-3.9697,-3.9697,-3.9697,-3.9697,-3.9697,-3.9697,-3.9697,-3.9697,-3.9697,-3.9697,-3.9697,0.0,0.0,0.0,0.0,-3.9697,-3.9697,-3.9697,-3.9697,-3.9736,-3.989,-4.0134,-4.0593,-4.1147,-4.1993,-4.2846,-4.3743,-4.463,-4.5549,-4.627,-4.6121,-4.5624,-4.487,-4.3623,-4.329,-4.329,-4.329,-4.329,-4.329,-4.329,-4.329,-4.329,-4.329,-4.329,-4.329,-4.329,-4.329,-4.329,-4.329,-4.329,-4.329,-4.329,-4.329,-4.329,-4.329,-4.2761,-4.2246,-4.1826,-4.116,-4.0606,-4.0187,-3.9933,-3.9963,-4.0367,-4.1287,-4.1976,-4.2381,-4.2985,-4.329,-4.329,-4.329,-4.329,-4.329,-4.329,-4.329,-4.329,-4.329,-4.329,0.0,-2.757,-2.7996,-2.7996,-2.7607,-2.7218,-2.7218,-2.6864,0.0,-2.6499,-2.6524,-2.6725,-2.7278,-2.7795,-2.8536,-2.9666,-3.0746,0.0,0.0,-3.4186,0.0,0.0,-3.8555,0.0,-3.9647,-3.9697,0.0,0.0,0.0,0.0,-3.9697,-3.9697,-3.9697,-3.9697,-3.9697,-3.9697,-3.9697,-3.9697,-3.9697,-3.9697,-3.9697,-3.9697,-3.9697,-3.9697,-3.9697,0.0,0.0,0.0,0.0,-3.9697,-3.9697,-3.9697,-3.9749,-3.989,-4.0134,-4.0453,-4.0909,-4.1461,-4.2302,-4.3053,-4.3837,-4.4879,-4.5972,-4.6722,-4.5609,-4.5289,-4.502,-4.3663,-4.329,-4.329,-4.329,-4.329,-4.329,-4.329,-4.329,-4.329,-4.329,-4.329,-4.329,-4.329,-4.329,-4.329,-4.329,-4.329,-4.329,-4.329,-4.329,-4.329,-4.329,-4.2806,-4.2455,-4.2396,-4.1856,-4.1467,-4.1422,-4.0816,-4.0487,-4.0531,-4.1722,-4.2425,-4.247,-4.3015,-4.329,-4.329,-4.329,-4.329,-4.329,-4.329,-4.329,-4.329,-4.329,-4.329,-2.5925,0.0,-2.6889,-2.6889,-2.6788,-2.6688,0.0,-2.6587,-2.6499,-2.6499,0.0,-2.7291,-2.7808,-2.836,-2.9101,-3.0244,0.0,0.0,-3.3545,0.0,0.0,-3.7952,-3.8881,-3.9546,-3.9685,0.0,0.0,0.0,0.0,-3.9697,-3.9697,-3.9697,-3.9697,-3.9697,-3.9697,-3.9697,-3.9697,-3.9697,-3.9697,-3.9697,-3.9697,-3.9697,-3.9697,-3.9697,-3.9697,0.0,0.0,0.0,-3.9697,-3.9697,-3.9697,-3.9749,-3.9929,-4.0032,-4.0173,-4.0858,-4.1448,-4.2029,-4.2991,-4.3865,-4.4723,-4.5866,-4.6521,-4.6722,-4.5609,-4.5289,-4.502,-4.3663,-4.329,-4.329,-4.329,-4.329,-4.329,-4.329,-4.329,-4.329,-4.329,-4.329,-4.329,-4.329,-4.329,-4.329,-4.329,-4.329,-4.329,-4.329,-4.329,-4.329,-4.329,-4.317,-4.291,-4.2455,-4.2261,-4.1976,-4.1452,-4.1272,-4.1369,-4.1916,-4.2231,-4.262,-4.309,-4.32,-4.329,-4.329,-4.329,-4.329,-4.329,-4.329,-4.329,-4.329,-4.329,-4.329,-2.5523,-2.6047,-2.6499,-2.6499,-2.6499,-2.6562,-2.6813,0.0,0.0,0.0,0.0,-2.7821,-2.8386,-2.895,-2.9691,0.0,-3.1888,0.0,0.0,0.0,-3.8103,-3.8366,-3.917,-3.9697,0.0,0.0,0.0,0.0,0.0,-3.9697,-3.9697,-3.9697,-3.9697,-3.9697,-3.9697,-3.9697,-3.9697,-3.9697,-3.9697,-3.9697,-3.9697,-3.9697,-3.9697,-3.9697,-3.9697,0.0,0.0,0.0,-3.9697,-3.9697,-3.9788,-3.989,-4.0032,-4.0338,-4.0744,-4.1261,-4.198,-4.2701,-4.3505,-4.4509,-4.5595,-4.6447,-4.6887,-4.6867,-4.5651,-4.5289,-4.502,-4.3663,-4.329,-4.329,-4.329,-4.329,-4.329,-4.329,-4.329,-4.329,-4.329,-4.329,-4.329,-4.329,-4.329,-4.329,-4.329,-4.329,-4.329,-4.329,-4.329,-4.329,-4.329,-4.329,-4.3155,-4.2851,-4.2806,-4.2671,-4.2297,-4.2282,-4.2297,-4.2396,-4.2641,-4.297,-4.329,-4.329,-4.329,-4.329,-4.329,-4.329,-4.329,-4.329,-4.329,-4.329,-4.329,-4.329,-2.536,-2.5996,-2.6512,-2.66,-2.6612,-2.6763,-2.7281,0.0,0.0,0.0,0.0,0.0,0.0,-2.9528,0.0,0.0,0.0,0.0,-3.6241,-3.7362,-3.8216,-3.8856,-3.9358,0.0,0.0,0.0,0.0,0.0,0.0,-3.9697,-3.9697,-3.9697,-3.9697,-3.9697,-3.9697,-3.9697,-3.9697,-3.9697,-3.9697,-3.9697,-3.9697,-3.9697,-3.9697,-3.9697,-3.9697,-3.9697,0.0,0.0,-3.9697,-3.9736,-3.989,-4.0121,-4.0236,-4.0744,-4.1411,-4.1796,-4.2506,-4.341,-4.4073,-4.5187,-4.6388,-4.6785,-4.7062,-4.7055,-4.5708,-4.5289,-4.502,-4.3663,-4.329,-4.329,-4.329,-4.329,-4.329,-4.329,-4.329,-4.329,-4.329,-4.329,-4.329,-4.329,-4.329,-4.329,-4.329,-4.329,-4.329,-4.329,-4.329,-4.329,-4.329,-4.329,-4.329,-4.329,-4.329,-4.329,-4.329,-4.329,-4.309,-4.259,-4.303,-4.329,-4.329,-4.329,-4.329,-4.329,-4.329,-4.329,-4.329,-4.329,-4.329,-4.329,-4.329,-4.329,-2.4888,-2.5686,-2.6612,-2.7065,-2.719,-2.7341,-2.7846,0.0,0.0,0.0,0.0,0.0,0.0,-3.0118,-3.0997,0.0,0.0,-3.5617,0.0,0.0,-3.8216,-3.8856,0.0,0.0,0.0,0.0,0.0,0.0,0.0,-3.9697,-3.9697,-3.9697,-3.9697,-3.9697,-3.9697,-3.9697,-3.9697,-3.9697,-3.9697,-3.9697,-3.9697,-3.9697,-3.9697,-3.9697,-3.9697,-3.9697,0.0,-3.9697,-3.9749,-3.9929,-4.0083,-4.0173,-4.0858,-4.1348,-4.1746,-4.2652,-4.3362,-4.4026,-4.5216,-4.6135,-4.6785,-4.6887,-4.7062,-4.7055,-4.5708,-4.5289,-4.502,-4.3663,-4.329,-4.329,-4.329,-4.329,-4.329,-4.329,-4.329,-4.329,-4.329,-4.329,-4.329,-4.329,-4.329,-4.329,-4.329,-4.329,-4.329,-4.329,-4.329,-4.329,-4.329,-4.329,-4.329,-4.329,-4.329,-4.329,-4.329,-4.329,-4.3245,-4.3155,-4.3245,-4.329,-4.329,-4.329,-4.329,-4.329,-4.329,-4.329,-4.329,-4.329,-4.329,-4.329,-4.329,-4.329,-2.4788,-2.569,-2.6826,-2.7685,-2.7601,-2.7507,-2.8348,0.0,0.0,0.0,0.0,0.0,0.0,0.0,-3.2026,-3.3696,0.0,-3.637,-3.7475,-3.8115,-3.868,0.0,0.0,0.0,0.0,0.0,0.0,0.0,0.0,0.0,-3.9697,-3.9697,-3.9697,-3.9697,-3.9697,-3.9697,-3.9697,-3.9697,-3.9697,-3.9697,-3.9697,-3.9697,-3.9697,-3.9697,-3.9697,-3.9697,0.0,-3.9697,-3.9749,-3.9981,-4.0275,-4.058,-4.1248,-4.1931,-4.2652,-4.3979,-4.4694,-4.517,-4.6121,-4.6624,-4.6916,-4.7062,-4.6969,-4.6591,-4.5603,-4.505,-4.4571,-4.3559,-4.329,-4.329,-4.329,-4.329,-4.329,-4.329,-4.329,-4.329,-4.329,-4.329,-4.329,-4.329,-4.329,-4.329,-4.329,-4.329,-4.329,-4.329,-4.329,-4.329,-4.329,-4.329,-4.329,-4.329,-4.329,-4.329,-4.329,-4.329,-4.329,-4.329,-4.329,-4.329,-4.329,-4.329,-4.329,-4.329,-4.329,-4.329,-4.329,-4.329,-4.329,-4.329,-4.329,-4.329,-2.4885,-2.5911,-2.7227,-2.8206,0.0,-2.7952,-2.9139,0.0,0.0,0.0,0.0,0.0,0.0,-3.2294,0.0,-3.4643,-3.583,-3.6945,-3.7864,-3.8504,-3.9082,0.0,0.0,0.0,0.0,0.0,0.0,0.0,0.0,0.0,-3.9697,-3.9697,-3.9697,-3.9697,-3.9697,-3.9697,-3.9697,-3.9697,-3.9697,-3.9697,-3.9697,-3.9697,-3.9697,-3.9697,-3.9697,-3.9697,-3.9697,-3.9736,-3.9788,-4.0083,-4.0529,-4.1047,-4.1647,-4.2617,-4.379,-4.5124,-4.5821,-4.6194,-4.6697,-4.6931,-4.6989,-4.7028,-4.6741,-4.6172,-4.5319,-4.4721,-4.4182,-4.3484,-4.329,-4.329,-4.329,-4.329,-4.329,-4.329,-4.329,-4.329,-4.329,-4.329,-4.329,-4.329,-4.329,-4.329,-4.329,-4.329,-4.329,-4.329,-4.329,-4.329,-4.329,-4.329,-4.329,-4.329,-4.329,-4.329,-4.329,-4.329,-4.329,-4.329,-4.329,-4.329,-4.329,-4.329,-4.329,-4.329,-4.329,-4.329,-4.329,-4.329,-4.329,-4.329,-4.329,-4.3329,-2.5084,-2.6424,-2.7934,-2.8536,-2.8628,0.0,-3.0676,-3.1047,0.0,0.0,0.0,0.0,0.0,-3.36,-3.4705,-3.5332,-3.6408,-3.7324,-3.7927,0.0,0.0,0.0,0.0,0.0,0.0,0.0,0.0,0.0,0.0,0.0,-3.9697,-3.9697,-3.9697,-3.9697,-3.9697,-3.9697,-3.9697,-3.9697,-3.9697,-3.9697,-3.9697,-3.9697,-3.9697,-3.9697,-3.9697,-3.9697,-3.9697,-3.9839,-4.007,-4.0351,-4.0808,-4.1361,-4.2155,-4.3485,-4.5032,-4.564,-4.6269,-4.6829,-4.6873,-4.7062,-4.7161,-4.6548,-4.6324,-4.6082,-4.4781,-4.4347,-4.4182,-4.3484,-4.329,-4.329,-4.329,-4.329,-4.329,-4.329,-4.329,-4.329,-4.329,-4.329,-4.329,-4.329,-4.329,-4.329,-4.329,-4.329,-4.329,-4.329,-4.329,-4.329,-4.329,-4.329,-4.329,-4.329,-4.329,-4.329,-4.329,-4.329,-4.329,-4.329,-4.329,-4.329,-4.329,-4.329,-4.329,-4.329,-4.329,-4.329,-4.329,-4.329,-4.329,-4.329,-4.329,-4.3423,-2.5351,-2.6782,-2.8391,-2.9021,0.0,0.0,0.0,0.0,0.0,0.0,0.0,0.0,0.0,0.0,-3.5257,-3.547,-3.6759,0.0,0.0,0.0,0.0,0.0,0.0,0.0,0.0,0.0,0.0,0.0,0.0,0.0,-3.9697,-3.9697,-3.9697,-3.9697,-3.9697,-3.9697,-3.9697,-3.9697,-3.9697,-3.9697,-3.9697,-3.9697,-3.9697,-3.9697,-3.9697,-3.9697,-3.9697,-3.9839,-4.0121,-4.0593,-4.1147,-4.1944,-4.3355,-4.463,-4.564,-4.615,-4.658,-4.6916,-4.7062,-4.6939,-4.6651,-4.6369,-4.5753,-4.4975,-4.4466,-4.3992,-4.3618,-4.3364,-4.329,-4.329,-4.329,-4.329,-4.329,-4.329,-4.329,-4.329,-4.329,-4.329,-4.329,-4.329,-4.329,-4.329,-4.329,-4.329,-4.329,-4.329,-4.329,-4.329,-4.329,-4.329,-4.329,-4.329,-4.329,-4.329,-4.329,-4.329,-4.329,-4.329,-4.329,-4.329,-4.329,-4.329,-4.329,-4.329,-4.329,-4.329,-4.329,-4.329,-4.329,-4.329,-4.3463,-4.3596,-2.5825,-2.7419,-2.9103,0.0,0.0,0.0,0.0,0.0,0.0,0.0,0.0,0.0,0.0,0.0,0.0,0.0,0.0,0.0,0.0,0.0,0.0,0.0,0.0,0.0,0.0,0.0,0.0,0.0,0.0,0.0,0.0,-3.9697,-3.9697,-3.9697,-3.9697,-3.9697,-3.9697,-3.9697,-3.9697,-3.9697,-3.9697,-3.9697,-3.9697,-3.9697,-3.9697,-3.9685,-3.9611,-3.9664,-3.9944,-4.0317,-4.108,-4.2146,-4.3714,-4.4748,-4.5448,-4.5932,-4.6236,-4.6437,-4.6623,-4.6381,-4.5963,-4.5753,-4.5065,-4.4272,-4.4062,-4.3648,-4.329,-4.329,-4.329,-4.329,-4.329,-4.329,-4.329,-4.329,-4.329,-4.329,-4.329,-4.329,-4.329,-4.329,-4.329,-4.329,-4.329,-4.329,-4.329,-4.329,-4.329,-4.329,-4.329,-4.329,-4.329,-4.329,-4.329,-4.329,-4.329,-4.329,-4.329,-4.329,-4.329,-4.329,-4.329,-4.329,-4.329,-4.329,-4.329,-4.329,-4.329,-4.329,-4.3329,-4.3423,-4.3596,-4.3793,-2.6549,-2.8379,-3.0271,0.0,0.0,0.0,0.0,0.0,0.0,0.0,0.0,0.0,-3.5965,0.0,0.0,-3.6364,0.0,0.0,0.0,0.0,0.0,0.0,0.0,0.0,0.0,0.0,0.0,0.0,0.0,0.0,0.0,-3.9697,-3.9697,-3.9697,-3.9697,-3.9697,-3.9697,-3.9697,-3.9697,-3.9697,-3.9685,-3.9685,-3.9697,-3.9685,-3.9685,-3.9659,-3.9335,-3.9333,-3.9618,-3.9553,-4.0448,-4.1896,-4.2855,-4.3647,-4.4351,-4.4818,-4.5138,-4.5289,-4.5289,-4.5289,-4.517,-4.4526,-4.4317,-4.4182,-4.3484,-4.329,-4.329,-4.329,-4.329,-4.329,-4.329,-4.329,-4.329,-4.329,-4.329,-4.329,-4.329,-4.329,-4.329,-4.329,-4.329,-4.329,-4.329,-4.329,-4.329,-4.329,-4.329,-4.329,-4.329,-4.329,-4.329,-4.329,-4.329,-4.329,-4.329,-4.329,-4.329,-4.329,-4.329,-4.329,-4.329,-4.329,-4.329,-4.329,-4.329,-4.329,-4.329,-4.329,-4.3423,-4.369,-4.3729,-4.4026,-2.7621,-2.924,0.0,-3.2136,0.0,0.0,0.0,0.0,0.0,0.0,0.0,-3.6896,-3.6734,0.0,0.0,0.0,0.0,0.0,0.0,0.0,0.0,0.0,0.0,0.0,0.0,0.0,0.0,0.0,0.0,0.0,0.0,-3.9697,-3.9697,-3.9697,-3.9697,-3.9697,-3.9697,-3.9697,-3.9697,-3.9685,-3.9295,-3.932,-3.9685,-3.9295,-3.9209,-3.9323,-3.8854,-3.8994,-3.9602,-4.0656,-4.17,-4.2662,-4.3414,-4.4022,-4.4534,-4.4902,-4.5138,-4.5289,-4.5289,-4.499,-4.4571,-4.4377,-4.4003,-4.3544,-4.3349,-4.329,-4.329,-4.329,-4.329,-4.329,-4.329,-4.329,-4.329,-4.329,-4.329,-4.329,-4.329,-4.329,-4.329,-4.329,-4.329,-4.329,-4.329,-4.329,-4.329,-4.329,-4.329,-4.329,-4.329,-4.329,-4.329,-4.329,-4.329,-4.329,-4.329,-4.329,-4.329,-4.329,-4.329,-4.329,-4.329,-4.329,-4.329,-4.329,-4.329,-4.329,-4.329,-4.3503,-4.3596,-4.3729,-4.4143,-4.4496,-2.8454,-2.9984,0.0,-3.3136,-3.4638,-3.6159,-3.7967,0.0,0.0,0.0,0.0,-3.7985,-3.755,-3.7246,0.0,0.0,0.0,0.0,0.0,0.0,0.0,0.0,0.0,0.0,0.0,0.0,0.0,0.0,0.0,0.0,0.0,-3.9019,-3.9019,-3.9019,-3.9019,-3.9019,-3.9019,-3.9133,-3.9184,-3.9184,-3.8956,-3.9019,-3.9335,-3.8894,-3.8829,-3.9052,-3.8759,-3.8981,-3.9647,-4.0744,-4.1695,-4.2496,-4.3053,-4.356,-4.4004,-4.424,-4.4404,-4.4511,-4.4511,-4.4257,-4.3888,-4.3888,-4.3618,-4.329,-4.329,-4.329,-4.329,-4.329,-4.329,-4.329,-4.329,-4.329,-4.329,-4.329,-4.329,-4.329,-4.329,-4.329,-4.329,-4.329,-4.329,-4.329,-4.329,-4.329,-4.329,-4.329,-4.329,-4.329,-4.329,-4.329,-4.329,-4.329,-4.329,-4.329,-4.329,-4.329,-4.329,-4.329,-4.329,-4.329,-4.329,-4.329,-4.329,-4.329,-4.329,-4.329,-4.329,-4.3557,-4.3754,-4.3949,-4.4473,-4.4933,-2.9081,0.0,0.0,-3.3974,-3.5446,0.0,-3.9322,-3.9943,-4.0055,-4.0276,0.0,-3.9158,-3.8381,0.0,0.0,0.0,0.0,0.0,0.0,0.0,0.0,0.0,0.0,0.0,0.0,0.0,0.0,0.0,0.0,0.0,0.0,-3.8002,-3.8002,-3.8052,-3.8052,-3.8052,-3.8064,-3.831,-3.847,-3.8458,-3.8677,-3.8797,-3.8797,-3.8541,-3.8515,-3.8791,-3.8961,-3.9269,-3.9692,-4.0215,-4.0916,-4.1785,-4.2254,-4.2688,-4.3036,-4.325,-4.329,-4.329,-4.329,-4.329,-4.329,-4.329,-4.329,-4.329,-4.329,-4.329,-4.329,-4.329,-4.329,-4.329,-4.329,-4.329,-4.329,-4.329,-4.329,-4.329,-4.329,-4.329,-4.329,-4.329,-4.329,-4.329,-4.329,-4.329,-4.329,-4.329,-4.329,-4.329,-4.329,-4.329,-4.329,-4.329,-4.329,-4.329,-4.329,-4.329,-4.329,-4.329,-4.329,-4.329,-4.329,-4.329,-4.329,-4.329,-4.329,-4.329,-4.3329,-4.3596,-4.3949,-4.4358,-4.4761,-4.5342,-2.9882,-3.1179,0.0,0.0,-3.7775,-3.9874,-4.0183,-4.0923,-4.1336,-4.0745,-4.0213,-3.9645,-3.8863,0.0,0.0,0.0,0.0,0.0,0.0,0.0,0.0,0.0,0.0,0.0,0.0,0.0,0.0,0.0,0.0,0.0,-3.8002,-3.8002,-3.8114,-3.8323,-3.831,-3.8421,-3.863,-3.8679,-3.8812,0.0,-3.8591,-3.8575,-3.894,-3.8528,-3.8436,-3.8655,-3.9055,-3.9564,-4.0215,-4.0887,-4.1465,-4.1993,-4.2633,-4.2915,-4.3036,-4.325,-4.329,-4.329,-4.329,-4.329,-4.329,-4.329,-4.329,-4.329,-4.329,-4.329,-4.329,-4.329,-4.329,-4.329,-4.329,-4.329,-4.329,-4.329,-4.329,-4.329,-4.329,-4.329,-4.329,-4.329,-4.329,-4.329,-4.329,-4.329,-4.329,-4.329,-4.329,-4.329,-4.329,-4.329,-4.329,-4.329,-4.329,-4.329,-4.329,-4.329,-4.329,-4.329,-4.329,-4.329,-4.329,-4.329,-4.329,-4.329,-4.329,-4.3384,-4.3596,-4.3832,-4.4127,-4.4549,-4.5098,-4.5672,-2.9333,0.0,0.0,-3.5712,0.0,-4.0757,-4.0602,-4.1481,-4.2075,-4.1213,-4.0559,-3.9938,0.0,0.0,0.0,0.0,0.0,0.0,0.0,0.0,0.0,0.0,0.0,0.0,0.0,0.0,0.0,0.0,0.0,-3.726,-3.7344,-3.7404,-3.7549,-3.7957,-3.7957,-3.8088,-3.8325,-3.8467,-3.8608,-3.8877,-3.8655,-3.8878,-3.9469,-3.8878,-3.8855,-3.9305,-3.9631,-4.0229,-4.1001,-4.1493,-4.1993,-4.2511,-4.286,-4.3076,-4.3155,-4.325,-4.329,-4.329,-4.329,-4.329,-4.329,-4.329,-4.329,-4.329,-4.329,-4.329,-4.329,-4.329,-4.329,-4.329,-4.329,-4.329,-4.329,-4.329,-4.329,-4.329,-4.329,-4.329,-4.329,-4.329,-4.329,-4.329,-4.329,-4.329,-4.329,-4.329,-4.329,-4.329,-4.329,-4.329,-4.329,-4.329,-4.329,-4.329,-4.329,-4.329,-4.329,-4.329,-4.329,-4.329,-4.329,-4.329,-4.329,-4.329,-4.329,-4.3423,-4.369,-4.3988,-4.4396,-4.4911,-4.5562,-4.6195,-2.8411,0.0,-3.2906,-3.602,-3.8627,0.0,-4.0489,-4.1479,-4.2202,-4.135,-4.0731,-4.0142,0.0,0.0,0.0,0.0,0.0,0.0,0.0,0.0,0.0,0.0,0.0,0.0,0.0,0.0,0.0,0.0,0.0,-3.6546,-3.6815,-3.6815,-3.7108,-3.769,-3.769,-3.7802,-3.805,-3.8291,-3.853,-3.8859,-3.91,-3.953,-4.017,-3.9574,-3.9618,-4.017,-4.0402,-4.0958,-4.1785,-4.2034,-4.247,-4.2981,-4.3036,-4.3155,-4.329,-4.329,-4.329,-4.329,-4.329,-4.329,-4.329,-4.329,-4.329,-4.329,-4.329,-4.329,-4.329,-4.329,-4.329,-4.329,-4.329,-4.329,-4.329,-4.329,-4.329,-4.329,-4.329,-4.329,-4.329,-4.329,-4.329,-4.329,-4.329,-4.329,-4.329,-4.329,-4.329,-4.329,-4.329,-4.329,-4.329,-4.329,-4.329,-4.329,-4.329,-4.329,-4.329,-4.329,-4.329,-4.329,-4.329,-4.329,-4.329,-4.329,-4.3344,-4.3518,-4.3769,-4.4166,-4.4648,-4.5284,-4.5981,-4.6617,0.0,0.0,-3.4077,0.0,-3.7754,-3.9158,0.0,0.0,-4.11,0.0,-4.0449,0.0,0.0,0.0,0.0,0.0,0.0,0.0,0.0,0.0,0.0,0.0,0.0,0.0,0.0,0.0,0.0,0.0,-3.6675,-3.6862,-3.7366,-3.74,-3.7736,-3.8421,-3.8466,-3.8679,-3.9114,-3.9127,-3.9394,-3.9821,-4.0257,-4.0588,-4.0873,-4.0986,-4.0986,-4.0873,-4.1156,-4.1507,-4.1993,-4.2444,-4.2754,-4.3036,-4.321,-4.329,-4.329,-4.329,-4.329,-4.329,-4.329,-4.329,-4.329,-4.329,-4.329,-4.329,-4.329,-4.329,-4.329,-4.329,-4.329,-4.329,-4.329,-4.329,-4.329,-4.329,-4.329,-4.329,-4.329,-4.329,-4.329,-4.329,-4.329,-4.329,-4.329,-4.329,-4.329,-4.329,-4.329,-4.329,-4.329,-4.329,-4.329,-4.329,-4.329,-4.329,-4.329,-4.329,-4.329,-4.329,-4.329,-4.329,-4.329,-4.329,-4.329,-4.329,-4.3518,-4.3754,-4.3949,-4.4358,-4.4874,-4.5468,-4.6052,-4.6617,-2.8179,-3.0718,-3.2995,0.0,-3.6916,-3.8574,-3.8716,0.0,-4.0368,-3.9598,0.0,0.0,0.0,0.0,0.0,0.0,0.0,0.0,0.0,0.0,0.0,0.0,0.0,0.0,0.0,0.0,0.0,0.0,-3.6815,-3.7155,-3.7677,-3.7952,-3.8453,-3.9145,-3.9292,-3.9601,-4.0083,-4.0083,-4.03,-4.0787,-4.1114,-4.1437,-4.1785,-4.1924,-4.18,-4.1563,-4.1841,-4.2172,-4.2592,-4.2795,-4.2996,-4.317,-4.325,-4.329,-4.329,-4.329,-4.329,-4.329,-4.329,-4.329,-4.329,-4.329,-4.329,-4.329,-4.329,-4.329,-4.329,-4.329,-4.329,-4.329,-4.329,-4.329,-4.329,-4.329,-4.329,-4.329,-4.329,-4.329,-4.329,-4.329,-4.329,-4.329,-4.329,-4.329,-4.329,-4.329,-4.329,-4.329,-4.329,-4.329,-4.329,-4.329,-4.329,-4.329,-4.329,-4.329,-4.329,-4.329,-4.329,-4.329,-4.329,-4.329,-4.329,-4.329,-4.3557,-4.3832,-4.4166,-4.4701,-4.5247,-4.5832,-4.6493,-4.7064,0.0,0.0,-3.1364,-3.3638,-3.566,-3.725,0.0,0.0,0.0,0.0,0.0,0.0,0.0,0.0,0.0,0.0,0.0,0.0,0.0,0.0,0.0,0.0,0.0,0.0,0.0,0.0,0.0,0.0,-3.7155,-3.7572,-3.8213,-3.8621,-3.9077,-3.9589,-3.992,-4.0208,-4.0477,-4.0561,-4.0812,-4.1159,-4.135,-4.1637,-4.1975,-4.203,-4.1975,-4.1773,-4.2137,-4.2493,-4.2728,-4.2644,-4.2663,-4.2811,-4.3015,-4.309,-4.3105,-4.323,-4.329,-4.329,-4.329,-4.329,-4.329,-4.329,-4.329,-4.329,-4.329,-4.329,-4.329,-4.329,-4.329,-4.329,-4.329,-4.329,-4.329,-4.329,-4.329,-4.329,-4.329,-4.329,-4.329,-4.329,-4.329,-4.329,-4.329,-4.329,-4.329,-4.329,-4.329,-4.329,-4.329,-4.329,-4.329,-4.329,-4.329,-4.329,-4.329,-4.329,-4.329,-4.329,-4.329,-4.329,-4.329,-4.329,-4.329,-4.329,-4.3596,-4.3949,-4.4281,-4.4949,-4.5578,-4.6156,-4.6858,-4.742,0.0,-2.8433,0.0,-3.2707,0.0,0.0,0.0,0.0,0.0,0.0,0.0,0.0,0.0,0.0,0.0,0.0,0.0,0.0,0.0,0.0,0.0,0.0,0.0,0.0,0.0,0.0,0.0,0.0,-3.7723,-3.8258,-3.9172,-3.9441,-3.9605,-3.9676,-4.0122,-4.0222,-3.9837,-4.022,-4.0417,-4.0441,-4.0666,-4.0744,-4.0783,-4.103,-4.116,-4.119,-4.1783,-4.2021,-4.2015,-4.1652,-4.1489,-4.1549,-4.2216,-4.2455,-4.253,-4.3105,-4.329,-4.329,-4.329,-4.329,-4.329,-4.329,-4.329,-4.329,-4.329,-4.329,-4.329,-4.329,-4.329,-4.329,-4.329,-4.329,-4.329,-4.329,-4.329,-4.329,-4.329,-4.329,-4.329,-4.329,-4.329,-4.329,-4.329,-4.329,-4.329,-4.329,-4.329,-4.329,-4.329,-4.329,-4.329,-4.329,-4.329,-4.329,-4.329,-4.329,-4.329,-4.329,-4.329,-4.329,-4.329,-4.329,-4.329,-4.329,-4.3738,-4.4104,-4.4281,-4.5098,-4.5744,-4.6285,-4.6927,-4.7487,0.0,0.0,0.0,-3.0276,-3.1996,-3.348,0.0,0.0,0.0,0.0,0.0,0.0,0.0,0.0,0.0,0.0,0.0,0.0,0.0,0.0,0.0,0.0,0.0,0.0,0.0,0.0,0.0,0.0,0.0,-3.7531,-3.831,-3.8794,-3.9284,-3.9743,-4.0067,-4.0246,-4.0368,-4.0524,-4.068,-4.0849,-4.0926,-4.1041,-4.1141,-4.1232,-4.127,-4.1293,-4.1062,-4.1211,-4.1584,-4.1474,-4.1422,-4.1399,-4.1677,-4.1767,-4.1856,-4.2462,-4.2701,-4.2776,-4.3155,-4.329,-4.329,-4.329,-4.329,-4.329,-4.329,-4.329,-4.329,-4.329,-4.329,-4.329,-4.329,-4.329,-4.329,-4.329,-4.329,-4.329,-4.329,-4.329,-4.329,-4.329,-4.329,-4.329,-4.329,-4.329,-4.329,-4.329,-4.329,-4.329,-4.329,-4.329,-4.329,-4.329,-4.329,-4.329,-4.329,-4.329,-4.329,-4.329,-4.329,-4.329,-4.329,-4.329,-4.329,-4.329,-4.3778,-4.4166,-4.4496,-4.5284,-4.5961,-4.6512,-4.7098,-4.7654,-2.4556,0.0,0.0,0.0,0.0,-3.1827,0.0,0.0,0.0,0.0,0.0,0.0,0.0,0.0,0.0,0.0,0.0,0.0,0.0,0.0,0.0,0.0,0.0,0.0,0.0,0.0,0.0,0.0,0.0,0.0,-3.8103,-3.8778,-3.9382,-3.9906,-3.9804,-3.9918,-4.026,-4.026,-4.0336,-4.0516,-4.0516,-4.0591,-4.0726,-4.0726,-4.0726,-4.0696,-4.0262,-4.0442,-4.104,-4.0816,-4.0726,-4.0741,-4.0965,-4.1055,-4.113,-4.1826,-4.2066,-4.2126,-4.2521,-4.2671,-4.2671,-4.2671,-4.2821,-4.3015,-4.3015,-4.3125,-4.329,-4.329,-4.329,-4.329,-4.329,-4.329,-4.329,-4.329,-4.329,-4.329,-4.329,-4.329,-4.329,-4.329,-4.329,-4.329,-4.329,-4.329,-4.329,-4.329,-4.329,-4.329,-4.329,-4.329,-4.329,-4.329,-4.329,-4.329,-4.329,-4.329,-4.329,-4.329,-4.329,-4.329,-4.329,-4.329,-4.329,-4.329,-4.3778,-4.4205,-4.461,-4.5395,-4.6104,-4.6703,-4.7251,-4.7787,0.0,0.0,0.0,0.0,0.0,0.0,0.0,0.0,0.0,0.0,0.0,0.0,0.0,0.0,0.0,0.0,0.0,0.0,0.0,0.0,0.0,0.0,0.0,0.0,0.0,0.0,0.0,0.0,-3.739,-3.8048,-3.8722,-3.9424,-3.9877,-4.0077,-3.9446,-3.9177,-3.9388,-3.9388,-3.9388,-3.9388,-3.9388,-3.9388,-3.9388,-3.9388,-3.9388,-3.9388,-3.9388,-3.9783,-4.0322,-3.9679,-3.9388,-3.9448,-4.0127,-4.0367,-4.0442,-4.1115,-4.1354,-4.1354,-4.1407,-4.1422,-4.1422,-4.1422,-4.1856,-4.2366,-4.2366,-4.2791,-4.326,-4.326,-4.329,-4.329,-4.329,-4.329,-4.329,-4.329,-4.329,-4.329,-4.329,-4.329,-4.329,-4.329,-4.329,-4.329,-4.329,-4.329,-4.329,-4.329,-4.329,-4.329,-4.329,-4.329,-4.329,-4.329,-4.329,-4.329,-4.329,-4.329,-4.329,-4.329,-4.329,-4.329,-4.329,-4.329,-4.329,-4.329,-4.3778,-4.4205,-4.461,-4.5395,-4.6191,-4.6927,-4.7319,-4.7886,-2.3701,0.0,0.0,0.0,0.0,0.0,0.0,0.0,0.0,0.0,0.0,0.0,0.0,0.0,0.0,0.0,0.0,0.0,0.0,0.0,0.0,0.0,0.0,0.0,0.0,0.0,0.0,0.0,-3.647,-3.7059,-3.7891,-3.8815,-3.9306,-3.9387,-3.9333,-3.9337,-3.9388,-3.9388,-3.9388,-3.9388,-3.9388,-3.9388,-3.9388,-3.9388,-3.9388,-3.9388,-3.9388,-3.9529,-3.9679,-3.9499,-3.9388,-3.9439,-3.9619,-3.9694,-3.9768,-4.0427,-4.0666,-4.0741,-4.122,-4.1422,-4.1422,-4.1422,-4.1542,-4.1692,-4.1692,-4.2141,-4.2626,-4.2626,-4.297,-4.329,-4.329,-4.329,-4.329,-4.329,-4.329,-4.329,-4.329,-4.329,-4.329,-4.329,-4.329,-4.329,-4.329,-4.329,-4.329,-4.329,-4.329,-4.329,-4.329,-4.329,-4.329,-4.329,-4.329,-4.329,-4.329,-4.329,-4.329,-4.329,-4.329,-4.329,-4.329,-4.329,-4.3384,-4.3596,-4.3871,-4.4281,-4.4799,-4.5468,-4.6191,-4.6911,-4.782,-4.8324,-2.453,-2.5061,-2.5843,-2.6627,0.0,0.0,-2.9444,-3.0141,0.0,0.0,0.0,0.0,0.0,0.0,0.0,0.0,0.0,0.0,0.0,0.0,0.0,0.0,0.0,0.0,0.0,-3.501,-3.5263,-3.6071,-3.6494,-3.7106,-3.8052,-3.8738,-3.9141,-3.9228,-3.9337,-3.9388,-3.9388,-3.9388,-3.9388,-3.9388,-3.9388,-3.9388,-3.9388,-3.9388,-3.9388,-3.9388,-3.9388,-3.9388,-3.9388,-3.9388,-3.9388,-3.9388,-3.9388,-3.9388,-3.9433,-3.9843,-3.9993,-4.0053,-4.0427,-4.0561,-4.0561,-4.0561,-4.0741,-4.0965,-4.0965,-4.1467,-4.1991,-4.1991,-4.2222,-4.2521,-4.2521,-4.2521,-4.2521,-4.2521,-4.2521,-4.2521,-4.2521,-4.2731,-4.3015,-4.3245,-4.329,-4.329,-4.329,-4.329,-4.329,-4.329,-4.329,-4.329,-4.329,-4.329,-4.329,-4.329,-4.329,-4.329,-4.329,-4.329,-4.329,-4.329,-4.329,-4.329,-4.329,-4.3423,-4.3557,-4.369,-4.4065,-4.4648,-4.5473,-4.5687,-4.6282,-4.7252,-4.8114,-4.8547,-2.6369,-2.6369,-2.6578,-2.7368,-2.766,0.0,-2.9378,-3.0063,-3.0535,0.0,0.0,0.0,0.0,0.0,0.0,0.0,0.0,0.0,0.0,0.0,0.0,0.0,0.0,0.0,-3.5008,-3.5359,-3.5839,-3.6509,-3.6975,-3.7624,-3.8576,-3.8809,-3.9005,-3.9164,-3.92,-3.92,-3.92,-3.92,-3.92,-3.92,-3.92,-3.92,-3.92,-3.9275,-3.9305,-3.9305,-3.9394,-3.9388,-3.9388,-3.9388,-3.9388,-3.9388,-3.9388,-3.9388,-3.9388,-3.9388,-3.9388,-3.9388,-3.9388,-3.9388,-3.9388,-3.9388,-3.9813,-4.0292,-4.0292,-4.0756,-4.128,-4.1392,-4.1422,-4.1422,-4.1422,-4.1422,-4.1422,-4.1422,-4.1422,-4.1422,-4.1422,-4.1871,-4.247,-4.2961,-4.3185,-4.329,-4.329,-4.329,-4.329,-4.329,-4.329,-4.329,-4.329,-4.329,-4.329,-4.329,-4.329,-4.329,-4.329,-4.329,-4.329,-4.329,-4.329,-4.329,-4.3329,-4.3557,-4.3729,-4.3808,-4.4396,-4.5268,-4.6321,-4.6068,-4.6563,-4.7754,-4.826,-4.8595,-2.6809,-2.6779,-2.6959,-2.7711,-2.7923,0.0,-2.9366,-2.9691,-3.0017,0.0,0.0,0.0,0.0,0.0,0.0,0.0,0.0,0.0,0.0,0.0,0.0,0.0,0.0,0.0,-3.4594,-3.467,-3.4976,-3.5629,-3.633,-3.6944,-3.739,-3.762,-3.7759,-3.7793,-3.7793,-3.7793,-3.7793,-3.7793,-3.7793,-3.7793,-3.7793,-3.7793,-3.7823,-3.8347,-3.8601,-3.8616,-3.9185,-3.9388,-3.9388,-3.9388,-3.9388,-3.9388,-3.9388,-3.9388,-3.9388,-3.9388,-3.9388,-3.9388,-3.9388,-3.9388,-3.9388,-3.9388,-3.9514,-3.9619,-3.9619,-4.0068,-4.0711,-4.1235,-4.1422,-4.1422,-4.1422,-4.1422,-4.1422,-4.1422,-4.1422,-4.1422,-4.1422,-4.1512,-4.1647,-4.1743,-4.2611,-4.329,-4.329,-4.329,-4.329,-4.329,-4.329,-4.329,-4.329,-4.329,-4.329,-4.329,-4.329,-4.329,-4.329,-4.329,-4.329,-4.329,-4.329,-4.3384,-4.3596,-4.369,-4.391,-4.4396,-4.5167,-4.5884,-4.6547,-4.6823,-4.7285,-4.7968,-4.834,-4.8595,-2.8792,-2.8692,-2.8723,-2.8768,-2.8847,0.0,0.0,-2.9898,-3.0244,-3.0713,-3.0939,0.0,0.0,0.0,0.0,0.0,0.0,0.0,0.0,0.0,0.0,0.0,0.0,0.0,-3.4929,-3.5041,-3.5323,-3.5892,-3.6514,-3.6915,-3.7089,-3.7282,-3.7404,-3.7404,-3.7404,-3.7404,-3.7404,-3.7404,-3.7404,-3.7404,-3.7404,-3.7404,-3.7419,-3.7749,-3.7898,-3.7943,-3.8616,-3.8901,-3.8931,-3.9239,-3.9388,-3.9388,-3.9388,-3.9388,-3.9388,-3.9388,-3.9388,-3.9388,-3.9388,-3.9388,-3.9388,-3.9388,-3.9388,-3.9388,-3.9388,-3.9649,-3.9978,-4.0307,-4.0397,-4.0397,-4.0397,-4.0397,-4.0397,-4.0397,-4.0397,-4.0397,-4.0397,-4.0666,-4.0891,-4.0891,-4.1683,-4.2462,-4.2791,-4.2851,-4.2955,-4.3245,-4.329,-4.329,-4.329,-4.329,-4.329,-4.329,-4.329,-4.329,-4.329,-4.329,-4.329,-4.329,-4.329,-4.3423,-4.369,-4.3808,-4.4243,-4.5024,-4.5724,-4.6333,-4.6876,-4.7386,-4.7754,-4.8115,-4.8468,-4.8738,-3.1023,-3.0796,-3.0584,-3.0117,-2.9984,-2.9962,0.0,0.0,0.0,-3.0702,-3.0925,0.0,0.0,0.0,0.0,0.0,0.0,0.0,0.0,0.0,0.0,0.0,0.0,0.0,0.0,-3.5346,-3.5725,-3.6225,-3.6566,-3.6753,-3.6788,-3.6943,-3.7045,-3.7045,-3.7045,-3.7045,-3.7045,-3.7045,-3.7045,-3.7045,-3.7045,-3.7045,-3.7045,-3.718,-3.724,-3.727,-3.7913,-3.8197,-3.8257,-3.8931,-3.923,-3.923,-3.9364,-3.9388,-3.9388,-3.9388,-3.9388,-3.9388,-3.9388,-3.9388,-3.9388,-3.9388,-3.9388,-3.9388,-3.9388,-3.9388,-3.9388,-3.9388,-3.9388,-3.9388,-3.9388,-3.9388,-3.9388,-3.9388,-3.9388,-3.9388,-3.9388,-3.9843,-4.0217,-4.0217,-4.0636,-4.125,-4.2081,-4.2216,-4.244,-4.3045,-4.315,-4.3155,-4.329,-4.329,-4.329,-4.329,-4.329,-4.329,-4.329,-4.329,-4.329,-4.329,-4.3344,-4.3503,-4.3769,-4.4104,-4.4685,-4.5614,-4.6124,-4.6703,-4.7251,-4.7655,-4.7982,-4.826,-4.8644,-4.8863,0.0,0.0,0.0,0.0,-3.0928,-3.0538,-3.0672,0.0,-3.0821,-3.1014,0.0,0.0,0.0,0.0,0.0,0.0,0.0,0.0,0.0,0.0,0.0,0.0,0.0,0.0,0.0,-3.4437,-3.5089,-3.5337,-3.5403,-3.5484,-3.5663,-3.5696,-3.5729,-3.5729,-3.5729,-3.5729,-3.5729,-3.5729,-3.5729,-3.5729,-3.5729,-3.5729,-3.5744,-3.6327,-3.6596,-3.6626,-3.7255,-3.7524,-3.7569,-3.8242,-3.8497,-3.8571,-3.9185,-3.9388,-3.9388,-3.9388,-3.9388,-3.9388,-3.9388,-3.9388,-3.9388,-3.9388,-3.9388,-3.9388,-3.9388,-3.9388,-3.9388,-3.9388,-3.9388,-3.9388,-3.9388,-3.9388,-3.9388,-3.9388,-3.9388,-3.9388,-3.9388,-3.9448,-3.9493,-3.9493,-3.9589,-4.0038,-4.128,-4.1527,-4.1752,-4.241,-4.2515,-4.2686,-4.3215,-4.329,-4.329,-4.329,-4.329,-4.329,-4.329,-4.329,-4.329,-4.329,-4.3518,-4.3769,-4.3949,-4.4836,-4.5541,-4.6012,-4.658,-4.703,-4.747,-4.7289,-4.7641,-4.8483,-4.8707,-4.8863,0.0,0.0,0.0,0.0,0.0,0.0,-3.0955,0.0,-3.1117,0.0,0.0,0.0,0.0,0.0,0.0,0.0,-3.0763,0.0,0.0,0.0,0.0,0.0,0.0,0.0,0.0,0.0,0.0,0.0,-3.4586,-3.4842,-3.4906,-3.5295,-3.5504,-3.5504,-3.5504,-3.5504,-3.5504,-3.5504,-3.5504,-3.5504,-3.5504,-3.5504,-3.5519,-3.5789,-3.5923,-3.5953,-3.6596,-3.6881,-3.6926,-3.7554,-3.7823,-3.7883,-3.8556,-3.9065,-3.9388,-3.9388,-3.9388,-3.9388,-3.9388,-3.9388,-3.9388,-3.9388,-3.9388,-3.9388,-3.9388,-3.9388,-3.9388,-3.9388,-3.9388,-3.9388,-3.9388,-3.9388,-3.9388,-3.9388,-3.9388,-3.9388,-3.9388,-3.9388,-3.9388,-3.9388,-3.9388,-3.9589,-4.0142,-4.0561,-4.104,-4.1737,-4.1826,-4.2066,-4.2686,-4.2776,-4.2776,-4.2776,-4.2776,-4.2611,-4.2237,-4.2207,-4.2357,-4.2746,-4.3566,-4.4143,-4.4358,-4.5188,-4.5848,-4.6211,-4.6369,-4.6682,-4.7127,-4.6799,-4.6862,-4.7348,-4.7535,-4.7673,-3.4537,0.0,0.0,0.0,0.0,0.0,0.0,0.0,0.0,0.0,0.0,0.0,0.0,0.0,-3.1127,-3.0458,0.0,-2.9977,0.0,0.0,0.0,0.0,0.0,0.0,0.0,0.0,0.0,0.0,0.0,-3.4324,-3.4503,-3.4951,-3.531,-3.5489,-3.5504,-3.5504,-3.5504,-3.5504,-3.5504,-3.5504,-3.5504,-3.5504,-3.5504,-3.5504,-3.5504,-3.5534,-3.6013,-3.6222,-3.6267,-3.6896,-3.715,-3.7225,-3.7868,-3.8422,-3.8916,-3.9239,-3.9388,-3.9388,-3.9388,-3.9388,-3.9388,-3.9388,-3.9388,-3.9388,-3.9388,-3.9388,-3.9388,-3.9388,-3.9388,-3.9388,-3.9388,-3.9388,-3.9388,-3.9388,-3.9388,-3.9388,-3.9388,-3.9388,-3.9388,-3.9388,-3.9388,-3.9388,-3.9388,-3.9813,-4.0352,-4.101,-4.1115,-4.1392,-4.2051,-4.2126,-4.2126,-4.2126,-4.2126,-4.1931,-4.1452,-4.1422,-4.1655,-4.2249,-4.3229,-4.4035,-4.4558,-4.5101,-4.5607,-4.6153,-4.6057,-4.6208,-4.6609,-4.6235,-4.6109,-4.6211,-4.6625,-4.6786,0.0,0.0,0.0,-3.3469,0.0,0.0,0.0,0.0,-3.1511,0.0,0.0,0.0,0.0,-3.1511,-3.1271,-3.0584,-3.0479,0.0,0.0,0.0,0.0,0.0,0.0,0.0,0.0,0.0,0.0,0.0,0.0,0.0,-3.4474,-3.4533,-3.4816,-3.5489,-3.5504,-3.5504,-3.5504,-3.5504,-3.5504,-3.5504,-3.5504,-3.5504,-3.5504,-3.5504,-3.5504,-3.5504,-3.5534,-3.5534,-3.5594,-3.6237,-3.6522,-3.6582,-3.721,-3.7464,-3.7629,-3.8931,-3.9388,-3.9388,-3.9388,-3.9388,-3.9388,-3.9388,-3.9388,-3.9388,-3.9388,-3.9388,-3.9388,-3.9388,-3.9388,-3.9388,-3.9388,-3.9388,-3.9388,-3.9388,-3.9388,-3.9388,-3.9388,-3.9388,-3.9388,-3.9388,-3.9388,-3.9388,-3.9388,-3.9439,-3.9679,-4.0337,-4.0427,-4.0666,-4.1324,-4.1414,-4.1414,-4.1414,-4.1414,-4.1399,-4.1422,-4.1422,-4.1588,-4.1992,-4.2362,-4.3128,-4.4459,-4.4325,-4.4757,-4.5805,-4.5814,-4.5818,-4.5833,-4.5557,-4.5425,-4.5442,-4.6389,-4.6786,0.0,0.0,-3.4069,-3.3604,0.0,0.0,0.0,0.0,0.0,0.0,0.0,0.0,-3.1511,-3.1511,-3.1152,-3.0073,-2.9894,-2.9532,0.0,0.0,0.0,0.0,0.0,0.0,0.0,0.0,0.0,0.0,-3.2347,0.0,0.0,-3.4279,-3.4801,-3.5489,-3.5504,-3.5504,-3.5504,-3.5504,-3.5504,-3.5504,-3.5504,-3.5504,-3.5504,-3.5504,-3.5504,-3.5504,-3.5504,-3.5504,-3.5519,-3.5744,-3.5833,-3.5893,-3.6552,-3.6791,-3.6956,-3.8257,-3.8736,-3.8796,-3.926,-3.9388,-3.9388,-3.9388,-3.9388,-3.9388,-3.9388,-3.9388,-3.9388,-3.9388,-3.9388,-3.9388,-3.9388,-3.9388,-3.9388,-3.9388,-3.9388,-3.9388,-3.9388,-3.9388,-3.9388,-3.9388,-3.9388,-3.9388,-3.9388,-3.9388,-3.9499,-3.9709,-3.9753,-3.9993,-4.0651,-4.0726,-4.0726,-4.0726,-4.0726,-4.0621,-4.0295,-4.0898,-4.1395,-4.1643,-4.256,-4.3416,-4.4057,-4.4367,-4.4852,-4.5587,-4.5248,-4.5208,-4.554,-4.4963,-4.4754,-4.4885,-4.5213,-4.5359,-3.5504,-3.4996,0.0,-3.3948,-3.317,0.0,-3.1944,0.0,-3.1511,0.0,0.0,0.0,0.0,-3.1511,-3.1077,-2.9804,-2.9606,-2.9142,0.0,-2.7974,0.0,0.0,0.0,0.0,0.0,0.0,-3.0268,-3.0492,-3.1315,0.0,0.0,0.0,-3.4442,-3.5115,-3.5385,-3.5504,-3.5504,-3.5504,-3.5504,-3.5504,-3.5504,-3.5504,-3.5504,-3.5504,-3.5504,-3.5504,-3.5504,-3.5504,-3.5504,-3.5504,-3.5504,-3.5549,-3.5968,-3.6133,-3.6297,-3.7569,-3.8197,-3.8497,-3.9185,-3.9388,-3.9388,-3.9388,-3.9388,-3.9388,-3.9388,-3.9388,-3.9388,-3.9388,-3.9388,-3.9388,-3.9388,-3.9388,-3.9388,-3.9388,-3.9388,-3.9388,-3.9388,-3.9388,-3.9388,-3.9388,-3.9388,-3.9388,-3.9388,-3.9388,-3.9388,-3.9388,-3.9388,-3.9574,-3.9993,-4.0053,-4.0089,-4.0147,-4.0147,-4.0091,-3.9889,-4.0593,-4.1155,-4.1345,-4.23,-4.3142,-4.3687,-4.4042,-4.4556,-4.5199,-4.4796,-4.4712,-4.5005,-4.4603,-4.4468,-4.4615,-4.4615,-4.4615]}]]